[[{"header":{"parameterUnit":"m.s-1","parameterCategory":1,"la1":30.6,"la2":29.2853,"lo1":-89.7004,"lo2":-87.6739,"dy":0.0162,"dx":0.0183,"nx":112,"ny":82,"refTime":"2023-05-09T12:00:00:Z","depth":0,"parameterNumber":2,"parameterNumberName":"U-component_of_WINDS"},"data":[0.0,0.0,0.0,0.0,0.0,0.0,0.0,0.0,0.0,0.0,0.0,0.0,0.0,0.0,0.0,0.0,0.0,0.0,0.0,0.0,0.0,0.0,0.0,0.0,0.0,0.0,0.0,0.0,0.0,0.0,0.0,0.0,0.0,0.0,0.0,0.0,0.0,0.0,0.0,0.0,0.0,0.0,0.0,0.0,0.0,0.0,0.0,0.0,0.0,0.0,0.0,0.0,0.0,0.0,0.0,0.0,0.0,0.0,0.0,0.0,0.0,0.0,0.0,0.0,0.0,0.0,0.0,0.0,0.0,0.0,0.0,0.0,0.0,0.0,0.0,0.0,0.0,0.0,0.0,0.0,0.0,0.0,0.0,0.0,0.0,0.0,0.0,0.0,0.0,0.0,-0.6772,-0.8071,-0.9524,-1.0396,-1.0396,-0.8763,-0.7679,-0.7564,0.0,0.0,0.0,0.0,0.0,0.0,0.0,0.0,0.0,0.0,0.0,0.0,0.0,0.0,0.0,0.0,0.0,0.0,0.0,0.0,0.0,0.0,0.0,0.0,0.0,0.0,0.0,0.0,0.0,0.0,0.0,0.0,0.0,0.0,0.0,0.0,0.0,0.0,0.0,0.0,0.0,0.0,0.0,0.0,0.0,0.0,0.0,0.0,0.0,0.0,0.0,0.0,0.0,0.0,0.0,0.0,0.0,0.0,0.0,0.0,0.0,0.0,0.0,0.0,0.0,0.0,0.0,0.0,0.0,0.0,0.0,0.0,0.0,0.0,0.0,0.0,0.0,0.0,0.0,0.0,0.0,0.0,0.0,0.0,0.0,0.0,0.0,0.0,0.0,0.0,0.0,0.0,0.0,0.0,0.0,0.0,0.0,0.0,0.0,0.0,0.0,0.0,0.0,0.0,-0.7258,-0.8919,-0.9332,-0.9492,-0.9492,-0.8549,-0.7632,-0.6904,0.0,0.0,0.0,0.0,0.0,0.0,0.0,0.0,0.0,0.0,0.0,0.0,0.0,0.0,0.0,0.0,0.0,0.0,0.0,0.0,0.0,0.0,0.0,0.0,0.0,0.0,0.0,0.0,0.0,0.0,0.0,0.0,0.0,0.0,0.0,0.0,0.0,0.0,0.0,0.0,0.0,0.0,0.0,0.0,0.0,0.0,0.0,0.0,0.0,0.0,0.0,0.0,0.0,0.0,0.0,0.0,0.0,0.0,0.0,0.0,0.0,0.0,0.0,0.0,0.0,0.0,0.0,0.0,0.0,0.0,0.0,0.0,0.0,0.0,0.0,0.0,0.0,0.0,0.0,0.0,0.0,0.0,0.0,0.0,0.0,0.0,0.0,0.0,0.0,0.0,0.0,0.0,0.0,0.0,0.0,0.0,0.0,0.0,0.0,0.0,0.0,0.0,0.0,-0.7647,-0.8635,-0.943,-1.0073,-1.0197,-0.9573,-0.8717,-0.7791,-0.6761,-0.5739,0.0,0.0,0.0,0.0,0.0,0.0,0.0,0.0,0.0,0.0,0.0,0.0,0.0,0.0,0.0,0.0,0.0,0.0,0.0,0.0,0.0,0.0,0.0,0.0,0.0,0.0,0.0,0.0,0.0,0.0,0.0,0.0,0.0,0.0,0.0,0.0,0.0,0.0,0.0,0.0,0.0,0.0,0.0,0.0,0.0,0.0,0.0,0.0,0.0,0.0,0.0,0.0,0.0,0.0,0.0,0.0,0.0,0.0,0.0,0.0,0.0,0.0,0.0,0.0,0.0,0.0,0.0,0.0,0.0,0.0,0.0,0.0,0.0,0.0,0.0,0.0,0.0,0.0,0.0,0.0,0.0,0.0,0.0,0.0,0.0,0.0,0.0,0.0,0.0,0.0,0.0,0.0,0.0,0.0,0.0,0.0,0.0,0.0,0.0,0.0,0.0,0.0,-0.8804,-0.9963,-0.9805,-1.0576,-1.0733,-0.9862,-0.8929,-0.7952,-0.6862,-0.6118,0.0,0.0,0.0,0.0,0.0,0.0,0.0,0.0,0.0,0.0,0.0,0.0,0.0,0.0,0.0,0.0,0.0,0.0,0.0,0.0,0.0,0.0,0.0,0.0,0.0,0.0,0.0,0.0,0.0,0.0,0.0,0.0,0.0,0.0,0.0,0.0,0.0,0.0,0.0,0.0,0.0,0.0,0.0,0.0,0.0,0.0,0.0,0.0,0.0,0.0,0.0,0.0,0.0,0.0,0.0,0.0,0.0,0.0,0.0,0.0,0.0,0.0,0.0,0.0,0.0,0.0,0.0,0.0,0.0,0.0,0.0,0.0,0.0,0.0,0.0,0.0,0.0,0.0,0.0,0.0,0.0,0.0,0.0,0.0,0.0,0.0,0.0,0.0,0.0,0.0,0.0,0.0,0.0,0.0,0.0,0.0,0.0,0.0,0.0,0.0,0.0,0.0,-0.9815,-1.0689,-1.014,-1.0141,-1.017,-1.0077,-0.9043,-0.801,-0.7129,-0.6772,0.0,0.0,0.0,0.0,0.0,0.0,0.0,0.0,0.0,0.0,0.0,0.0,0.0,0.0,0.0,0.0,0.0,0.0,0.0,0.0,0.0,0.0,0.0,0.0,0.0,0.0,0.0,0.0,0.0,0.0,0.0,0.0,0.0,0.0,0.0,0.0,0.0,0.0,0.0,0.0,0.0,0.0,0.0,0.0,0.0,0.0,0.0,0.0,0.0,0.0,0.0,0.0,0.0,0.0,0.0,0.0,0.0,0.0,0.0,0.0,0.0,0.0,0.0,0.0,0.0,0.0,0.0,0.0,0.0,0.0,0.0,0.0,0.0,0.0,0.0,0.0,0.0,0.0,0.0,0.0,0.0,0.0,0.0,0.0,0.0,0.0,0.0,0.0,0.0,0.0,0.0,0.0,0.0,0.0,0.0,0.0,0.0,0.0,0.0,0.0,0.0,0.0,-0.9968,-1.127,0.0,-1.1048,-1.1175,-1.0468,-1.0025,-0.9048,-0.7329,0.0,0.0,0.0,0.0,0.0,0.0,0.0,0.0,0.0,0.0,0.0,0.0,0.0,0.0,0.0,0.0,0.0,0.0,0.0,0.0,0.0,0.0,0.0,0.0,0.0,0.0,0.0,0.0,0.0,0.0,0.0,0.0,0.0,0.0,0.0,0.0,0.0,0.0,0.0,0.0,0.0,0.0,0.0,0.0,0.0,0.0,0.0,0.0,0.0,0.0,0.0,0.0,0.0,0.0,0.0,0.0,0.0,0.0,0.0,0.0,0.0,0.0,0.0,0.0,0.0,0.0,0.0,0.0,0.0,0.0,0.0,0.0,0.0,0.0,0.0,0.0,0.0,0.0,0.0,0.0,0.0,0.0,0.0,0.0,0.0,0.0,0.0,0.0,0.0,0.0,0.0,0.0,0.0,0.0,0.0,0.0,0.0,0.0,0.0,0.0,0.0,0.0,-0.8874,-1.0604,-1.1707,0.0,-1.1855,-1.1991,-1.1215,-1.0809,-0.9817,-0.7986,0.0,0.0,0.0,0.0,0.0,0.0,0.0,0.0,0.0,0.0,0.0,0.0,0.0,0.0,0.0,0.0,0.0,0.0,0.0,0.0,0.0,0.0,0.0,0.0,0.0,0.0,0.0,0.0,0.0,0.0,0.0,0.0,0.0,0.0,0.0,0.0,0.0,0.0,0.0,0.0,0.0,0.0,0.0,0.0,0.0,0.0,0.0,0.0,0.0,0.0,0.0,0.0,0.0,0.0,0.0,0.0,0.0,0.0,0.0,0.0,0.0,0.0,0.0,0.0,0.0,0.0,0.0,0.0,0.0,0.0,0.0,0.0,0.0,0.0,0.0,0.0,0.0,0.0,0.0,0.0,0.0,0.0,0.0,0.0,0.0,0.0,0.0,0.0,0.0,0.0,0.0,0.0,0.0,0.0,0.0,0.0,0.0,0.0,0.0,0.0,0.0,0.0,-1.1748,-1.1895,-1.2002,-1.2278,-1.2305,-1.2305,-1.2305,-1.1264,-1.0184,0.0,0.0,0.0,0.0,0.0,0.0,0.0,0.0,0.0,0.0,0.0,0.0,0.0,0.0,0.0,0.0,0.0,0.0,0.0,0.0,0.0,0.0,0.0,0.0,0.0,0.0,0.0,0.0,0.0,0.0,0.0,0.0,0.0,0.0,0.0,0.0,0.0,0.0,0.0,0.0,0.0,0.0,0.0,0.0,0.0,0.0,0.0,0.0,0.0,0.0,0.0,0.0,0.0,0.0,0.0,0.0,0.0,0.0,0.0,0.0,0.0,0.0,0.0,0.0,0.0,0.0,0.0,0.0,0.0,0.0,0.0,0.0,0.0,0.0,0.0,0.0,0.0,0.0,0.0,0.0,0.0,0.0,0.0,0.0,0.0,0.0,0.0,0.0,0.0,0.0,0.0,0.0,0.0,0.0,0.0,0.0,0.0,0.0,0.0,0.0,0.0,0.0,0.0,-1.1163,-1.1738,-1.2211,-1.2291,-1.2305,-1.2305,-1.2305,-1.1986,-1.1077,-0.935,0.0,0.0,0.0,0.0,0.0,0.0,0.0,0.0,0.0,0.0,0.0,0.0,0.0,0.0,0.0,0.0,0.0,0.0,0.0,0.0,0.0,0.0,0.0,0.0,0.0,0.0,0.0,0.0,0.0,0.0,0.0,0.0,0.0,0.0,0.0,0.0,0.0,0.0,0.0,0.0,0.0,0.0,0.0,0.0,0.0,0.0,0.0,0.0,0.0,0.0,0.0,0.0,0.0,0.0,0.0,0.0,0.0,0.0,0.0,0.0,0.0,0.0,0.0,0.0,0.0,0.0,0.0,0.0,0.0,0.0,0.0,0.0,0.0,0.0,0.0,0.0,0.0,0.0,0.0,0.0,0.0,0.0,0.0,0.0,0.0,0.0,0.0,0.0,0.0,0.0,0.0,0.0,0.0,0.0,0.0,0.0,0.0,0.0,0.0,0.0,0.0,0.0,-1.1652,-1.2128,-1.2551,-1.2652,-1.2665,-1.2612,-1.251,-1.2497,-1.1758,-1.0008,0.0,0.0,0.0,0.0,0.0,0.0,0.0,0.0,0.0,0.0,0.0,0.0,0.0,0.0,0.0,0.0,0.0,0.0,0.0,0.0,0.0,0.0,0.0,0.0,0.0,0.0,0.0,0.0,0.0,0.0,0.0,0.0,0.0,0.0,0.0,0.0,0.0,0.0,0.0,0.0,0.0,0.0,0.0,0.0,0.0,0.0,0.0,0.0,0.0,0.0,0.0,0.0,0.0,0.0,0.0,0.0,0.0,0.0,0.0,0.0,0.0,0.0,0.0,0.0,0.0,0.0,0.0,0.0,0.0,0.0,0.0,0.0,0.0,0.0,0.0,0.0,0.0,0.0,0.0,0.0,0.0,0.0,0.0,0.0,0.0,0.0,0.0,0.0,0.0,0.0,0.0,0.0,0.0,0.0,0.0,0.0,0.0,0.0,0.0,0.0,0.0,0.0,-1.2784,-1.2843,-1.2931,-1.3167,-1.3193,-1.3093,-1.2851,-1.2843,-1.2272,-1.0917,0.0,0.0,0.0,0.0,0.0,0.0,0.0,0.0,0.0,0.0,0.0,0.0,0.0,0.0,0.0,0.0,0.0,0.0,0.0,0.0,0.0,0.0,0.0,0.0,0.0,0.0,0.0,0.0,0.0,0.0,0.0,0.0,0.0,0.0,0.0,0.0,0.0,0.0,0.0,0.0,0.0,0.0,0.0,0.0,0.0,0.0,0.0,0.0,0.0,0.0,0.0,0.0,0.0,0.0,0.0,0.0,0.0,0.0,0.0,0.0,-1.2115,0.0,0.0,0.0,0.0,0.0,0.0,0.0,0.0,0.0,0.0,0.0,0.0,0.0,0.0,0.0,0.0,0.0,0.0,0.0,0.0,0.0,0.0,0.0,0.0,0.0,0.0,0.0,0.0,0.0,0.0,0.0,0.0,0.0,0.0,0.0,0.0,0.0,0.0,0.0,0.0,0.0,-1.3066,-1.3106,-1.3133,-1.318,-1.3193,-1.3186,-1.312,-1.3106,-1.2544,-1.1201,-1.092,0.0,0.0,0.0,0.0,0.0,0.0,0.0,0.0,0.0,0.0,0.0,0.0,0.0,0.0,0.0,0.0,0.0,0.0,0.0,0.0,0.0,0.0,0.0,0.0,0.0,0.0,0.0,0.0,0.0,0.0,0.0,0.0,0.0,0.0,0.0,0.0,0.0,0.0,0.0,0.0,0.0,0.0,0.0,0.0,0.0,0.0,0.0,0.0,0.0,0.0,0.0,0.0,0.0,0.0,0.0,0.0,0.0,0.0,0.0,0.0,-1.2732,0.0,0.0,0.0,0.0,0.0,0.0,0.0,0.0,0.0,0.0,0.0,0.0,0.0,0.0,0.0,0.0,0.0,0.0,0.0,0.0,0.0,0.0,0.0,0.0,0.0,0.0,0.0,0.0,0.0,0.0,0.0,0.0,0.0,0.0,0.0,0.0,0.0,0.0,0.0,0.0,-1.3367,-1.3393,-1.3447,-1.3614,-1.3627,-1.3574,-1.3407,-1.3393,-1.3041,-1.2212,-1.1697,0.0,0.0,0.0,0.0,0.0,0.0,0.0,0.0,0.0,0.0,0.0,0.0,0.0,0.0,0.0,0.0,0.0,0.0,0.0,0.0,0.0,0.0,0.0,0.0,0.0,0.0,0.0,0.0,0.0,0.0,0.0,0.0,0.0,0.0,0.0,0.0,0.0,0.0,0.0,0.0,0.0,0.0,0.0,0.0,0.0,0.0,0.0,0.0,0.0,0.0,0.0,0.0,0.0,-1.3621,-1.3628,-1.344,-1.3702,-1.3709,-1.3507,-1.3447,-1.3327,-1.3193,-1.3193,0.0,0.0,0.0,0.0,0.0,0.0,0.0,0.0,0.0,0.0,0.0,0.0,0.0,0.0,0.0,0.0,0.0,0.0,0.0,0.0,0.0,0.0,0.0,0.0,-1.3193,-1.2831,0.0,0.0,0.0,0.0,0.0,0.0,0.0,0.0,0.0,0.0,0.0,0.0,-1.364,-1.368,-1.3794,-1.4055,-1.4103,-1.3988,-1.3706,-1.368,-1.358,-1.3287,-1.2488,-1.1814,0.0,0.0,0.0,0.0,0.0,0.0,0.0,0.0,0.0,0.0,0.0,0.0,0.0,0.0,0.0,0.0,0.0,0.0,0.0,0.0,0.0,0.0,0.0,0.0,0.0,0.0,0.0,0.0,0.0,0.0,0.0,0.0,-1.5362,-1.6295,0.0,0.0,0.0,0.0,0.0,0.0,0.0,0.0,0.0,0.0,0.0,0.0,0.0,-1.3975,-1.3975,-1.3975,-1.3975,-1.3996,-1.5288,-1.5333,-1.437,-1.5706,-1.5748,-1.4745,-1.4456,0.0,-1.3193,-1.3193,0.0,0.0,0.0,0.0,0.0,0.0,0.0,0.0,0.0,0.0,0.0,0.0,0.0,0.0,0.0,0.0,0.0,0.0,0.0,0.0,0.0,0.0,-1.3193,-1.3193,-1.3193,-1.3147,0.0,-1.2995,-1.3034,-1.2916,-1.3021,0.0,0.0,0.0,0.0,0.0,0.0,0.0,-1.3988,-1.4028,-1.4041,-1.4103,-1.4103,-1.4068,-1.4028,-1.4028,-1.3887,-1.356,-1.3411,-1.2834,-1.1686,-1.1383,0.0,0.0,0.0,0.0,0.0,0.0,0.0,0.0,0.0,0.0,0.0,0.0,0.0,0.0,0.0,0.0,0.0,0.0,0.0,0.0,0.0,0.0,0.0,0.0,0.0,0.0,0.0,0.0,0.0,-1.5519,-1.5934,-1.7006,-1.7235,-1.7293,0.0,0.0,0.0,0.0,0.0,0.0,0.0,0.0,0.0,-1.631,-1.6499,-1.6612,-1.6612,-1.6612,-1.6612,-1.6649,-1.7285,-1.7321,-1.682,-1.75,-1.7165,-1.5999,-1.587,-1.5195,-1.4196,-1.3862,-1.3707,-1.3681,0.0,0.0,0.0,0.0,-1.3193,-1.3193,-1.3193,-1.3193,0.0,-1.3193,0.0,0.0,0.0,0.0,0.0,0.0,0.0,0.0,0.0,0.0,-1.3707,-1.3707,-1.3707,-1.3707,-1.3707,-1.3707,-1.3601,0.0,-1.3327,-1.3413,-1.3413,0.0,0.0,0.0,0.0,-1.3935,-1.4089,-1.4103,-1.4103,-1.4103,-1.4103,-1.4103,-1.4103,-1.4103,-1.4028,-1.3887,-1.3874,-1.3555,-1.2806,-1.2233,-1.1398,0.0,0.0,0.0,0.0,0.0,0.0,0.0,0.0,0.0,0.0,0.0,0.0,0.0,0.0,0.0,0.0,0.0,0.0,0.0,0.0,0.0,0.0,0.0,0.0,0.0,0.0,0.0,0.0,-1.705,-1.6948,-1.802,-1.8141,-1.8175,0.0,0.0,0.0,0.0,0.0,0.0,-1.8067,-1.8362,-1.8482,-1.835,-1.8617,-1.8827,-1.8928,-1.8928,-1.8928,-1.895,-1.9334,-1.9363,-1.904,-1.9426,-1.8968,-1.7814,-1.7721,-1.7191,-1.6239,-1.4881,-1.433,-1.4303,-1.4068,-1.3954,-1.394,-1.3734,-1.3654,-1.3654,-1.3654,-1.3654,-1.3641,-1.3554,0.0,-1.344,-1.344,0.0,0.0,0.0,0.0,-1.3733,-1.38,-1.4007,-1.4215,-1.4317,-1.433,-1.433,-1.433,-1.433,-1.4156,0.0,-1.3594,-1.374,-1.374,0.0,0.0,0.0,0.0,-1.4103,-1.4103,-1.4103,-1.4103,-1.4103,-1.4103,-1.4103,-1.4103,-1.4103,-1.4103,-1.4103,-1.4103,-1.3988,-1.374,-1.3011,-1.2374,-1.1851,0.0,0.0,0.0,0.0,0.0,0.0,0.0,0.0,0.0,0.0,0.0,0.0,0.0,0.0,0.0,0.0,0.0,0.0,0.0,0.0,0.0,0.0,0.0,0.0,0.0,0.0,0.0,0.0,0.0,-2.0294,-2.043,0.0,0.0,0.0,0.0,-2.1633,-2.1672,-2.1199,-2.0099,-2.0075,-1.983,-1.9238,-1.925,-1.9457,-1.9839,-1.9816,-1.9816,-1.9839,-2.1326,-2.1389,-2.0262,-2.1737,-2.1731,-2.0581,-2.0255,-2.0082,-1.9767,-1.6358,-1.4946,-1.4946,-1.4941,-1.4919,-1.4941,-1.4905,-1.4914,-1.4914,-1.4914,-1.4914,-1.4852,-1.4549,-1.4269,-1.4041,-1.4041,-1.4041,0.0,0.0,-1.4055,-1.4135,-1.4381,-1.4461,-1.4563,-1.4879,-1.4946,-1.4946,-1.4946,-1.4946,-1.4794,0.0,-1.4076,-1.4068,-1.4068,0.0,-1.4103,-1.4103,-1.4103,-1.4103,-1.4103,-1.4103,-1.4103,-1.4103,-1.4103,-1.4103,-1.4103,-1.4103,-1.4103,-1.4103,-1.4103,-1.4082,-1.4089,-1.4026,-1.3438,-1.2287,-1.2043,0.0,0.0,0.0,0.0,0.0,0.0,0.0,0.0,0.0,0.0,0.0,0.0,0.0,0.0,0.0,0.0,0.0,0.0,0.0,0.0,0.0,0.0,0.0,0.0,0.0,0.0,0.0,0.0,-2.0857,-2.125,0.0,-2.1641,-2.166,-2.1836,-2.2246,-2.2285,-2.2233,-2.2078,-2.2345,-2.2419,-2.2195,-2.2456,-2.2661,-2.2791,-2.281,-2.281,-2.281,-2.3369,-2.338,-2.2968,-2.3508,-2.3098,-2.1948,-2.1831,-2.1337,-2.0505,-1.9256,-1.8348,-1.7688,-1.6855,-1.6401,-1.6058,-1.5286,-1.5008,-1.5008,-1.5008,-1.5008,-1.4995,-1.4865,-1.4758,-1.4678,-1.4678,-1.4678,-1.4678,-1.4678,-1.4678,-1.4691,-1.4798,-1.4825,-1.4852,-1.4959,-1.5008,-1.5008,-1.5008,-1.5008,-1.4941,-1.4718,-1.4496,-1.4309,-1.4122,-1.4103,-1.4103,-1.4103,-1.4103,-1.4103,-1.4103,-1.4103,-1.4103,-1.4103,-1.4103,-1.4103,-1.4103,-1.4103,-1.4103,-1.4103,-1.4103,-1.4103,-1.4103,-1.4103,-1.3913,-1.3464,-1.2653,-1.1664,0.0,0.0,0.0,0.0,0.0,0.0,0.0,0.0,0.0,0.0,0.0,0.0,0.0,0.0,0.0,0.0,0.0,0.0,0.0,0.0,0.0,0.0,0.0,0.0,0.0,0.0,-2.069,-2.1538,-2.1914,-2.2207,-2.25,-2.2541,-2.2695,-2.3103,-2.3123,-2.3318,-2.3747,-2.4062,-2.4378,-2.4672,-2.4941,-2.5156,-2.5269,-2.5269,-2.5269,-2.5269,-2.5269,-2.5269,-2.5269,-2.5269,-2.4842,-2.4076,-2.3946,-2.3438,-2.2675,-2.2509,-2.1972,-2.1071,-1.9248,-1.8087,-1.734,-1.6544,-1.5956,-1.5574,-1.5574,-1.5508,-1.5414,-1.5307,-1.5213,-1.512,-1.5035,-1.5008,-1.5008,-1.5008,-1.5008,-1.5035,-1.5106,-1.5133,-1.516,-1.5253,-1.528,-1.528,-1.528,-1.528,-1.5253,-1.5146,-1.487,-1.4616,-1.4437,-1.441,-1.441,-1.441,-1.441,-1.441,-1.441,-1.441,-1.441,-1.441,-1.441,-1.437,-1.4242,-1.4229,-1.4188,-1.4116,-1.4103,-1.4103,-1.4103,-1.4103,-1.4103,-1.4103,-1.3315,-1.2334,-1.1166,0.0,0.0,0.0,0.0,0.0,0.0,0.0,0.0,0.0,0.0,0.0,0.0,0.0,0.0,0.0,0.0,0.0,0.0,0.0,0.0,0.0,0.0,0.0,-2.1229,-2.1641,-2.209,-2.2479,-2.2557,-2.291,-2.375,-2.3848,-2.4023,-2.443,-2.4449,-2.4668,-2.5121,-2.516,-2.5551,-2.6387,-2.6431,-2.6602,-2.7012,-2.6986,-2.6986,-2.6986,-2.6986,-2.6986,-2.6986,-2.6986,-2.6986,-2.6992,-2.6582,-2.6431,-2.6367,-2.5932,-2.5527,-2.4888,-2.2005,-2.0055,-1.8813,-1.8729,-1.7842,-1.67,-1.67,-1.6526,-1.627,-1.5928,-1.5648,-1.5391,-1.5133,-1.5039,-1.5039,-1.5039,-1.5039,-1.5106,-1.5364,-1.5431,-1.5511,-1.5768,-1.5835,-1.5835,-1.5835,-1.5835,-1.5741,-1.5484,-1.5227,-1.5026,-1.5022,-1.5008,-1.5008,-1.5008,-1.5008,0.0,-1.5008,-1.5008,-1.5008,-1.5008,-1.5008,-1.4865,-1.4541,-1.4514,-1.4394,-1.4135,-1.4129,-1.4095,-1.4095,-1.4095,-1.4103,-1.4103,-1.406,-1.3464,-1.2301,0.0,0.0,0.0,0.0,0.0,0.0,0.0,0.0,0.0,0.0,0.0,0.0,0.0,0.0,0.0,0.0,0.0,0.0,0.0,0.0,0.0,0.0,-2.2498,-2.2186,-2.2498,-2.2927,-2.3398,-2.4007,-2.4476,-2.4711,-2.5019,-2.5347,-2.582,-2.584,-2.6035,-2.6465,-2.6484,-2.6602,-2.6836,-2.6836,-2.6894,-2.6986,-2.6986,-2.6986,-2.6986,-2.6986,-2.6986,-2.6986,-2.6986,-2.6986,-2.6986,-2.6869,-2.6836,-2.6836,-2.6693,-2.6582,-2.6218,-2.3615,-2.2171,-2.1306,-1.9399,-1.7842,-1.67,-1.67,-1.666,-1.6567,-1.6486,-1.6406,-1.6326,-1.6246,-1.6233,-1.6233,-1.6233,-1.6233,-1.6246,-1.6326,-1.6339,-1.6366,-1.6446,-1.6435,-1.6435,-1.6435,-1.6435,-1.6433,-1.6366,-1.6286,-1.5976,-1.5133,-1.5008,-1.5008,-1.5008,-1.5008,0.0,-1.5008,-1.5008,-1.5008,-1.5008,-1.5008,-1.4959,-1.4865,-1.4865,-1.4825,-1.4745,-1.4522,-1.4381,-1.4381,-1.4202,-1.4103,-1.4103,-1.3252,-1.2632,0.0,0.0,0.0,0.0,0.0,0.0,0.0,0.0,0.0,0.0,0.0,0.0,0.0,0.0,0.0,0.0,0.0,0.0,0.0,0.0,0.0,0.0,-2.3493,-2.3688,-2.3825,-2.3906,-2.4098,-2.4551,-2.5239,-2.5708,-2.5884,-2.6113,-2.6362,-2.6641,-2.6641,-2.6836,-2.7266,-2.7285,-2.7363,-2.7539,-2.7539,-2.7539,-2.7539,-2.7539,-2.7539,-2.7539,-2.7539,-2.7539,-2.7539,-2.7539,-2.7539,0.0,-2.7363,-2.7285,-2.7285,-2.709,-2.6986,0.0,0.0,0.0,0.0,0.0,-1.947,-1.8783,-1.8783,-1.8783,-1.8678,-1.7985,-1.7756,-1.7627,-1.6916,-1.67,-1.67,-1.67,-1.67,-1.67,-1.67,-1.67,-1.67,-1.67,-1.67,-1.67,-1.67,-1.67,-1.67,-1.67,-1.67,0.0,-1.5829,-1.5615,-1.5494,-1.5374,-1.5347,-1.5347,-1.5347,-1.5347,-1.5347,-1.5347,-1.5347,-1.5307,-1.5173,-1.5173,0.0,0.0,0.0,-1.471,-1.471,-1.4429,0.0,0.0,0.0,-1.3048,-1.3048,0.0,0.0,0.0,-1.0572,-0.9531,0.0,0.0,0.0,0.0,0.0,0.0,0.0,0.0,0.0,0.0,0.0,0.0,0.0,0.0,0.0,0.0,-2.4586,-2.4898,-2.5737,-2.5586,-2.5512,-2.5815,-2.6269,-2.668,-2.7051,-2.7129,-2.7168,-2.7168,-2.7168,-2.7324,-2.7741,0.0,0.0,0.0,0.0,-2.8301,-2.8301,-2.8301,-2.8301,-2.8301,-2.8301,-2.8301,-2.8301,-2.8301,-2.8301,-2.8262,-2.7917,-2.7761,-2.7741,-2.7324,-2.7168,-2.7148,-2.7051,-2.5926,-2.4194,-2.263,-2.1978,-2.1851,-2.1851,0.0,0.0,-1.9816,-1.9203,-1.8778,-1.7266,-1.6807,-1.6807,-1.6807,-1.6807,-1.6807,-1.6807,-1.6807,-1.6807,-1.6807,-1.6807,-1.6807,-1.6807,-1.6807,-1.6807,-1.6807,-1.6807,-1.6794,-1.6767,-1.6538,-1.6233,-1.5941,-1.5901,-1.5888,-1.5861,-1.5861,-1.5848,-1.5808,0.0,0.0,-1.5471,-1.5444,-1.5337,-1.5106,-1.5053,-1.5013,-1.5008,-1.471,-1.4554,-1.4554,-1.4322,-1.421,-1.421,-1.421,-1.421,-1.4125,-1.0971,-0.941,0.0,0.0,0.0,0.0,0.0,0.0,0.0,0.0,0.0,0.0,0.0,0.0,0.0,0.0,0.0,-2.5367,-2.5781,-2.6191,-2.6674,-2.7018,-2.7096,-2.6771,-2.7148,-2.7467,-2.7565,-2.7851,-2.8047,-2.8047,-2.8047,-2.8086,-2.8164,-2.8164,-2.8203,-2.8301,-2.8301,-2.8301,-2.8301,-2.8301,-2.8301,-2.8301,0.0,0.0,-2.8301,-2.8301,-2.8301,-2.8281,-2.8203,-2.8164,-2.8164,-2.8086,-2.8047,-2.7988,-2.7285,-2.6122,-2.4825,-2.4476,-2.3635,-2.2666,-2.2666,-2.19,-2.0815,-2.0268,-1.9245,-1.8129,-1.758,-1.7434,0.0,-1.7434,-1.7434,-1.7434,-1.7434,-1.7434,-1.7434,-1.7434,-1.7434,-1.7434,-1.7434,-1.7434,-1.7434,-1.7434,-1.7434,-1.7367,-1.7127,-1.6846,-1.6607,-1.654,-1.654,-1.6446,-1.6244,-1.6217,-1.6099,-1.5835,-1.5808,-1.5781,-1.5728,-1.5728,-1.5701,-1.5648,-1.5444,-1.5227,-1.5022,-1.4932,-1.4905,-1.4905,-1.4852,-1.4834,-1.4834,-1.4834,-1.4834,-1.4812,-1.3651,-1.2559,0.0,0.0,0.0,0.0,0.0,0.0,0.0,0.0,0.0,0.0,0.0,-2.457,0.0,0.0,-2.5859,-2.6284,-2.6738,-2.7135,-2.7305,-2.7741,-2.7858,-2.7383,-2.7715,-2.8015,-2.8015,-2.8164,-2.8301,-2.8301,-2.8301,-2.8301,-2.8301,-2.8301,-2.8301,-2.8301,-2.8301,-2.8301,-2.8301,-2.8301,-2.8301,-2.8301,-2.8301,-2.8301,-2.8301,-2.8301,-2.8301,-2.8301,-2.8301,-2.8301,-2.8301,-2.8301,-2.8301,-2.8262,-2.7812,-2.7109,-2.6307,-2.61,-2.5567,-2.4951,-2.4951,-2.4481,-2.372,-2.2929,-2.2126,-2.121,-1.9648,-1.9151,-1.8962,-1.8063,-1.7782,-1.7782,-1.7622,-1.7608,-1.7608,-1.7608,-1.7608,-1.7608,-1.7608,-1.7608,-1.7608,-1.7608,-1.7608,-1.7568,-1.7421,-1.7274,-1.7048,-1.6754,-1.67,-1.6647,-1.6513,-1.6486,-1.638,-1.6086,-1.6046,-1.5992,-1.5821,-1.5808,-1.5808,-1.5808,-1.5675,-1.5551,-1.5404,-1.528,-1.52,-1.52,-1.5066,-1.5008,-1.5008,-1.5008,-1.5008,-1.4995,-1.4691,-1.3899,0.0,0.0,0.0,0.0,0.0,0.0,0.0,0.0,-2.416,-2.4567,-2.5019,-2.5493,-2.5874,-2.6348,-2.6763,-2.709,-2.7526,-2.7819,-2.7819,-2.8112,-2.8164,-2.7858,-2.8112,-2.8301,-2.8301,-2.8301,-2.8301,-2.8301,-2.8301,-2.8301,-2.8301,-2.8301,-2.8301,-2.8301,-2.8301,-2.8301,-2.8301,-2.8301,-2.8301,-2.8301,-2.8301,-2.8301,-2.8301,-2.8301,-2.8301,-2.8301,-2.8301,-2.8301,-2.8301,-2.8301,-2.8301,-2.8301,-2.8301,-2.8112,-2.778,-2.7402,-2.724,-2.724,-2.724,-2.7066,-2.6633,-2.5488,-2.4701,-2.3815,-2.1426,-2.0505,-1.9972,-1.851,-1.8103,-1.8049,-1.7822,-1.7756,-1.7756,-1.7756,-1.7756,-1.7769,-1.7689,-1.7675,-1.7649,-1.7622,-1.7608,-1.7608,-1.7608,-1.7608,-1.7422,-1.6941,-1.6874,-1.686,-1.6794,-1.6794,-1.6673,-1.6417,-1.6377,-1.6259,-1.5995,-1.5981,-1.5955,-1.5888,-1.5888,-1.5861,-1.5808,-1.5581,-1.5484,-1.5484,-1.528,-1.516,-1.516,-1.516,-1.516,-1.516,-1.516,-1.4582,-2.3101,-2.3396,-2.3711,-2.3711,-2.4004,-2.4274,0.0,0.0,-2.5082,-2.5464,-2.5937,-2.6367,-2.6771,-2.7226,-2.7565,-2.7604,-2.7976,-2.8223,-2.8223,-2.8262,-2.8281,-2.8223,-2.8262,-2.8301,-2.8301,-2.8301,-2.8301,-2.8301,-2.8301,-2.8301,-2.8301,-2.8301,-2.8301,-2.8301,-2.8301,-2.8301,-2.8301,-2.8301,-2.8301,-2.8301,-2.8301,-2.8301,-2.8301,-2.8301,-2.8301,-2.8301,-2.8301,-2.8301,-2.8301,-2.8301,-2.8301,-2.8301,-2.8301,-2.8262,-2.8223,-2.8164,-2.8144,-2.8144,-2.8144,-2.7305,-2.6136,-2.5691,-2.3726,-2.1441,-2.0879,-1.9784,-1.8698,-1.8506,-1.8437,-1.8437,-1.8397,-1.8384,-1.8384,-1.8384,-1.8384,-1.8317,-1.8022,-1.7969,-1.7889,-1.7662,-1.7608,-1.7608,-1.7608,-1.7608,-1.7582,-1.7515,-1.7515,-1.7421,-1.7153,-1.7152,-1.7006,-1.6687,-1.666,-1.6647,-1.6607,-1.6607,-1.65,-1.627,-1.6244,-1.6112,-1.5821,-1.5768,-1.5755,-1.5755,-1.5728,-1.5701,-1.5701,-1.5701,-1.5701,-1.5701,-1.5701,-1.5388,-2.3786,-2.4001,-2.4219,-2.4496,-2.4691,-2.4941,-2.5449,-2.5727,-2.5957,-2.6362,-2.6836,-2.7213,-2.7389,-2.7761,-2.8054,0.0,-2.8184,-2.8301,-2.8301,-2.8301,-2.8301,-2.8301,-2.8301,-2.8301,-2.8301,-2.8301,-2.8301,-2.8301,-2.8301,-2.8301,-2.8301,-2.8301,-2.8301,-2.8301,-2.8301,-2.8301,-2.8301,-2.8301,-2.8301,-2.8301,-2.8301,-2.8301,-2.8301,-2.8301,-2.8301,-2.8301,-2.8301,-2.8301,-2.8301,-2.8301,-2.8301,-2.8301,-2.8301,-2.8301,-2.8301,-2.8301,-2.8301,-2.8301,-2.8301,-2.7887,-2.7365,-2.7221,-2.6323,-2.5107,-2.4146,-2.3414,-2.2697,-2.1646,-2.1338,-2.1292,-2.1093,-2.0439,-1.9784,-1.9784,-1.9126,-1.8464,-1.833,-1.8276,-1.8263,-1.8143,-1.7969,-1.7822,-1.7822,-1.7702,-1.7608,-1.7608,-1.7608,-1.7568,-1.7448,-1.7421,-1.7314,-1.702,-1.6807,-1.67,-1.67,-1.67,-1.666,-1.6526,-1.6526,-1.6473,-1.6315,-1.6315,-1.6259,-1.6086,-1.6086,-1.5981,-1.5808,-1.5808,-1.5808,-1.5808,-1.5808,-1.5675,-2.4473,-2.4664,-2.4859,-2.5356,-2.5551,-2.5806,-2.6406,-2.6685,-2.6836,-2.7129,-2.7539,-2.7858,-2.7858,-2.8112,-2.8301,-2.8301,-2.8301,-2.8301,-2.8301,-2.8301,-2.8301,-2.8301,-2.8301,-2.8301,-2.8301,-2.8301,-2.8301,-2.8301,-2.8301,-2.8301,-2.8301,-2.8301,-2.8301,-2.8301,-2.8301,-2.8301,-2.8301,-2.8301,-2.8301,-2.8301,-2.8301,-2.8301,-2.8301,-2.8301,-2.8301,-2.8301,-2.8301,-2.8301,-2.8301,-2.8301,-2.8301,-2.8301,-2.8301,-2.8301,-2.8301,-2.8301,-2.8301,-2.8301,-2.8301,-2.8301,-2.8301,-2.8301,-2.8014,-2.7511,-2.6427,-2.58,-2.5181,-2.3892,-2.3524,-2.3458,-2.322,-2.237,-2.1553,-2.1553,-2.0429,-1.9334,-1.9251,-1.8904,-1.8584,-1.8504,-1.8289,-1.8143,-1.8143,-1.7983,-1.7836,-1.7716,-1.7716,-1.7675,-1.7622,-1.7608,-1.7528,-1.734,-1.71,-1.6941,-1.6941,-1.6941,-1.6914,-1.6834,-1.6834,-1.6794,-1.6714,-1.67,-1.6607,-1.6417,-1.6417,-1.6286,-1.6048,-1.6048,-1.6048,-1.6048,-1.6048,-1.6048,-2.4945,-2.5371,-2.5776,-2.625,-2.666,-2.6947,-2.6992,-2.7324,-2.7663,-2.7663,-2.8015,-2.8281,-2.8281,-2.8281,-2.8301,-2.8301,-2.8301,-2.8301,-2.8301,-2.8301,-2.8301,-2.8301,-2.8301,-2.8301,0.0,-2.8301,-2.8301,-2.8301,-2.8301,-2.8301,-2.8301,-2.8301,-2.8301,-2.8301,-2.8301,-2.8301,-2.8301,-2.8301,-2.8301,-2.8301,-2.8301,-2.8301,-2.8301,-2.8301,-2.8301,-2.8301,-2.8301,-2.8301,-2.8301,-2.8301,-2.8301,-2.8301,-2.8301,-2.8301,-2.8301,-2.8301,-2.8301,-2.8301,-2.8301,-2.8301,-2.8301,-2.8301,-2.733,-2.6155,-2.6127,-2.5068,-2.385,-2.3805,-2.3777,-2.3777,-2.3789,-2.3733,-2.3705,-2.3705,-2.2586,-2.141,-2.1082,-1.9907,-1.8796,-1.8544,-1.8477,-1.8477,-1.8477,-1.8464,-1.837,-1.8049,-1.7982,-1.7902,-1.7622,-1.7608,-1.7608,-1.7595,-1.7582,-1.7582,-1.7582,-1.7582,-1.7461,-1.7206,-1.7192,-1.7033,-1.6714,-1.67,-1.67,-1.6687,-1.6687,-1.6687,-1.6673,-1.6673,-1.6673,-1.6673,-1.6673,-1.6673,-2.582,-2.625,-2.6699,-2.7154,-2.737,-2.7519,-2.7793,-2.7969,-2.8112,-2.8112,-2.823,-2.8301,-2.8301,-2.8301,-2.8301,-2.8301,-2.8301,-2.8301,-2.8301,-2.8301,-2.8301,-2.8301,-2.8301,0.0,0.0,0.0,0.0,-2.8301,-2.8301,-2.8301,-2.8301,-2.8301,-2.8301,-2.8301,-2.8301,-2.8301,-2.8301,-2.8301,-2.8301,-2.8301,-2.8301,-2.8301,-2.8301,-2.8301,-2.8301,-2.8301,-2.8301,-2.8301,-2.8301,-2.8301,-2.8301,-2.8301,-2.8301,-2.8301,-2.8301,-2.8301,-2.8301,-2.8301,-2.8301,-2.8301,-2.8301,-2.8301,-2.796,-2.7565,-2.7565,-2.7195,-2.6789,-2.6789,-2.6789,-2.6789,-2.6789,-2.6045,-2.5316,-2.5316,-2.4183,-2.2754,-2.1662,-2.1026,-2.0373,-1.9307,-1.8918,-1.8784,-1.8784,-1.8624,-1.8464,-1.8357,-1.7996,-1.7702,-1.7622,-1.7608,-1.7608,-1.7608,-1.7608,-1.7608,-1.7608,-1.7608,-1.7568,-1.7461,-1.7461,-1.7421,-1.7288,-1.7314,-1.722,-1.7033,-1.7033,-1.6926,-1.67,-1.67,-1.67,-1.67,-1.67,-1.67,-2.6738,-2.7031,-2.7344,-2.78,-2.7917,-2.7995,-2.8223,-2.8301,-2.8301,-2.8301,-2.8301,-2.8301,-2.8301,-2.8301,-2.8301,-2.8301,-2.8301,-2.8301,-2.8301,-2.8301,-2.8301,-2.8301,-2.8301,-2.8301,0.0,0.0,0.0,-2.8301,-2.8301,-2.8359,-2.8516,-2.8516,-2.8594,-2.8777,-2.875,-2.8672,-2.8516,-2.8516,-2.8437,-2.8301,-2.8301,-2.8301,-2.8301,-2.8301,-2.8301,-2.8301,-2.8301,-2.8301,-2.8301,-2.8301,-2.8301,-2.8301,-2.8301,-2.8301,-2.8301,-2.8301,-2.8301,-2.8301,-2.8301,-2.8301,-2.8301,-2.8301,-2.8301,-2.8301,-2.8301,-2.8301,-2.8301,-2.8301,-2.8301,-2.8301,-2.8301,-2.7222,-2.61,-2.61,-2.4516,-2.2758,-2.1813,-2.1202,-2.0529,-1.9591,-1.9241,-1.9078,-1.9078,-1.8838,-1.8651,-1.8651,-1.8223,-1.7862,-1.7756,-1.7742,-1.7702,-1.7622,-1.7608,-1.7608,-1.7608,-1.7608,-1.7608,-1.7608,-1.7608,-1.7608,-1.7608,-1.7608,-1.7528,-1.7367,-1.7327,-1.7234,-1.7021,-1.7021,-1.7021,-1.7021,-1.7021,-1.7021,-2.7585,-2.7702,-2.7819,-2.8203,-2.8301,-2.8301,-2.8301,-2.8301,-2.8301,-2.8301,-2.8301,-2.8301,0.0,0.0,-2.8301,-2.8301,-2.8301,-2.8301,-2.8301,-2.8301,-2.8301,0.0,0.0,0.0,0.0,0.0,0.0,-2.8359,0.0,-2.8516,-2.8898,-2.8918,-2.9141,-2.9579,-2.9598,-2.9403,-2.8918,-2.8898,-2.8711,-2.832,-2.8301,-2.8301,-2.8301,-2.8301,-2.8301,-2.8301,-2.8301,-2.8301,-2.8301,-2.8301,-2.8301,-2.8301,-2.8301,-2.8301,-2.8301,-2.8301,-2.8301,-2.8301,-2.8301,-2.8301,-2.8301,-2.8301,-2.8301,-2.8301,-2.8301,-2.8301,-2.8301,-2.8301,-2.8301,-2.8301,-2.8301,-2.7249,-2.6182,-2.6127,-2.3917,-2.1784,-2.1643,-2.0501,-1.9475,-1.9417,-1.9401,-1.9401,-1.9401,-1.9132,-1.8916,-1.8916,-1.8718,-1.8424,-1.8076,-1.8036,-1.7929,-1.7662,-1.7662,-1.7648,-1.7609,-1.7609,-1.7595,-1.7608,-1.7608,-1.7608,-1.7608,-1.7608,-1.7608,-1.7608,-1.7608,-1.7608,-1.7608,-1.7608,-1.7608,-1.7608,-1.7608,-1.7608,-2.7663,-2.7917,-2.8191,-2.8262,-2.8301,-2.8301,-2.8301,-2.8301,-2.8301,-2.8301,-2.8301,-2.8301,0.0,0.0,0.0,-2.8301,-2.8301,0.0,-2.8301,-2.8301,0.0,-2.8301,0.0,-2.8769,-2.8769,-2.9062,0.0,0.0,-2.8945,-2.8945,-2.9403,-2.9422,-2.9481,-2.9598,-2.9598,-2.954,-2.9422,-2.9082,-2.884,-2.875,-2.8437,-2.8301,-2.8301,-2.8301,-2.8301,-2.8301,-2.8301,-2.8301,-2.8301,-2.8301,-2.8301,-2.8301,-2.8301,-2.8301,-2.8301,-2.8301,-2.8301,-2.8301,-2.8301,-2.8301,-2.8301,-2.8301,-2.8301,-2.8301,-2.8301,-2.8301,-2.8301,-2.8301,-2.8301,-2.8301,-2.8301,-2.8014,-2.7465,-2.6345,-2.5508,-2.435,-2.2081,-2.1301,-2.0702,-1.962,-1.9401,-1.9401,-1.9401,-1.9334,-1.9281,-1.9281,-1.9214,-1.8986,-1.8437,-1.837,-1.8343,-1.8263,-1.8263,-1.817,-1.7916,-1.7902,-1.7796,-1.7622,-1.7608,-1.7608,-1.7608,-1.7608,-1.7608,-1.7608,-1.7608,-1.7608,-1.7608,-1.7608,-1.7608,-1.7608,-1.7608,-1.7608,-2.7956,-2.8132,-2.8301,-2.8301,-2.8301,-2.8301,-2.8301,-2.8301,-2.8301,-2.8301,-2.8301,-2.8301,-2.8301,-2.8301,-2.8301,0.0,0.0,0.0,-2.8301,-2.8301,-2.8359,0.0,-2.8742,0.0,-2.918,-2.9461,-2.9676,0.0,-2.9453,-2.9394,-2.9852,-2.9872,-2.997,-3.0165,-3.0185,-3.0087,-2.9872,-2.9414,-2.9101,-2.8898,-2.8672,-2.8476,-2.8301,-2.8301,-2.8301,-2.8301,0.0,-2.8301,-2.8301,-2.8301,-2.8301,-2.8301,-2.8301,-2.8301,-2.8301,-2.8301,-2.8301,-2.8301,-2.8301,-2.8301,-2.8301,-2.8301,-2.8301,-2.8301,-2.8301,-2.8301,-2.8301,-2.8301,-2.8301,-2.8301,-2.8301,-2.7807,-2.7141,-2.6291,-2.5096,-2.3654,-2.1968,-2.1088,-2.04,-1.9562,-1.9401,-1.9401,-1.9401,-1.9401,-1.9401,-1.9401,-1.9401,-1.9281,-1.8946,-1.8758,-1.8637,-1.8504,-1.849,-1.8424,-1.8236,-1.8209,-1.817,-1.7996,-1.7983,-1.7929,-1.7796,-1.7782,-1.7716,-1.7608,-1.7608,-1.7608,-1.7608,-1.7608,-1.7608,-1.7608,-1.7608,-1.7608,-2.8301,-2.8301,-2.8301,-2.8301,-2.8301,-2.8301,-2.8301,-2.8301,-2.8301,-2.8301,-2.8301,-2.8301,-2.8301,-2.8301,-2.8301,-2.8301,0.0,-2.8301,-2.8301,-2.8301,-2.8437,-2.884,-2.8937,-2.918,-2.9637,-2.9735,-2.9931,-3.0254,-2.9989,-2.9931,-3.0273,-3.0293,-3.0469,-3.0879,-3.0898,-3.0703,-3.0293,-2.9891,-2.9434,-2.9004,-2.8918,-2.8691,-2.8301,-2.8301,-2.8301,-2.8301,-2.8301,0.0,-2.8301,-2.8301,-2.8301,-2.8301,-2.8301,-2.8301,-2.8301,-2.8301,-2.8301,-2.8301,-2.8301,-2.8301,-2.8301,-2.8301,-2.8301,-2.8301,-2.8301,-2.8301,-2.8301,-2.8301,-2.8301,-2.8301,-2.8301,-2.7357,-2.6345,-2.6155,-2.41,-2.2138,-2.1955,-2.073,-1.962,-1.9459,-1.9401,-1.9401,-1.9401,-1.9401,-1.9401,-1.9401,-1.9401,-1.9401,-1.9401,-1.9145,-1.8891,-1.8637,-1.8611,-1.8597,-1.8557,-1.8544,-1.8531,-1.849,-1.849,-1.837,-1.8089,-1.8076,-1.7956,-1.7702,-1.7729,-1.7729,-1.7729,-1.7662,-1.7649,-1.7649,-1.7622,-1.7608,-2.8301,-2.8301,-2.8301,-2.8301,-2.8301,-2.8301,-2.8301,-2.8301,0.0,-2.8301,-2.8301,-2.8301,-2.8301,-2.8301,-2.8301,-2.8301,-2.8301,-2.8301,-2.8301,-2.8301,-2.8437,0.0,-2.9238,-2.9657,-3.0059,-3.043,0.0,0.0,0.0,-3.0703,-3.0762,-3.0762,-3.082,-3.0898,-3.0898,-3.0859,-3.0762,-3.0312,-2.9883,-2.9481,-2.9101,-2.8691,-2.8301,-2.8301,-2.8301,-2.8301,-2.8301,0.0,-2.8301,-2.8301,-2.8301,-2.8301,-2.8301,-2.8301,-2.8301,-2.8301,-2.8301,-2.8301,-2.8301,-2.8301,-2.8301,-2.8301,-2.8301,-2.8301,-2.8301,-2.8301,-2.8301,-2.8301,-2.8301,-2.8301,-2.8301,-2.8094,-2.7618,-2.6382,-2.569,-2.4958,-2.3682,-2.2266,-2.0859,-1.9649,-1.9401,-1.9401,-1.9401,-1.9401,-1.9401,-1.9401,-1.9401,-1.9401,-1.9401,-1.9348,-1.9308,-1.9254,-1.9241,-1.9147,-1.8836,-1.8823,-1.8744,-1.8504,-1.849,-1.8464,-1.8424,-1.841,-1.8384,-1.833,-1.833,-1.833,-1.833,-1.8063,-1.7942,-1.7929,-1.7702,-1.7608,-2.8301,-2.8301,-2.8301,-2.8301,-2.8301,-2.8301,-2.8301,0.0,0.0,-2.8301,-2.8301,-2.8301,-2.8301,-2.8301,-2.8301,-2.8301,-2.8301,-2.8301,-2.8301,-2.8301,-2.8535,-2.918,-2.9461,-2.9852,0.0,-3.0762,0.0,0.0,0.0,-3.0898,-3.0898,-3.0898,-3.0898,-3.0898,-3.0898,-3.0898,-3.0898,-3.0664,-3.0332,-2.9911,-2.9453,-2.9043,-2.8613,-2.8398,-2.8301,-2.8301,-2.8301,0.0,-2.8301,-2.8301,-2.8301,-2.8301,-2.8301,-2.8301,-2.8301,-2.8301,-2.8301,-2.8301,-2.8301,-2.8301,-2.8301,-2.8301,-2.8301,-2.8301,-2.8301,-2.8301,-2.8301,-2.8301,-2.8301,-2.8301,-2.8301,-2.8301,-2.8121,-2.7403,-2.6662,-2.5261,-2.2153,-2.1557,-2.1173,-1.9678,-1.9401,-1.9401,-1.9401,-1.9401,-1.9401,-1.9401,-1.9401,-1.9401,-1.9401,-1.9401,-1.9401,-1.9401,-1.9401,-1.9334,-1.9172,-1.9158,-1.9092,-1.8986,-1.8973,-1.8878,-1.8718,-1.8718,-1.8651,-1.849,-1.849,-1.849,-1.849,-1.8343,-1.8249,-1.8277,-1.813,-1.8077,-2.8301,-2.8301,-2.8301,-2.8301,-2.8301,-2.8301,-2.8301,-2.8301,-2.8301,-2.8301,-2.8301,-2.8301,-2.8301,-2.8301,-2.8301,-2.8301,-2.8301,-2.8301,-2.8301,-2.8301,-2.8613,0.0,-2.9598,0.0,-3.0801,0.0,0.0,0.0,0.0,0.0,-3.0898,-3.0898,-3.0898,-3.0898,-3.0898,-3.0898,-3.0898,-3.0898,-3.0664,-3.0195,-2.9891,-2.9434,-2.8879,-2.8574,-2.8379,-2.8301,-2.8301,0.0,0.0,-2.8301,-2.8301,-2.8301,-2.8301,-2.8301,-2.8301,-2.8301,-2.8301,-2.8301,-2.8301,-2.8301,-2.8301,-2.8301,-2.8301,-2.8301,-2.8301,-2.8301,-2.8301,-2.8301,-2.8301,-2.8228,-2.7906,-2.8067,-2.8301,-2.8301,-2.7168,-2.5041,-2.1188,-2.1002,-2.1173,-1.9678,-1.9401,-1.9401,-1.9401,-1.9401,-1.9401,-1.9401,-1.9401,-1.9401,-1.9401,-1.9401,-1.9401,-1.9401,-1.9401,-1.9401,-1.9401,-1.9401,-1.9401,-1.9401,-1.9401,-1.9294,-1.9025,-1.9025,-1.8918,-1.8719,-1.8677,-1.8677,-1.8677,-1.8611,-1.8584,-1.8584,-1.8517,-1.849,-2.8301,-2.8301,-2.8301,-2.8301,-2.8301,-2.8301,-2.8301,0.0,-2.8301,-2.8301,-2.8301,-2.8301,-2.8301,-2.8301,-2.8301,-2.8301,-2.8301,-2.8301,-2.8301,-2.8301,-2.8613,-2.95,0.0,0.0,0.0,0.0,0.0,0.0,0.0,0.0,-3.0898,-3.0898,-3.0898,-3.0898,-3.0898,-3.0898,-3.0898,-3.0898,-3.0664,-3.0195,-3.0156,-2.9707,-2.8898,-2.8859,-2.8652,-2.8301,-2.8301,0.0,0.0,-2.8301,-2.8301,-2.8301,-2.8301,-2.8301,-2.8301,-2.8301,-2.8301,-2.8301,-2.8301,-2.8301,-2.8301,-2.8301,-2.8301,-2.8301,-2.8301,-2.8301,-2.8301,-2.8301,-2.8301,-2.7987,-2.6662,-2.7303,-2.8301,-2.8301,-2.7168,-2.559,-2.3794,-2.2448,-2.1173,-1.9678,-1.9401,-1.9401,-1.9401,-1.9401,-1.9401,-1.9401,-1.9401,-1.9401,-1.9401,-1.9401,-1.9401,-1.9401,-1.9401,-1.9401,-1.9401,-1.9401,-1.9401,-1.9401,-1.9401,-1.9388,-1.9361,-1.9361,-1.9348,-1.9321,-1.9321,-1.9321,-1.9321,-1.9011,-1.885,-1.885,-1.8611,-1.849,-2.8223,-2.8301,-2.8301,-2.8301,-2.8301,-2.8301,-2.8301,0.0,-2.8301,-2.8301,-2.8301,-2.8301,-2.8301,-2.8301,-2.8301,-2.8301,-2.8301,-2.8301,-2.8301,-2.8301,-2.8613,-2.95,-2.9598,0.0,0.0,0.0,0.0,0.0,0.0,0.0,-3.0898,-3.0898,-3.0898,-3.0898,-3.0898,-3.0898,-3.0898,-3.0898,-3.0801,-3.0605,-3.0332,-2.9883,-2.9297,-2.9043,-2.8691,-2.8301,-2.8301,0.0,0.0,-2.8301,-2.8301,-2.8301,-2.8301,-2.8301,-2.8301,-2.8301,-2.8301,-2.8301,-2.8301,-2.8301,-2.8301,-2.8301,-2.8301,-2.8301,-2.8301,-2.8301,-2.8301,-2.8301,-2.8301,-2.8147,-2.7592,-2.7195,-2.6527,-2.471,-2.4488,-2.4072,-2.1658,-2.1401,-2.1173,-1.9678,-1.9401,-1.9401,-1.9401,-1.9401,-1.9401,-1.9401,-1.9401,-1.9401,-1.9401,-1.9401,-1.9401,-1.9401,-1.9401,-1.9401,-1.9401,-1.9401,-1.9401,-1.9401,-1.9401,-1.9401,-1.9401,-1.9401,-1.9401,-1.9401,-1.9401,-1.9401,-1.9401,-1.9281,-1.9185,-1.9185,-1.9093,-1.904,-2.8054,-2.823,-2.8301,-2.8301,-2.8301,-2.8301,-2.8301,0.0,-2.8301,-2.8301,-2.8301,-2.8301,-2.8301,-2.8301,-2.8301,-2.8301,-2.8301,-2.8301,-2.8301,-2.8301,-2.8613,0.0,0.0,0.0,0.0,0.0,0.0,0.0,0.0,0.0,-3.0898,-3.0898,-3.0898,-3.0898,-3.0898,-3.0898,-3.0898,-3.0898,-3.0898,-3.0879,-3.0566,-3.0176,-2.9774,-2.9316,-2.8887,-2.8476,-2.834,0.0,0.0,-2.8301,-2.8301,-2.8301,-2.8301,-2.8301,-2.8301,-2.8301,-2.8301,-2.8301,-2.8301,-2.8301,-2.8301,-2.8301,-2.8301,-2.8301,-2.8301,-2.8301,-2.8301,-2.8301,-2.7987,-2.7753,-2.8174,-2.6852,-2.5013,-2.3331,-2.3039,-2.2576,-2.0515,-2.0501,-2.0644,-1.9591,-1.9401,-1.9401,-1.9401,-1.9401,-1.9401,-1.9401,-1.9401,-1.9401,-1.9401,-1.9401,-1.9401,-1.9401,-1.9401,-1.9401,-1.9401,-1.9401,-1.9401,-1.9401,-1.9401,-1.9401,-1.9401,-1.9401,-1.9401,-1.9401,-1.9401,-1.9401,-1.9401,-1.9401,-1.9401,-1.9401,-1.9401,-1.9401,-2.7702,-2.7995,-2.8301,-2.8301,-2.8301,-2.8301,-2.8301,-2.8301,-2.8301,-2.8301,-2.8301,-2.8301,-2.8301,-2.8301,-2.8301,-2.8301,-2.8301,-2.8301,-2.8301,-2.8301,-2.8613,0.0,0.0,0.0,0.0,0.0,0.0,0.0,0.0,0.0,-3.0898,-3.0898,-3.0898,-3.0898,-3.0898,-3.0898,-3.0898,-3.0898,-3.0898,-3.0898,-3.0879,-3.0644,-3.0176,-2.9774,-2.9336,0.0,0.0,0.0,0.0,-2.8301,-2.8301,-2.8301,-2.8301,-2.8301,-2.8301,-2.8301,-2.8301,-2.8301,-2.8301,-2.8301,-2.8301,-2.8301,-2.8301,-2.8301,-2.8301,-2.8301,-2.8301,-2.8301,-2.7249,-2.6472,-2.7933,-2.6073,-2.4211,-2.5717,-2.3777,-2.1614,-2.1586,-2.0457,-1.943,-1.9401,-1.9401,-1.9401,-1.9401,-1.9401,-1.9401,-1.9401,-1.9401,-1.9401,-1.9401,-1.9401,-1.9401,-1.9401,-1.9401,-1.9401,-1.9401,-1.9401,-1.9401,-1.9401,-1.9401,-1.9401,-1.9401,-1.9401,-1.9401,-1.9401,-1.9401,-1.9401,-1.9401,-1.9401,-1.9401,-1.9401,-1.9401,-1.9401,-2.7148,-2.7539,-2.7897,-2.7897,-2.8112,-2.8301,-2.8301,-2.8301,-2.8301,-2.8301,-2.8301,-2.8301,-2.8301,-2.8301,-2.8301,-2.8301,-2.8301,-2.8301,0.0,0.0,0.0,-2.95,0.0,0.0,0.0,0.0,0.0,0.0,0.0,0.0,-3.0898,-3.0898,-3.0898,-3.0898,-3.0898,-3.0898,-3.0898,-3.0898,-3.0898,-3.0898,-3.0898,-3.0644,-3.0176,-2.9794,-2.9336,0.0,0.0,0.0,0.0,-2.8301,-2.8301,-2.8301,-2.8301,-2.8301,-2.8301,-2.8301,-2.8301,-2.8301,-2.8301,-2.8301,-2.8301,-2.8301,-2.8301,-2.8301,-2.8301,-2.8301,-2.8301,-2.8301,-2.796,-2.7465,-2.6933,-2.5306,-2.3682,-2.3151,-2.15,-2.0097,-2.0097,-1.9735,-1.9401,-1.9401,-1.9401,-1.9401,-1.9401,-1.9401,-1.9401,-1.9401,-1.9401,-1.9401,-1.9401,-1.9401,-1.9401,-1.9401,-1.9401,-1.9401,-1.9401,-1.9401,-1.9401,-1.9401,-1.9401,-1.9401,-1.9401,-1.9401,-1.9401,-1.9401,-1.9401,-1.9401,-1.9401,-1.9401,-1.9401,-1.9401,-1.9401,-1.9401,-2.666,-2.709,-2.7448,-2.7448,-2.7761,0.0,-2.8073,-2.8184,-2.8301,-2.8301,-2.8301,-2.8301,-2.8301,-2.8301,-2.8301,-2.8301,-2.8301,-2.8301,0.0,0.0,0.0,-2.95,0.0,0.0,0.0,0.0,0.0,0.0,0.0,0.0,-3.0898,-3.0898,-3.0898,-3.0898,-3.0898,-3.0898,-3.0898,-3.0898,-3.0898,-3.0898,-3.0898,-3.0742,-3.0449,-3.0028,-2.957,0.0,0.0,0.0,0.0,-2.8301,-2.8301,-2.8301,-2.8301,-2.8301,-2.8301,-2.8301,-2.8301,-2.8301,-2.8301,-2.8301,-2.8301,-2.8301,-2.8301,-2.8301,-2.8301,-2.8301,-2.8301,-2.8301,-2.8301,-2.8094,-2.7168,-2.58,-2.4294,-2.2786,-2.1287,-2.0097,-1.9504,-1.9401,-1.9401,-1.9401,-1.9401,-1.9401,-1.9401,-1.9401,-1.9401,-1.9401,-1.9401,-1.9401,-1.9401,-1.9401,-1.9401,-1.9401,-1.9401,-1.9401,-1.9401,-1.9401,-1.9401,-1.9401,-1.9401,-1.9401,-1.9401,-1.9401,-1.9401,-1.9401,-1.9401,-1.9401,-1.9401,-1.9401,-1.9401,-1.9401,-1.9401,-1.9401,0.0,-2.6641,-2.6947,-2.6986,-2.7344,-2.7702,-2.7741,-2.8034,0.0,-2.8301,-2.8301,-2.8301,-2.8301,-2.8301,-2.8301,-2.8301,-2.8301,0.0,0.0,-2.834,0.0,0.0,0.0,0.0,0.0,0.0,0.0,0.0,0.0,0.0,-3.0898,-3.0898,-3.0898,-3.0898,-3.0898,-3.0898,-3.0898,-3.0898,-3.0898,-3.0898,-3.0898,-3.0898,-3.0879,-3.041,-2.9961,0.0,0.0,0.0,0.0,-2.8301,-2.8301,-2.8301,-2.8301,-2.8301,-2.8301,-2.8301,-2.8301,-2.8301,-2.8301,-2.8301,-2.8301,-2.8301,-2.8301,-2.8301,-2.8301,-2.8301,-2.8301,-2.8301,-2.8301,-2.8301,-2.8301,-2.7222,-2.5717,-2.4183,-2.2674,-2.1202,-1.9735,-1.9401,-1.9401,-1.9401,-1.9401,-1.9401,-1.9401,-1.9401,-1.9401,-1.9401,-1.9401,-1.9401,-1.9401,-1.9401,-1.9401,-1.9401,-1.9401,-1.9401,-1.9401,-1.9401,-1.9401,-1.9401,-1.9401,-1.9401,-1.9401,-1.9401,-1.9401,-1.9401,-1.9401,-1.9401,-1.9401,-1.9401,-1.9401,-1.9401,-1.9401,-1.9401,-2.5835,0.0,-2.6602,-2.6908,-2.7344,-2.778,0.0,-2.8223,-2.8301,-2.8301,-2.8301,-2.8301,-2.8301,-2.8301,-2.8301,-2.8301,0.0,0.0,-2.8301,0.0,0.0,0.0,0.0,0.0,0.0,0.0,0.0,0.0,0.0,-3.0898,-3.0898,-3.0898,-3.0898,-3.0898,-3.0898,-3.0898,-3.0898,-3.0898,-3.0898,-3.0898,-3.0898,-3.0898,-3.0879,-3.041,-2.9961,0.0,0.0,0.0,-2.8301,-2.8301,-2.8301,-2.8301,-2.8301,-2.8301,-2.8301,-2.8301,-2.8301,-2.8301,-2.8301,-2.8301,-2.8301,-2.8301,-2.8301,-2.8301,-2.8301,-2.8301,-2.8301,-2.8301,-2.8301,-2.8301,-2.8301,-2.7222,-2.5717,-2.4183,-2.2674,-2.1202,-1.9735,-1.9401,-1.9401,-1.9401,-1.9401,-1.9401,-1.9401,-1.9401,-1.9401,-1.9401,-1.9401,-1.9401,-1.9401,-1.9401,-1.9401,-1.9401,-1.9401,-1.9401,-1.9401,-1.9401,-1.9401,-1.9401,-1.9401,-1.9401,-1.9401,-1.9401,-1.9401,-1.9401,-1.9401,-1.9401,-1.9401,-1.9401,-1.9401,-1.9401,-1.9401,-1.9401,-2.5693,-2.5893,-2.6191,-2.6621,-2.7051,-2.748,-2.7936,-2.8191,-2.8301,-2.8301,-2.8301,-2.8301,-2.8301,-2.8301,-2.8301,-2.8301,-2.8301,0.0,0.0,0.0,0.0,0.0,0.0,0.0,0.0,0.0,0.0,0.0,0.0,-3.0898,-3.0898,-3.0898,-3.0898,-3.0898,-3.0898,-3.0898,-3.0898,-3.0898,-3.0898,-3.0898,-3.0898,-3.0898,-3.0879,-3.0625,-3.0176,0.0,0.0,0.0,-2.8301,-2.8301,-2.8301,-2.8301,-2.8301,-2.8301,-2.8301,-2.8301,-2.8301,-2.8301,-2.8301,-2.8301,-2.8301,-2.8301,-2.8301,-2.8301,-2.8301,-2.8301,-2.8301,-2.8301,-2.8301,-2.8301,-2.8301,-2.7699,-2.6554,-2.4322,-2.3179,-2.2011,-1.9866,-1.9401,-1.9401,-1.9401,-1.9401,-1.9401,-1.9401,-1.9401,-1.9401,-1.9401,-1.9401,-1.9401,-1.9401,-1.9401,-1.9401,-1.9401,-1.9401,-1.9401,-1.9401,-1.9401,-1.9401,-1.9401,-1.9401,-1.9401,-1.9401,-1.9401,-1.9401,-1.9401,-1.9401,-1.9401,-1.9401,-1.9401,-1.9401,-1.9401,-1.9401,-1.9401,-2.5693,-2.5693,-2.5835,-2.6367,-2.6758,-2.7148,-2.7663,-2.8073,-2.8301,-2.8301,-2.8301,-2.8301,-2.8301,-2.8301,0.0,0.0,0.0,0.0,-2.884,0.0,0.0,0.0,0.0,0.0,0.0,0.0,0.0,0.0,0.0,-3.0898,-3.0898,-3.0898,-3.0898,-3.0898,-3.0898,-3.0898,-3.0898,-3.0898,-3.0898,-3.0898,-3.0898,-3.0898,-3.0898,-3.0898,-3.041,-2.9598,0.0,0.0,-2.8301,-2.8301,-2.8301,-2.8301,-2.8301,-2.8301,-2.8301,-2.8301,-2.8301,-2.8301,-2.8301,-2.8301,-2.8301,-2.8301,-2.8301,-2.8301,-2.8301,-2.8301,-2.8301,-2.8301,-2.8301,-2.8301,-2.8301,-2.8301,-2.7538,-2.4516,-2.3794,-2.2999,-2.004,-1.9401,-1.9401,-1.9401,-1.9401,-1.9401,-1.9401,-1.9401,-1.9401,-1.9401,-1.9401,-1.9401,-1.9401,-1.9401,-1.9401,-1.9401,-1.9401,-1.9401,-1.9401,-1.9401,-1.9401,-1.9401,-1.9401,-1.9401,-1.9401,-1.9401,-1.9401,-1.9401,-1.9401,-1.9401,-1.9401,-1.9401,-1.9401,-1.9401,-1.9401,-1.9401,-2.5693,-2.5693,-2.5888,-2.6719,-2.6947,-2.7201,-2.8008,-2.8242,-2.8301,-2.8301,-2.8301,-2.8301,-2.8301,-2.8301,-2.8301,0.0,0.0,-2.8437,0.0,0.0,0.0,0.0,0.0,0.0,0.0,0.0,0.0,0.0,0.0,-3.0898,-3.0898,-3.0898,-3.0898,-3.0898,-3.0898,-3.0898,-3.0898,-3.0898,-3.0898,-3.0898,-3.0898,-3.0898,-3.0898,-3.0898,-3.041,-2.9598,0.0,-2.9109,-2.8301,-2.8301,-2.8301,-2.8301,-2.8301,-2.8301,-2.8301,-2.8301,-2.8301,-2.8301,-2.8301,-2.8301,-2.8301,-2.8301,-2.8301,-2.8301,-2.8301,-2.8301,-2.8301,-2.8301,-2.8301,-2.8301,-2.8301,-2.8301,-2.7538,-2.4516,-2.3794,-2.2999,-2.004,-1.9401,-1.9401,-1.9401,-1.9401,-1.9401,-1.9401,-1.9401,-1.9401,-1.9401,-1.9401,-1.9401,-1.9401,-1.9401,-1.9401,-1.9401,-1.9401,-1.9401,-1.9401,-1.9401,-1.9401,-1.9401,-1.9401,-1.9401,-1.9401,-1.9401,-1.9401,-1.9401,-1.9401,-1.9401,-1.9401,-1.9401,-1.9401,-1.9401,-1.9401,-1.9401,-2.5693,-2.5893,-2.623,-2.6855,-2.6986,-2.7246,-2.8086,-2.8301,-2.8301,-2.8301,-2.8301,-2.8301,-2.8301,0.0,-2.8301,-2.8301,0.0,-2.8516,0.0,0.0,0.0,0.0,0.0,0.0,0.0,0.0,0.0,0.0,0.0,0.0,-3.0898,-3.0898,-3.0898,-3.0898,-3.0898,-3.0898,-3.0898,-3.0898,-3.0898,-3.0898,-3.0898,-3.0898,-3.0898,-3.0898,-3.041,-2.9598,0.0,-2.9109,-2.8301,-2.8301,-2.8301,-2.8301,-2.8301,-2.8301,-2.8301,-2.8301,-2.8301,-2.8301,-2.8301,-2.8301,-2.8301,-2.8301,-2.8301,-2.8301,-2.8301,-2.8301,-2.8121,-2.733,-2.7699,-2.8301,-2.8301,-2.8301,-2.7753,-2.5553,-2.4405,-2.3207,-2.1031,-1.9953,-1.9401,-1.9401,-1.9401,-1.9401,-1.9401,-1.9401,-1.9401,-1.9401,-1.9401,-1.9401,-1.9401,-1.9401,-1.9401,-1.9401,-1.9401,-1.9401,-1.9401,-1.9401,-1.9401,-1.9401,-1.9401,-1.9401,-1.9401,-1.9401,-1.9401,-1.9401,-1.9401,-1.9401,-1.9401,-1.9401,-1.9401,-1.9401,-1.9401,-1.9401,-2.5693,-2.603,-2.6484,-2.6914,-2.709,-2.7363,-2.8125,-2.8301,-2.8301,-2.8301,-2.8301,-2.8301,-2.8301,-2.8301,0.0,-2.8301,-2.8379,0.0,0.0,0.0,0.0,0.0,0.0,0.0,0.0,0.0,0.0,0.0,0.0,0.0,-3.0898,-3.0898,-3.0898,-3.0898,-3.0898,-3.0898,-3.0898,-3.0898,-3.0898,-3.0898,-3.0898,-3.0898,-3.0898,-3.0898,-3.0497,-2.9735,-2.9637,-2.9168,-2.8437,-2.834,-2.8301,-2.8301,-2.8301,-2.8301,-2.8301,-2.8301,-2.8301,-2.8301,-2.8301,-2.8301,-2.8301,-2.8301,-2.8301,-2.8301,-2.8301,-2.8301,-2.8067,-2.6933,-2.7195,-2.7699,-2.7349,-2.7249,-2.6852,-2.5398,-2.4156,-2.287,-2.1387,-2.0199,-1.9401,-1.9401,-1.9401,-1.9401,-1.9401,-1.9401,-1.9401,-1.9401,-1.9401,-1.9401,-1.9401,-1.9401,-1.9401,-1.9401,-1.9401,-1.9401,-1.9401,-1.9401,-1.9401,-1.9401,-1.9401,-1.9401,-1.9401,-1.9401,-1.9401,-1.9401,-1.9401,-1.9401,-1.9401,-1.9401,-1.9401,-1.9401,-1.9401,-1.9401,-2.5693,-2.603,-2.6484,-2.6914,-2.7324,-2.7761,-2.8184,-2.8301,-2.8301,-2.8301,-2.8301,-2.8301,-2.8301,-2.8301,-2.8301,-2.8301,-2.8613,0.0,0.0,0.0,0.0,0.0,0.0,0.0,0.0,0.0,0.0,0.0,0.0,0.0,-3.0898,-3.0898,-3.0898,-3.0898,-3.0898,-3.0898,-3.0898,-3.0898,-3.0898,-3.0898,-3.0898,-3.0898,-3.0898,-3.0898,-3.0625,-3.0137,-2.9774,-2.9324,-2.882,-2.8457,-2.8301,-2.8301,-2.8301,-2.8301,-2.8301,-2.8301,-2.8301,-2.8301,-2.8301,-2.8301,-2.8301,-2.8301,-2.8301,-2.8301,-2.8301,-2.8301,-2.8301,-2.8174,-2.7222,-2.5936,-2.4488,-2.4128,-2.3738,-2.2279,-2.1841,-2.133,-1.9866,-1.9475,-1.9401,-1.9401,-1.9401,-1.9401,-1.9401,-1.9401,-1.9401,-1.9401,-1.9401,-1.9401,-1.9401,-1.9401,-1.9401,-1.9401,-1.9401,-1.9401,-1.9401,-1.9401,-1.9401,-1.9401,-1.9401,-1.9401,-1.9401,-1.9401,-1.9401,-1.9401,-1.9401,-1.9401,-1.9401,-1.9401,-1.9401,-1.9401,-1.9401,-1.9401,-2.6074,-2.6445,-2.6875,-2.7305,-2.7761,-2.8105,-2.8262,-2.8301,-2.8301,-2.8301,-2.8301,-2.8301,-2.8301,0.0,-2.8301,-2.8301,0.0,0.0,0.0,0.0,0.0,0.0,0.0,0.0,0.0,0.0,0.0,0.0,0.0,0.0,0.0,-3.0898,-3.0898,-3.0898,-3.0898,-3.0898,-3.0898,-3.0898,-3.0898,-3.0898,-3.0898,-3.0898,-3.0898,-3.0898,-3.0644,-3.0176,-3.0039,-2.9726,-2.9316,-2.9188,-2.9109,-2.909,-2.8789,-2.8516,-2.8301,-2.8301,-2.8301,-2.8301,-2.8301,-2.8301,-2.8301,-2.8301,-2.8301,-2.8301,-2.8301,-2.8301,-2.8094,-2.7195,-2.5854,-2.4765,-2.5123,-2.4516,-2.3654,-2.3095,-2.2251,-2.1443,-2.0902,-2.004,-1.9401,-1.9401,-1.9401,-1.9401,-1.9401,-1.9401,-1.9401,-1.9401,-1.9401,-1.9401,-1.9401,-1.9401,-1.9401,-1.9401,-1.9401,-1.9401,-1.9401,-1.9401,-1.9401,-1.9401,-1.9401,-1.9401,-1.9401,-1.9401,-1.9401,-1.9401,-1.9401,-1.9401,-1.9401,-1.9401,-1.9401,-1.9401,-1.9401,-1.9401,-2.6309,-2.6797,-2.7285,-2.7624,-2.8015,-2.8301,-2.8301,-2.8301,-2.8301,-2.8301,-2.8301,-2.8301,-2.8301,-2.8301,0.0,0.0,0.0,0.0,0.0,0.0,0.0,0.0,0.0,0.0,0.0,0.0,0.0,0.0,0.0,0.0,0.0,-3.0898,-3.0898,-3.0898,-3.0898,-3.0898,-3.0898,-3.0898,-3.0898,-3.0898,-3.0898,-3.0898,-3.0898,-3.0898,-3.0723,-3.041,-3.0254,-3.0039,-2.9794,-2.9657,-2.9598,-2.9579,-2.9238,-2.8945,-2.8672,-2.8535,-2.8496,-2.8476,-2.834,-2.8301,-2.8301,-2.8301,-2.8301,-2.8301,-2.8301,-2.8301,-2.8094,-2.7087,-2.5717,-2.4654,-2.5233,-2.3905,-2.2407,-2.2407,-2.1643,-2.0916,-2.0916,-2.0112,-1.9401,-1.9401,-1.9401,-1.9401,-1.9401,-1.9401,-1.9401,-1.9401,-1.9401,-1.9401,-1.9401,-1.9401,-1.9401,-1.9401,-1.9401,-1.9401,-1.9401,-1.9401,-1.9401,-1.9401,-1.9401,-1.9401,-1.9401,-1.9401,-1.9401,-1.9401,-1.9401,-1.9401,-1.9401,-1.9401,-1.9401,-1.9401,-1.9401,-1.9401,-2.6387,-2.7037,-2.7702,-2.7702,-2.8015,-2.8301,-2.8301,-2.8301,-2.8301,-2.8301,-2.8301,-2.8301,-2.8301,-2.8301,0.0,0.0,0.0,0.0,0.0,0.0,0.0,0.0,0.0,0.0,0.0,0.0,0.0,0.0,0.0,0.0,0.0,-3.0898,-3.0898,-3.0898,-3.0898,-3.0898,-3.0898,-3.0898,-3.0898,-3.0898,-3.0898,-3.0898,-3.0898,-3.0898,-3.0898,-3.0859,-3.041,-3.0195,-3.0176,-2.9774,-2.9618,-2.9598,-2.9598,-2.9598,-2.954,-2.9082,-2.8898,-2.884,-2.8437,-2.8301,-2.8301,-2.8301,-2.8301,-2.8301,-2.8301,-2.8301,-2.8301,-2.8301,-2.7249,-2.5745,-2.4211,-2.1629,-1.943,-1.9401,-1.9401,-1.9401,-1.9401,-1.9401,-1.9401,-1.9401,-1.9401,-1.9401,-1.9401,-1.9401,-1.9401,-1.9401,-1.9401,-1.9401,-1.9401,-1.9401,-1.9401,-1.9401,-1.9401,-1.9401,-1.9401,-1.9401,-1.9401,-1.9401,-1.9401,-1.9401,-1.9401,-1.9401,-1.9401,-1.9401,-1.9401,-1.9401,-1.9401,-1.9401,-1.9401,-1.9401,-1.9401,-1.9401,-2.6758,-2.7246,-2.7761,-2.8054,-2.8203,-2.8301,-2.8301,-2.8301,-2.8301,-2.8301,-2.8301,-2.8301,-2.8301,-2.8535,0.0,0.0,0.0,0.0,0.0,0.0,0.0,0.0,0.0,0.0,0.0,0.0,0.0,0.0,0.0,0.0,0.0,-3.0898,-3.0898,-3.0898,-3.0898,-3.0898,-3.0898,-3.0898,-3.0898,-3.0898,-3.0898,-3.0898,-3.0898,-3.0898,-3.0898,-3.0879,-3.0742,-3.0684,-3.0684,-3.0547,-3.0341,-3.0,-3.0,-2.9852,-2.9579,-2.9442,-2.918,-2.8879,-2.8742,-2.8535,-2.8301,-2.8301,-2.8301,-2.8301,-2.8301,-2.8301,-2.8301,-2.8301,-2.7249,-2.5745,-2.4211,-2.2379,-2.0702,-1.9649,-1.9401,-1.9401,-1.9401,-1.9401,-1.9401,-1.9401,-1.9401,-1.9401,-1.9401,-1.9401,-1.9401,-1.9401,-1.9401,-1.9401,-1.9401,-1.9401,-1.9401,-1.9401,-1.9401,-1.9401,-1.9401,-1.9401,-1.9401,-1.9401,-1.9401,-1.9401,-1.9401,-1.9401,-1.9401,-1.9401,-1.9401,-1.9401,-1.9401,-1.9401,-1.9401,-1.9401,-1.9401,-1.9401,-2.7168,-2.7598,-2.7995,-2.8223,-2.8301,-2.8301,-2.8301,-2.8301,-2.8301,-2.8301,-2.8418,-2.8535,-2.8535,-2.8887,0.0,0.0,0.0,0.0,0.0,0.0,0.0,0.0,0.0,0.0,0.0,0.0,0.0,0.0,0.0,0.0,0.0,-3.0898,-3.0898,-3.0898,-3.0898,-3.0898,-3.0898,-3.0898,-3.0898,-3.0898,-3.0898,-3.0898,-3.0898,-3.0898,-3.0898,-3.0898,-3.0898,-3.0898,-3.0898,-3.0898,-3.0723,-3.0469,-3.0469,-3.0312,-3.0106,-2.9911,-2.9551,-2.916,-2.8957,-2.8652,-2.8301,-2.8301,-2.8301,-2.8301,-2.8301,-2.8301,-2.8301,-2.8301,-2.7672,-2.6499,-2.435,-2.3151,-2.1955,-1.9895,-1.9401,-1.9401,-1.9401,-1.9401,-1.9401,-1.9401,-1.9401,-1.9401,-1.9401,-1.9401,-1.9401,-1.9401,-1.9401,-1.9401,-1.9401,-1.9401,-1.9401,-1.9401,-1.9401,-1.9401,-1.9401,-1.9401,-1.9401,-1.9401,-1.9401,-1.9401,-1.9401,-1.9401,-1.9401,-1.9401,-1.9401,-1.9401,-1.9401,-1.9401,-1.9401,-1.9401,-1.9401,-1.9401,-2.7585,-2.7995,-2.8301,-2.8301,-2.8301,-2.8301,-2.8301,-2.8301,-2.8301,-2.8301,-2.8633,-2.8898,-2.8898,-2.9316,0.0,0.0,0.0,0.0,0.0,0.0,0.0,0.0,0.0,0.0,0.0,0.0,0.0,0.0,0.0,0.0,0.0,-3.0898,-3.0898,-3.0898,-3.0898,-3.0898,-3.0898,-3.0898,-3.0898,-3.0898,-3.0898,-3.0898,-3.0898,-3.0898,-3.0898,-3.0898,-3.0898,-3.0898,-3.0898,-3.0898,-3.0898,-3.0898,-3.0898,-3.0898,-3.084,-3.041,-3.0028,-2.9598,-2.9121,-2.8711,-2.834,-2.8301,-2.8301,-2.8301,-2.8301,-2.8301,-2.8301,-2.8301,-2.8301,-2.7618,-2.4571,-2.3794,-2.3067,-2.0097,-1.9401,-1.9401,-1.9401,-1.9401,-1.9401,-1.9401,-1.9401,-1.9401,-1.9401,-1.9401,-1.9401,-1.9401,-1.9401,-1.9401,-1.9401,-1.9401,-1.9401,-1.9401,-1.9401,-1.9401,-1.9401,-1.9401,-1.9401,-1.9401,-1.9401,-1.9401,-1.9401,-1.9401,-1.9401,-1.9401,-1.9401,-1.9401,-1.9401,-1.9401,-1.9401,-1.9401,-1.9401,-1.9401,-2.7663,-2.7995,-2.8301,-2.8301,-2.8301,-2.8301,-2.8301,-2.8301,-2.8301,-2.8301,-2.8633,-2.8898,-2.8898,0.0,0.0,0.0,0.0,0.0,0.0,0.0,0.0,0.0,0.0,0.0,0.0,0.0,0.0,0.0,0.0,0.0,-3.0898,-3.0898,-3.0898,-3.0898,-3.0898,-3.0898,-3.0898,-3.0898,-3.0898,0.0,-3.0898,-3.0898,-3.0898,-3.0898,-3.0898,-3.0898,-3.0898,-3.0898,-3.0898,-3.0898,-3.0898,-3.0898,-3.0898,-3.0898,-3.0879,-3.0781,-3.0449,-3.0,-2.957,-2.9141,-2.873,-2.8398,-2.8301,-2.8301,-2.8301,-2.8301,-2.8301,-2.8301,-2.8301,-2.7618,-2.4571,-2.3794,-2.3067,-2.0097,-1.9401,-1.9401,-1.9401,-1.9401,-1.9401,-1.9401,-1.9401,-1.9401,-1.9401,-1.9401,-1.9401,-1.9401,-1.9401,-1.9401,-1.9401,-1.9401,-1.9401,-1.9401,-1.9401,-1.9401,-1.9401,-1.9401,-1.9401,-1.9401,-1.9401,-1.9401,-1.9401,-1.9401,-1.9401,-1.9401,-1.9401,-1.9401,-1.9401,-1.9401,-1.9401,-1.9401,-1.9401,-1.9401,-2.7936,-2.8125,-2.8301,-2.8301,-2.8301,-2.8301,-2.8301,-2.8301,-2.8301,-2.8301,-2.8789,-2.9238,-2.9238,0.0,0.0,0.0,0.0,0.0,0.0,0.0,0.0,0.0,0.0,0.0,0.0,0.0,0.0,0.0,0.0,-3.0898,-3.0898,-3.0898,-3.0898,-3.0898,-3.0898,-3.0898,-3.0898,-3.0898,-3.0898,-3.0898,-3.0898,-3.0898,-3.0898,-3.0898,-3.0898,-3.0898,-3.0898,-3.0898,-3.0898,-3.0898,-3.0898,-3.0898,-3.0898,-3.0898,-3.0898,-3.0898,-3.0586,-3.0176,-2.9941,-2.9453,-2.8859,-2.8672,-2.8457,-2.8301,-2.8301,-2.8301,-2.8301,-2.8301,-2.8301,-2.778,-2.5498,-2.435,-2.3235,-2.0988,-1.9924,-1.9401,-1.9401,-1.9401,-1.9401,-1.9401,-1.9401,-1.9401,-1.9401,-1.9401,-1.9401,-1.9401,-1.9401,-1.9401,-1.9401,-1.9401,-1.9401,-1.9401,-1.9401,-1.9401,-1.9401,-1.9401,-1.9401,-1.9401,-1.9401,-1.9401,-1.9401,-1.9401,-1.9401,-1.9401,-1.9401,-1.9401,-1.9401,-1.9401,-1.9401,-1.9401,-1.9401,-1.9401,-2.823,-2.8301,-2.8301,-2.8301,-2.8301,-2.8301,-2.8301,-2.8301,-2.8301,-2.8301,-2.8933,-2.9481,0.0,0.0,0.0,0.0,0.0,0.0,0.0,0.0,0.0,0.0,0.0,0.0,0.0,0.0,0.0,0.0,0.0,-3.0898,-3.0898,-3.0898,-3.0898,-3.0898,-3.0898,-3.0898,-3.0898,-3.0898,-3.0898,-3.0898,-3.0898,-3.0898,-3.0898,-3.0898,-3.0898,-3.0898,-3.0898,-3.0898,-3.0898,-3.0898,-3.0898,-3.0898,-3.0898,-3.0898,-3.0898,-3.0898,-3.0644,-3.0312,-3.0234,-2.9687,-2.9023,-2.8918,-2.8633,-2.8301,-2.8301,-2.8301,-2.8301,-2.8301,-2.8301,-2.796,-2.6499,-2.4958,-2.3431,-2.1955,-2.0472,-1.9401,-1.9401,-1.9401,-1.9401,-1.9401,-1.9401,-1.9401,-1.9401,-1.9401,-1.9401,-1.9401,-1.9401,-1.9401,-1.9401,-1.9401,-1.9401,-1.9401,-1.9401,-1.9401,-1.9401,-1.9401,-1.9401,-1.9401,-1.9401,-1.9401,-1.9401,-1.9401,-1.9401,-1.9401,-1.9401,-1.9401,-1.9401,-1.9401,-1.9401,-1.9401,-1.9401,-1.9401,-2.8281,-2.8301,-2.8301,-2.8301,-2.8301,-2.8301,-2.8301,-2.8301,-2.8301,0.0,-2.8672,0.0,0.0,0.0,0.0,0.0,0.0,0.0,0.0,0.0,0.0,0.0,0.0,0.0,0.0,0.0,0.0,0.0,-3.0898,-3.0898,-3.0898,-3.0898,-3.0898,-3.0898,-3.0898,-3.0898,-3.0898,-3.0898,-3.0898,-3.0898,-3.0898,-3.0898,-3.0898,-3.0898,-3.0898,-3.0898,-3.0898,-3.0898,-3.0898,-3.0898,-3.0898,-3.0898,-3.0898,-3.0898,-3.0898,-3.0898,-3.0859,-3.0742,-3.0332,-2.9911,-2.9442,-2.9043,-2.8633,-2.8301,-2.8301,-2.8301,-2.8301,-2.8301,-2.8301,-2.796,-2.6499,-2.4958,-2.3431,-2.1955,-2.0472,-1.9401,-1.9401,-1.9401,-1.9401,-1.9401,-1.9401,-1.9401,-1.9401,-1.9401,-1.9401,-1.9401,-1.9401,-1.9401,-1.9401,-1.9401,-1.9401,-1.9401,-1.9401,-1.9401,-1.9401,-1.9401,-1.9401,-1.9401,-1.9401,-1.9401,-1.9401,-1.9401,-1.9401,-1.9401,-1.9401,-1.9401,-1.9401,-1.9401,-1.9401,-1.9401,-1.9401,-1.9401,-2.8301,-2.8301,-2.8301,-2.8301,-2.8301,-2.8301,-2.8301,-2.8301,-2.8301,-2.8301,0.0,0.0,0.0,0.0,0.0,0.0,0.0,0.0,0.0,0.0,0.0,0.0,0.0,0.0,0.0,0.0,0.0,0.0,-3.0898,-3.0898,-3.0898,-3.0898,-3.0898,-3.0898,-3.0898,-3.0898,-3.0898,-3.0898,-3.0898,-3.0898,-3.0898,-3.0898,-3.0898,-3.0898,-3.0898,-3.0898,-3.0898,-3.0898,-3.0898,-3.0898,-3.0898,-3.0898,-3.0898,-3.0898,-3.0898,-3.0898,-3.0898,-3.0859,-3.0664,-3.0293,-2.9872,-2.9434,-2.8984,-2.8594,-2.8359,-2.8301,-2.8301,-2.8301,-2.8301,-2.8147,-2.7492,-2.558,-2.385,-2.4072,-2.1714,-1.962,-2.0443,-1.9982,-1.9401,-1.9401,-1.9401,-1.9401,-1.9401,-1.9401,-1.9401,-1.9401,-1.9401,-1.9401,-1.9401,-1.9401,-1.9401,-1.9401,-1.9401,-1.9401,-1.9401,-1.9401,-1.9401,-1.9401,-1.9401,-1.9401,-1.9401,-1.9401,-1.9401,-1.9401,-1.9401,-1.9401,-1.9401,-1.9401,-1.9401,-1.9401,-1.9401,-1.9401,-2.8301,-2.8301,-2.8301,-2.8301,-2.8301,-2.8301,-2.8301,0.0,-2.8301,0.0,0.0,0.0,0.0,0.0,0.0,0.0,0.0,0.0,0.0,0.0,0.0,0.0,0.0,0.0,0.0,0.0,0.0,0.0,-3.0898,-3.0898,-3.0898,-3.0898,-3.0898,-3.0898,-3.0898,-3.0898,-3.0898,-3.0898,-3.0898,-3.0898,-3.0898,-3.0898,-3.0898,-3.0898,-3.0898,-3.0898,-3.0898,-3.0898,-3.0898,-3.0898,-3.0898,-3.0898,-3.0898,-3.0898,-3.0898,-3.0898,-3.0898,-3.0898,-3.0898,-3.0586,-3.0137,-2.9852,-2.9434,-2.9023,-2.8711,-2.8613,-2.8613,-2.8613,-2.8613,-2.8613,-2.8613,-2.6674,-2.4956,-2.6006,-2.3126,-2.0267,-2.0916,-2.017,-1.9401,-1.9401,-1.9401,-1.9401,-1.9401,-1.9401,-1.9401,-1.9401,-1.9401,-1.9401,-1.9401,-1.9401,-1.9401,-1.9401,-1.9401,-1.9401,-1.9401,-1.9401,-1.9401,-1.9401,-1.9401,-1.9401,-1.9401,-1.9401,-1.9401,-1.9401,-1.9401,-1.9401,-1.9401,-1.9401,-1.9401,-1.9401,-1.9401,-1.9401,-2.8301,-2.8301,-2.8301,-2.8301,-2.8301,-2.8301,0.0,0.0,0.0,0.0,0.0,0.0,0.0,0.0,0.0,0.0,0.0,0.0,0.0,0.0,0.0,0.0,0.0,0.0,0.0,0.0,0.0,0.0,-3.0898,-3.0898,-3.0898,-3.0898,-3.0898,-3.0898,-3.0898,-3.0898,-3.0898,-3.0898,-3.0898,-3.0898,-3.0898,-3.0898,-3.0898,-3.0898,-3.0898,-3.0898,-3.0898,-3.0898,-3.0898,-3.0898,-3.0898,-3.0898,-3.0898,-3.0898,-3.0898,-3.0898,-3.0898,-3.0898,-3.0898,-3.0586,-3.0195,-3.0176,-2.9883,-2.9559,-2.954,-2.954,-2.954,-2.954,-2.954,-2.954,-2.954,-2.8333,-2.7035,-2.6741,-2.4305,-2.1598,-1.9877,-1.9446,-1.9401,-1.9401,-1.9401,-1.9401,-1.9401,-1.9401,-1.9401,-1.9401,-1.9401,-1.9401,-1.9401,-1.9401,-1.9401,-1.9401,-1.9401,-1.9401,-1.9401,-1.9401,-1.9401,-1.9401,-1.9401,-1.9401,-1.9401,-1.9401,-1.9401,-1.9401,-1.9401,-1.9401,-1.9401,-1.9401,-1.9401,-1.9401,-1.9401,-1.9401,-2.8301,-2.8301,-2.8301,-2.8301,-2.8301,-2.8301,-2.8301,-2.8301,-2.8301,0.0,0.0,0.0,0.0,0.0,0.0,0.0,0.0,0.0,0.0,0.0,0.0,0.0,0.0,0.0,0.0,0.0,0.0,0.0,0.0,-3.0898,-3.0898,-3.0898,-3.0898,-3.0898,-3.0898,-3.0898,-3.0898,-3.0898,-3.0898,-3.0898,-3.0898,-3.0898,-3.0898,-3.0898,-3.0898,-3.0898,-3.0898,-3.0898,-3.0898,-3.0898,-3.0898,-3.0898,-3.0898,-3.0898,-3.0898,-3.0898,-3.0898,-3.0898,-3.0898,-3.0781,-3.0586,-3.0293,-3.0098,-2.995,-2.9676,-2.9598,-2.9598,-2.9598,-2.9598,-2.9598,-2.9598,-2.8465,-2.6771,-2.4647,-2.4017,-2.3199,-2.05,-1.9626,-1.9401,-1.9401,-1.9401,-1.9401,-1.9401,-1.9401,-1.9401,-1.9401,-1.9401,-1.9401,-1.9401,-1.9401,-1.9401,-1.9401,-1.9401,-1.9401,-1.9401,-1.9401,-1.9401,-1.9401,-1.9401,-1.9401,-1.9401,-1.9401,-1.9401,-1.9401,-1.9401,-1.9401,-1.9401,-1.9401,-1.9401,-1.9401,-1.9401,-1.9401,-2.8301,-2.8301,-2.8301,-2.8301,-2.8301,-2.8301,-2.8301,0.0,0.0,0.0,0.0,0.0,0.0,0.0,0.0,0.0,0.0,0.0,0.0,0.0,0.0,0.0,0.0,0.0,0.0,0.0,0.0,0.0,0.0,0.0,-3.0664,-3.0801,-3.0898,-3.0898,-3.0898,-3.0898,-3.0898,-3.0898,-3.0898,-3.0898,-3.0898,-3.0898,-3.0898,-3.0898,-3.0898,-3.0898,-3.0898,-3.0898,-3.0898,-3.0898,-3.0898,-3.0898,-3.0898,-3.0898,-3.0898,-3.0898,-3.0898,-3.0898,-3.0898,-3.0898,-3.084,-3.0527,-3.043,-3.0371,-3.0126,-3.0048,-3.0048,-3.0048,-3.0048,-3.0048,-3.0048,-2.9155,-2.7492,-2.4402,-2.4306,-2.4034,-2.0879,-1.9853,-1.9535,-1.9535,-1.9468,-1.9401,-1.9401,-1.9401,-1.9401,-1.9401,-1.9401,-1.9401,-1.9401,-1.9401,-1.9401,-1.9401,-1.9401,-1.9401,-1.9401,-1.9401,-1.9401,-1.9401,-1.9401,-1.9401,-1.9401,-1.9401,-1.9401,-1.9401,-1.9401,-1.9401,-1.9401,-1.9401,-1.9401,-1.9401,-1.9401,-1.9401,0.0,0.0,0.0,-2.8301,0.0,0.0,-2.8301,0.0,0.0,0.0,0.0,0.0,0.0,0.0,0.0,0.0,0.0,0.0,0.0,0.0,0.0,0.0,0.0,0.0,0.0,0.0,0.0,0.0,-2.9961,-3.0195,-3.0195,-3.0644,-3.0898,-3.0898,-3.0898,-3.0898,-3.0898,-3.0898,-3.0898,-3.0898,-3.0898,-3.0898,-3.0898,-3.0898,-3.0898,-3.0898,-3.0898,-3.0898,-3.0898,-3.0898,-3.0898,-3.0898,-3.0898,-3.0898,-3.0898,-3.0898,-3.0898,-3.0898,-3.0898,-3.0898,-3.0898,-3.0898,-3.0898,-3.0898,-3.0898,-3.0898,-3.0898,-3.0898,-3.0898,-3.0898,-3.084,-3.0518,-2.9432,-2.6287,-2.5221,-2.405,-2.0906,-2.0027,-1.9826,-1.9813,-1.9615,-1.9428,-1.9428,-1.9428,-1.9428,-1.9428,-1.9428,-1.9428,-1.9428,-1.9415,-1.9415,-1.9415,-1.9401,-1.9401,-1.9401,-1.9401,-1.9401,-1.9401,-1.9401,-1.9401,-1.9401,-1.9401,-1.9401,-1.9401,-1.9401,-1.9401,-1.9401,-1.9401,-1.9401,-1.9401,-1.9401,-1.9401,-2.8301,0.0,0.0,0.0,0.0,0.0,0.0,0.0,0.0,0.0,0.0,0.0,0.0,0.0,0.0,0.0,0.0,0.0,0.0,0.0,0.0,0.0,0.0,0.0,0.0,0.0,0.0,0.0,-2.9961,-3.0195,-3.0195,-3.0644,-3.0898,-3.0898,-3.0898,-3.0898,-3.0898,-3.0898,-3.0898,-3.0898,-3.0898,-3.0898,-3.0898,-3.0898,-3.0898,-3.0898,-3.0898,-3.0898,-3.0898,-3.0898,-3.0898,-3.0898,-3.0898,-3.0898,-3.0898,-3.0898,-3.0898,-3.0898,-3.0898,-3.0898,-3.0898,-3.0898,-3.0898,-3.0898,-3.0898,-3.0898,-3.0898,-3.0898,-3.0898,-3.0616,-2.9412,-2.9896,-2.9615,-2.5185,-2.4953,-2.4813,-2.1558,-2.0641,-2.0374,-2.016,-2.0024,-2.0,-2.0,-2.0,-2.0,-2.0,-2.0,-2.0,-2.0,-1.9813,-1.9679,-1.9679,-1.9522,-1.9401,-1.9401,-1.9401,-1.9401,-1.9401,-1.9401,-1.9401,-1.9401,-1.9401,-1.9401,-1.9401,-1.9401,-1.9401,-1.9401,-1.9401,-1.9401,-1.9401,-1.9401,-1.9401,-2.8301,-2.8301,-2.8301,0.0,0.0,0.0,-2.8301,-2.8301,0.0,0.0,0.0,0.0,0.0,0.0,0.0,0.0,0.0,0.0,0.0,0.0,0.0,0.0,0.0,0.0,0.0,-2.8887,-2.907,-2.907,-2.9434,-2.9824,-3.0176,-3.0644,-3.0898,-3.0898,-3.0898,-3.0898,-3.0898,-3.0898,-3.0898,-3.0898,-3.0898,-3.0898,-3.0898,-3.0898,-3.0898,-3.0898,-3.0898,-3.0898,-3.0898,-3.0898,-3.0898,-3.0898,-3.0898,-3.0898,-3.0898,-3.0898,-3.0898,-3.0898,-3.0898,-3.0898,-3.0898,-3.0898,-3.0898,-3.0898,-3.0898,-3.0898,-3.0898,-3.0898,-3.0898,-3.0509,-2.8842,-2.9128,-2.8801,-2.461,-2.4332,-2.4286,-2.1664,-2.0975,-2.0775,-2.0481,-2.029,-2.0197,-2.0197,-2.0197,-2.0197,-2.0197,-2.0197,-2.0197,-2.0197,-2.005,-1.9987,-1.9987,-1.9826,-1.9733,-1.9733,-1.9733,-1.9733,-1.9733,-1.9733,-1.9679,-1.9575,-1.9575,-1.9522,-1.9401,-1.9401,-1.9401,-1.9401,-1.9401,-1.9401,-1.9401,-1.9401,-1.9401,-2.8301,-2.8301,-2.8301,0.0,0.0,0.0,-2.8301,-2.8301,-2.8301,0.0,0.0,0.0,0.0,0.0,0.0,0.0,0.0,0.0,0.0,0.0,0.0,0.0,0.0,0.0,-2.8301,-2.8301,-2.8301,-2.8301,-2.873,-2.9336,-3.0156,-3.0644,-3.0898,-3.0898,-3.0898,-3.0898,-3.0898,-3.0898,-3.0898,-3.0898,-3.0898,-3.0898,-3.0898,-3.0898,-3.0898,-3.0898,-3.0898,-3.0898,-3.0898,-3.0898,-3.0898,-3.0898,-3.0898,-3.0898,-3.0898,-3.0898,-3.0898,-3.0898,-3.0898,-3.0898,-3.0898,-3.0898,-3.0898,-3.0898,-3.0898,-3.0898,-3.0898,-3.0898,-3.0898,-3.045,-2.8605,-2.8259,-2.7542,-2.4116,-2.345,-2.3139,-2.1443,-2.1109,-2.1029,-2.0806,-2.0508,-2.0304,-2.0304,-2.0304,-2.0304,-2.0304,-2.0304,-2.0304,-2.0304,-2.0277,-2.025,-2.025,-2.0224,-2.0197,-2.0197,-2.0197,-2.0197,-2.0197,-2.0197,-2.009,-1.9853,-1.984,-1.9733,-1.9495,-1.9468,-1.9441,-1.9441,-1.9415,-1.9401,-1.9401,-1.9401,-1.9401,0.0,0.0,0.0,0.0,0.0,0.0,-2.8301,-2.8301,-2.8301,0.0,0.0,0.0,0.0,0.0,0.0,0.0,0.0,0.0,0.0,0.0,0.0,0.0,0.0,0.0,-2.8301,-2.8301,-2.8301,-2.8301,-2.9031,-2.9696,-3.0176,-3.0644,-3.0898,-3.0898,-3.0898,-3.0898,-3.0898,-3.0898,-3.0898,-3.0898,-3.0898,-3.0898,-3.0898,-3.0898,-3.0898,-3.0898,-3.0898,-3.0898,-3.0898,-3.0898,-3.0898,-3.0898,-3.0898,-3.0898,-3.0898,-3.0898,-3.0898,-3.0898,-3.0898,-3.0898,-3.0898,-3.0898,-3.0898,-3.0898,-3.0898,-3.0898,-3.0898,-3.0898,-3.0898,-3.0216,-2.7224,-2.7434,-2.7271,-2.2671,-2.2623,-2.3139,-2.1443,-2.1109,-2.1096,-2.1042,-2.0975,-2.0904,-2.0904,-2.0904,-2.0904,-2.0904,-2.0904,-2.0904,-2.0904,-2.0735,-2.0588,-2.0588,-2.0344,-2.0197,-2.0197,-2.0197,-2.0197,-2.0197,-2.0197,-2.0184,-2.0117,-2.0117,-2.009,-2.0037,-1.984,-1.972,-1.972,-1.9508,-1.9401,-1.9401,-1.9401,-1.9401,0.0,0.0,0.0,-2.8301,0.0,0.0,0.0,-2.8301,-2.8301,-2.8301,0.0,0.0,0.0,0.0,0.0,0.0,0.0,0.0,0.0,0.0,0.0,0.0,0.0,0.0,-2.8301,-2.8301,-2.8301,-2.8301,-2.8887,-2.9434,-2.9891,-3.0293,-3.0644,-3.0879,-3.0898,-3.0898,-3.0898,-3.0898,-3.0898,-3.0898,-3.0898,-3.0898,-3.0898,-3.0898,-3.0898,-3.0898,-3.0898,-3.0898,-3.0898,-3.0898,-3.0898,-3.0898,-3.0898,-3.0898,-3.0898,-3.0898,-3.0898,-3.0898,-3.0898,-3.0898,-3.0898,-3.0898,-3.0898,-3.0898,-3.0898,-3.0898,-3.0898,-3.0898,-3.0898,-3.0333,-2.7841,-2.7811,-2.7391,-2.3325,-2.2983,-2.3139,-2.1443,-2.1109,-2.1109,-2.1109,-2.1109,-2.1109,-2.1109,-2.1109,-2.1109,-2.1109,-2.1109,-2.1109,-2.1109,-2.0989,-2.0895,-2.0895,-2.0762,-2.0637,-2.0637,-2.0637,-2.0637,-2.0637,-2.0637,-2.057,-2.0454,-2.0454,-2.0388,-2.021,-2.0064,-1.9983,-1.9983,-1.9867,-1.9653,-1.9401,-1.9401,-1.9401,0.0,0.0,0.0,0.0,0.0,-2.8301,0.0,0.0,0.0,-2.8301,0.0,0.0,0.0,0.0,0.0,0.0,0.0,0.0,0.0,0.0,0.0,0.0,0.0,0.0,0.0,-2.8301,-2.8301,-2.8301,-2.8672,-2.9101,-2.9579,-2.9961,-3.041,-3.0879,-3.0898,-3.0898,-3.0898,-3.0898,-3.0898,-3.0898,-3.0898,-3.0898,-3.0898,-3.0898,-3.0898,-3.0898,-3.0898,-3.0898,-3.0898,-3.0898,-3.0898,-3.0898,-3.0898,-3.0898,-3.0898,-3.0898,-3.0898,-3.0898,-3.0898,-3.0898,-3.0898,-3.0898,-3.0898,-3.0898,-3.0898,-3.0898,-3.0898,-3.0898,-3.0898,-3.0509,-2.8842,-2.8397,-2.7602,-2.4363,-2.3605,-2.3139,-2.1443,-2.1109,-2.1109,-2.1109,-2.1109,-2.1109,-2.1109,-2.1109,-2.1109,-2.1109,-2.1109,-2.1109,-2.1109,-2.1109,-2.1109,-2.1109,-2.1109,-2.1109,-2.1109,-2.1109,-2.1109,-2.1109,-2.1109,-2.1002,-2.0806,-2.0793,-2.0655,-2.037,-2.0317,-2.029,-2.029,-2.0237,-1.9987,-1.9562,-1.9562,-1.9562,0.0,0.0,0.0,0.0,-2.8301,0.0,0.0,0.0,-2.8301,-2.8301,0.0,0.0,0.0,0.0,0.0,0.0,0.0,0.0,0.0,0.0,0.0,0.0,0.0,0.0,0.0,-2.8301,-2.8301,-2.8301,-2.8672,-2.9101,-2.9579,-2.9961,-3.041,-3.0879,-3.0898,-3.0898,-3.0898,-3.0898,-3.0898,-3.0898,-3.0898,-3.0898,-3.0898,-3.0898,-3.0898,-3.0898,-3.0898,-3.0898,-3.0898,-3.0898,-3.0898,-3.0898,-3.0898,-3.0898,-3.0898,-3.0898,-3.0898,-3.0898,-3.0898,-3.0898,-3.0898,-3.0898,-3.0898,-3.0898,-3.0898,-3.0898,-3.0898,-3.0898,-3.0898,-3.0509,-2.8842,-2.8397,-2.7602,-2.4363,-2.3605,-2.3139,-2.1443,-2.1109,-2.1109,-2.1109,-2.1109,-2.1109,-2.1109,-2.1109,-2.1109,-2.1109,-2.1109,-2.1109,-2.1109,-2.1109,-2.1109,-2.1109,-2.1109,-2.1109,-2.1109,-2.1109,-2.1109,-2.1109,-2.1109,-2.1096,-2.1069,-2.1056,-2.1042,-2.1015,-2.0762,-2.0628,-2.0628,-2.033,-2.017,-2.0104,-2.0104,-2.0104,0.0,0.0,0.0,0.0,0.0,0.0,-2.8301,0.0,-2.8301,0.0,0.0,0.0,0.0,0.0,0.0,0.0,-2.8301,0.0,0.0,0.0,0.0,0.0,0.0,0.0,0.0,0.0,0.0,0.0,-2.8457,-2.8848,-2.9559,-2.9755,-3.0156,-3.0859,-3.0898,-3.0898,-3.0898,-3.0898,-3.0898,-3.0898,-3.0898,-3.0898,-3.0898,-3.0898,-3.0898,-3.0898,-3.0898,-3.0898,-3.0898,-3.0898,-3.0898,-3.0898,-3.0898,-3.0898,-3.0898,-3.0898,-3.0898,-3.0898,-3.0898,-3.0898,-3.0898,-3.0898,-3.0898,-3.0898,-3.0898,-3.0898,-3.0898,-3.0898,-3.0898,-3.0733,-3.002,-2.9844,-2.9039,-2.5788,-2.4993,-2.4286,-2.1664,-2.1109,-2.1109,-2.1109,-2.1109,-2.1109,-2.1109,-2.1109,-2.1109,-2.1109,-2.1109,-2.1109,-2.1109,-2.1109,-2.1109,-2.1109,-2.1109,-2.1109,-2.1109,-2.1109,-2.1109,-2.1109,-2.1109,-2.1109,-2.1109,-2.1109,-2.1109,-2.1109,-2.0989,-2.0922,-2.0922,-2.0802,-2.0704,-2.0704,-2.0357,-2.0197,-2.9101,0.0,0.0,0.0,0.0,0.0,0.0,0.0,0.0,0.0,0.0,0.0,0.0,0.0,0.0,0.0,0.0,0.0,0.0,0.0,0.0,0.0,0.0,0.0,0.0,0.0,0.0,0.0,0.0,-2.8613,-2.9383,-2.954,-2.995,-3.0684,-3.082,-3.0898,-3.0898,-3.0898,-3.0898,-3.0898,-3.0898,-3.0898,-3.0898,-3.0898,-3.0898,-3.0898,-3.0898,-3.0898,-3.0898,-3.0898,-3.0898,-3.0898,-3.0898,-3.0898,-3.0898,-3.0898,-3.0898,-3.0898,-3.0898,-3.0898,-3.0898,-3.0898,-3.0898,-3.0898,-3.0898,-3.0898,-3.0898,-3.0898,-3.0898,-3.0898,-3.0898,-3.0898,-3.005,-2.6772,-2.6015,-2.51,-2.1807,-2.1109,-2.1109,-2.1109,-2.1109,-2.1109,-2.1109,-2.1109,-2.1109,-2.1109,-2.1109,-2.1109,-2.1109,-2.1109,-2.1109,-2.1109,-2.1109,-2.1109,-2.1109,-2.1109,-2.1109,-2.1109,-2.1109,-2.1109,-2.1109,-2.1109,-2.1109,-2.1109,-2.1109,-2.1109,-2.1109,-2.1109,-2.1109,-2.1096,-2.0637,-2.0437,0.0,0.0,0.0,-2.8879,0.0,0.0,0.0,0.0,-2.8301,0.0,0.0,0.0,0.0,0.0,0.0,-2.8301,0.0,0.0,0.0,0.0,0.0,0.0,0.0,0.0,0.0,0.0,0.0,0.0,0.0,0.0,-2.8879,-2.9336,-2.9794,-3.0195,-3.0644,-3.0898,-3.0898,-3.0898,-3.0898,-3.0898,-3.0898,-3.0898,-3.0898,-3.0898,-3.0898,-3.0898,-3.0898,-3.0898,-3.0898,-3.0898,-3.0898,-3.0898,-3.0898,-3.0898,-3.0898,-3.0898,-3.0898,-3.0898,-3.0898,-3.0898,-3.0898,-3.0898,-3.0898,-3.0898,-3.0898,-3.0898,-3.0898,-3.0898,-3.0898,-3.0898,-3.0898,-3.0898,-3.005,-2.6772,-2.6015,-2.51,-2.1807,-2.1109,-2.1109,-2.1109,-2.1109,-2.1109,-2.1109,-2.1109,-2.1109,-2.1109,-2.1109,-2.1109,-2.1109,-2.1109,-2.1109,-2.1109,-2.1109,-2.1109,-2.1109,-2.1109,-2.1109,-2.1109,-2.1109,-2.1109,-2.1109,-2.1109,-2.1109,-2.1109,-2.1109,-2.1109,-2.1109,-2.1109,-2.1109,-2.1109,-2.1096,-2.1082,0.0,0.0,-2.9355,-2.9355,0.0,0.0,0.0,0.0,0.0,0.0,0.0,0.0,0.0,0.0,-2.8301,-2.8301,-2.8301,0.0,0.0,0.0,0.0,0.0,0.0,0.0,0.0,0.0,0.0,0.0,-2.8301,0.0,0.0,-2.9364,-2.9794,-3.0176,-3.0644,-3.0898,-3.0898,-3.0898,-3.0898,-3.0898,-3.0898,-3.0898,-3.0898,-3.0898,-3.0898,-3.0898,-3.0898,-3.0898,-3.0898,-3.0898,-3.0898,-3.0898,-3.0898,-3.0898,-3.0898,-3.0898,-3.0898,-3.0898,-3.0898,-3.0898,-3.0898,-3.0898,-3.0898,-3.0898,-3.0898,-3.0898,-3.0898,-3.0898,-3.0898,-3.0898,-3.0898,-3.0898,-3.0333,-2.811,-2.6772,-2.5406,-2.3232,-2.1884,-2.1109,-2.1109,-2.1109,-2.1109,-2.1109,-2.1109,-2.1109,-2.1109,-2.1109,-2.1109,-2.1109,-2.1109,-2.1109,-2.1109,-2.1109,-2.1109,-2.1109,-2.1109,-2.1109,-2.1109,-2.1109,-2.1109,-2.1109,-2.1109,-2.1109,-2.1109,-2.1109,-2.1109,-2.1109,-2.1109,-2.1109,-2.1109,-2.1109,-2.1109,-3.0449,-3.0146,0.0,-2.9813,-2.9715,0.0,-2.9219,0.0,0.0,0.0,0.0,0.0,0.0,0.0,0.0,-2.8301,-2.8301,-2.8301,0.0,-2.8301,0.0,0.0,0.0,0.0,0.0,0.0,0.0,0.0,-2.8301,0.0,0.0,0.0,-2.9715,-2.9989,-3.0566,-3.0898,-3.0898,-3.0898,-3.0898,-3.0898,-3.0898,-3.0898,-3.0898,-3.0898,-3.0898,-3.0898,-3.0898,-3.0898,-3.0898,-3.0898,-3.0898,-3.0898,-3.0898,-3.0898,-3.0898,-3.0898,-3.0898,-3.0898,-3.0898,-3.0898,-3.0898,-3.0898,-3.0898,-3.0898,-3.0898,-3.0898,-3.0859,-3.0684,-3.0762,-3.0859,-3.0684,-3.0762,-3.0499,-2.8783,-2.7164,-2.5558,-2.3931,-2.2278,-2.1109,-2.1109,-2.1109,-2.1109,-2.1109,-2.1109,-2.1109,-2.1109,-2.1109,-2.1109,-2.1109,-2.1109,-2.1109,-2.1109,-2.1109,-2.1109,-2.1109,-2.1109,-2.1109,-2.1109,-2.1109,-2.1109,-2.1109,-2.1109,-2.1203,-2.1416,-2.1216,-2.1216,-2.1416,-2.1216,-2.1109,-2.1109,-2.1109,-2.1109]},{"header":{"parameterUnit":"m.s-1","parameterCategory":1,"la1":30.6,"la2":29.2853,"lo1":-89.7004,"lo2":-87.6739,"dy":0.0162,"dx":0.0183,"nx":112,"ny":82,"refTime":"2023-05-09T12:00:00:Z","depth":0,"parameterNumber":3,"parameterNumberName":"V-component_of_WINDS"},"data":[0.0,0.0,0.0,0.0,0.0,0.0,0.0,0.0,0.0,0.0,0.0,0.0,0.0,0.0,0.0,0.0,0.0,0.0,0.0,0.0,0.0,0.0,0.0,0.0,0.0,0.0,0.0,0.0,0.0,0.0,0.0,0.0,0.0,0.0,0.0,0.0,0.0,0.0,0.0,0.0,0.0,0.0,0.0,0.0,0.0,0.0,0.0,0.0,0.0,0.0,0.0,0.0,0.0,0.0,0.0,0.0,0.0,0.0,0.0,0.0,0.0,0.0,0.0,0.0,0.0,0.0,0.0,0.0,0.0,0.0,0.0,0.0,0.0,0.0,0.0,0.0,0.0,0.0,0.0,0.0,0.0,0.0,0.0,0.0,0.0,0.0,0.0,0.0,0.0,0.0,2.8343,2.9542,2.9312,2.9055,2.9055,2.8773,2.8596,2.8667,0.0,0.0,0.0,0.0,0.0,0.0,0.0,0.0,0.0,0.0,0.0,0.0,0.0,0.0,0.0,0.0,0.0,0.0,0.0,0.0,0.0,0.0,0.0,0.0,0.0,0.0,0.0,0.0,0.0,0.0,0.0,0.0,0.0,0.0,0.0,0.0,0.0,0.0,0.0,0.0,0.0,0.0,0.0,0.0,0.0,0.0,0.0,0.0,0.0,0.0,0.0,0.0,0.0,0.0,0.0,0.0,0.0,0.0,0.0,0.0,0.0,0.0,0.0,0.0,0.0,0.0,0.0,0.0,0.0,0.0,0.0,0.0,0.0,0.0,0.0,0.0,0.0,0.0,0.0,0.0,0.0,0.0,0.0,0.0,0.0,0.0,0.0,0.0,0.0,0.0,0.0,0.0,0.0,0.0,0.0,0.0,0.0,0.0,0.0,0.0,0.0,0.0,0.0,0.0,2.9592,2.9461,2.9373,2.9322,2.9322,2.9448,2.9578,2.9756,0.0,0.0,0.0,0.0,0.0,0.0,0.0,0.0,0.0,0.0,0.0,0.0,0.0,0.0,0.0,0.0,0.0,0.0,0.0,0.0,0.0,0.0,0.0,0.0,0.0,0.0,0.0,0.0,0.0,0.0,0.0,0.0,0.0,0.0,0.0,0.0,0.0,0.0,0.0,0.0,0.0,0.0,0.0,0.0,0.0,0.0,0.0,0.0,0.0,0.0,0.0,0.0,0.0,0.0,0.0,0.0,0.0,0.0,0.0,0.0,0.0,0.0,0.0,0.0,0.0,0.0,0.0,0.0,0.0,0.0,0.0,0.0,0.0,0.0,0.0,0.0,0.0,0.0,0.0,0.0,0.0,0.0,0.0,0.0,0.0,0.0,0.0,0.0,0.0,0.0,0.0,0.0,0.0,0.0,0.0,0.0,0.0,0.0,0.0,0.0,0.0,0.0,0.0,3.0179,3.0237,3.008,3.0324,3.0365,3.0076,3.0213,3.0263,3.003,2.9525,0.0,0.0,0.0,0.0,0.0,0.0,0.0,0.0,0.0,0.0,0.0,0.0,0.0,0.0,0.0,0.0,0.0,0.0,0.0,0.0,0.0,0.0,0.0,0.0,0.0,0.0,0.0,0.0,0.0,0.0,0.0,0.0,0.0,0.0,0.0,0.0,0.0,0.0,0.0,0.0,0.0,0.0,0.0,0.0,0.0,0.0,0.0,0.0,0.0,0.0,0.0,0.0,0.0,0.0,0.0,0.0,0.0,0.0,0.0,0.0,0.0,0.0,0.0,0.0,0.0,0.0,0.0,0.0,0.0,0.0,0.0,0.0,0.0,0.0,0.0,0.0,0.0,0.0,0.0,0.0,0.0,0.0,0.0,0.0,0.0,0.0,0.0,0.0,0.0,0.0,0.0,0.0,0.0,0.0,0.0,0.0,0.0,0.0,0.0,0.0,0.0,0.0,3.0391,3.0607,3.0863,3.1268,3.1338,3.0926,3.0884,3.0746,3.0327,3.0326,0.0,0.0,0.0,0.0,0.0,0.0,0.0,0.0,0.0,0.0,0.0,0.0,0.0,0.0,0.0,0.0,0.0,0.0,0.0,0.0,0.0,0.0,0.0,0.0,0.0,0.0,0.0,0.0,0.0,0.0,0.0,0.0,0.0,0.0,0.0,0.0,0.0,0.0,0.0,0.0,0.0,0.0,0.0,0.0,0.0,0.0,0.0,0.0,0.0,0.0,0.0,0.0,0.0,0.0,0.0,0.0,0.0,0.0,0.0,0.0,0.0,0.0,0.0,0.0,0.0,0.0,0.0,0.0,0.0,0.0,0.0,0.0,0.0,0.0,0.0,0.0,0.0,0.0,0.0,0.0,0.0,0.0,0.0,0.0,0.0,0.0,0.0,0.0,0.0,0.0,0.0,0.0,0.0,0.0,0.0,0.0,0.0,0.0,0.0,0.0,0.0,0.0,3.049,3.0609,3.1617,3.174,3.1771,3.1719,3.1216,3.0973,3.1188,3.0467,0.0,0.0,0.0,0.0,0.0,0.0,0.0,0.0,0.0,0.0,0.0,0.0,0.0,0.0,0.0,0.0,0.0,0.0,0.0,0.0,0.0,0.0,0.0,0.0,0.0,0.0,0.0,0.0,0.0,0.0,0.0,0.0,0.0,0.0,0.0,0.0,0.0,0.0,0.0,0.0,0.0,0.0,0.0,0.0,0.0,0.0,0.0,0.0,0.0,0.0,0.0,0.0,0.0,0.0,0.0,0.0,0.0,0.0,0.0,0.0,0.0,0.0,0.0,0.0,0.0,0.0,0.0,0.0,0.0,0.0,0.0,0.0,0.0,0.0,0.0,0.0,0.0,0.0,0.0,0.0,0.0,0.0,0.0,0.0,0.0,0.0,0.0,0.0,0.0,0.0,0.0,0.0,0.0,0.0,0.0,0.0,0.0,0.0,0.0,0.0,0.0,0.0,3.1794,3.1937,0.0,3.284,3.2921,3.2578,3.2349,3.2149,3.2064,0.0,0.0,0.0,0.0,0.0,0.0,0.0,0.0,0.0,0.0,0.0,0.0,0.0,0.0,0.0,0.0,0.0,0.0,0.0,0.0,0.0,0.0,0.0,0.0,0.0,0.0,0.0,0.0,0.0,0.0,0.0,0.0,0.0,0.0,0.0,0.0,0.0,0.0,0.0,0.0,0.0,0.0,0.0,0.0,0.0,0.0,0.0,0.0,0.0,0.0,0.0,0.0,0.0,0.0,0.0,0.0,0.0,0.0,0.0,0.0,0.0,0.0,0.0,0.0,0.0,0.0,0.0,0.0,0.0,0.0,0.0,0.0,0.0,0.0,0.0,0.0,0.0,0.0,0.0,0.0,0.0,0.0,0.0,0.0,0.0,0.0,0.0,0.0,0.0,0.0,0.0,0.0,0.0,0.0,0.0,0.0,0.0,0.0,0.0,0.0,0.0,0.0,3.2481,3.2575,3.2776,0.0,3.3594,3.3629,3.3278,3.3084,3.2943,3.2791,0.0,0.0,0.0,0.0,0.0,0.0,0.0,0.0,0.0,0.0,0.0,0.0,0.0,0.0,0.0,0.0,0.0,0.0,0.0,0.0,0.0,0.0,0.0,0.0,0.0,0.0,0.0,0.0,0.0,0.0,0.0,0.0,0.0,0.0,0.0,0.0,0.0,0.0,0.0,0.0,0.0,0.0,0.0,0.0,0.0,0.0,0.0,0.0,0.0,0.0,0.0,0.0,0.0,0.0,0.0,0.0,0.0,0.0,0.0,0.0,0.0,0.0,0.0,0.0,0.0,0.0,0.0,0.0,0.0,0.0,0.0,0.0,0.0,0.0,0.0,0.0,0.0,0.0,0.0,0.0,0.0,0.0,0.0,0.0,0.0,0.0,0.0,0.0,0.0,0.0,0.0,0.0,0.0,0.0,0.0,0.0,0.0,0.0,0.0,0.0,0.0,0.0,3.2554,3.2626,3.2919,3.3733,3.3807,3.3807,3.3807,3.3303,3.3118,0.0,0.0,0.0,0.0,0.0,0.0,0.0,0.0,0.0,0.0,0.0,0.0,0.0,0.0,0.0,0.0,0.0,0.0,0.0,0.0,0.0,0.0,0.0,0.0,0.0,0.0,0.0,0.0,0.0,0.0,0.0,0.0,0.0,0.0,0.0,0.0,0.0,0.0,0.0,0.0,0.0,0.0,0.0,0.0,0.0,0.0,0.0,0.0,0.0,0.0,0.0,0.0,0.0,0.0,0.0,0.0,0.0,0.0,0.0,0.0,0.0,0.0,0.0,0.0,0.0,0.0,0.0,0.0,0.0,0.0,0.0,0.0,0.0,0.0,0.0,0.0,0.0,0.0,0.0,0.0,0.0,0.0,0.0,0.0,0.0,0.0,0.0,0.0,0.0,0.0,0.0,0.0,0.0,0.0,0.0,0.0,0.0,0.0,0.0,0.0,0.0,0.0,0.0,3.3666,3.3553,3.355,3.377,3.3807,3.3807,3.3807,3.3672,3.3777,3.4295,0.0,0.0,0.0,0.0,0.0,0.0,0.0,0.0,0.0,0.0,0.0,0.0,0.0,0.0,0.0,0.0,0.0,0.0,0.0,0.0,0.0,0.0,0.0,0.0,0.0,0.0,0.0,0.0,0.0,0.0,0.0,0.0,0.0,0.0,0.0,0.0,0.0,0.0,0.0,0.0,0.0,0.0,0.0,0.0,0.0,0.0,0.0,0.0,0.0,0.0,0.0,0.0,0.0,0.0,0.0,0.0,0.0,0.0,0.0,0.0,0.0,0.0,0.0,0.0,0.0,0.0,0.0,0.0,0.0,0.0,0.0,0.0,0.0,0.0,0.0,0.0,0.0,0.0,0.0,0.0,0.0,0.0,0.0,0.0,0.0,0.0,0.0,0.0,0.0,0.0,0.0,0.0,0.0,0.0,0.0,0.0,0.0,0.0,0.0,0.0,0.0,0.0,3.445,3.4368,3.4424,3.4761,3.4798,3.4651,3.4314,3.4277,3.4331,3.4475,0.0,0.0,0.0,0.0,0.0,0.0,0.0,0.0,0.0,0.0,0.0,0.0,0.0,0.0,0.0,0.0,0.0,0.0,0.0,0.0,0.0,0.0,0.0,0.0,0.0,0.0,0.0,0.0,0.0,0.0,0.0,0.0,0.0,0.0,0.0,0.0,0.0,0.0,0.0,0.0,0.0,0.0,0.0,0.0,0.0,0.0,0.0,0.0,0.0,0.0,0.0,0.0,0.0,0.0,0.0,0.0,0.0,0.0,0.0,0.0,0.0,0.0,0.0,0.0,0.0,0.0,0.0,0.0,0.0,0.0,0.0,0.0,0.0,0.0,0.0,0.0,0.0,0.0,0.0,0.0,0.0,0.0,0.0,0.0,0.0,0.0,0.0,0.0,0.0,0.0,0.0,0.0,0.0,0.0,0.0,0.0,0.0,0.0,0.0,0.0,0.0,0.0,3.5004,3.5107,3.5408,3.6237,3.631,3.5973,3.5188,3.5107,3.4897,3.4362,0.0,0.0,0.0,0.0,0.0,0.0,0.0,0.0,0.0,0.0,0.0,0.0,0.0,0.0,0.0,0.0,0.0,0.0,0.0,0.0,0.0,0.0,0.0,0.0,0.0,0.0,0.0,0.0,0.0,0.0,0.0,0.0,0.0,0.0,0.0,0.0,0.0,0.0,0.0,0.0,0.0,0.0,0.0,0.0,0.0,0.0,0.0,0.0,0.0,0.0,0.0,0.0,0.0,0.0,0.0,0.0,0.0,0.0,0.0,0.0,3.3917,0.0,0.0,0.0,0.0,0.0,0.0,0.0,0.0,0.0,0.0,0.0,0.0,0.0,0.0,0.0,0.0,0.0,0.0,0.0,0.0,0.0,0.0,0.0,0.0,0.0,0.0,0.0,0.0,0.0,0.0,0.0,0.0,0.0,0.0,0.0,0.0,0.0,0.0,0.0,0.0,0.0,3.5899,3.6009,3.6083,3.6273,3.631,3.6229,3.6046,3.6009,3.5795,3.5256,3.5303,0.0,0.0,0.0,0.0,0.0,0.0,0.0,0.0,0.0,0.0,0.0,0.0,0.0,0.0,0.0,0.0,0.0,0.0,0.0,0.0,0.0,0.0,0.0,0.0,0.0,0.0,0.0,0.0,0.0,0.0,0.0,0.0,0.0,0.0,0.0,0.0,0.0,0.0,0.0,0.0,0.0,0.0,0.0,0.0,0.0,0.0,0.0,0.0,0.0,0.0,0.0,0.0,0.0,0.0,0.0,0.0,0.0,0.0,0.0,0.0,3.4981,0.0,0.0,0.0,0.0,0.0,0.0,0.0,0.0,0.0,0.0,0.0,0.0,0.0,0.0,0.0,0.0,0.0,0.0,0.0,0.0,0.0,0.0,0.0,0.0,0.0,0.0,0.0,0.0,0.0,0.0,0.0,0.0,0.0,0.0,0.0,0.0,0.0,0.0,0.0,0.0,3.6787,3.6861,3.7008,3.7404,3.7441,3.7294,3.6898,3.6861,3.6573,3.591,3.5999,0.0,0.0,0.0,0.0,0.0,0.0,0.0,0.0,0.0,0.0,0.0,0.0,0.0,0.0,0.0,0.0,0.0,0.0,0.0,0.0,0.0,0.0,0.0,0.0,0.0,0.0,0.0,0.0,0.0,0.0,0.0,0.0,0.0,0.0,0.0,0.0,0.0,0.0,0.0,0.0,0.0,0.0,0.0,0.0,0.0,0.0,0.0,0.0,0.0,0.0,0.0,0.0,0.0,3.6736,3.6816,3.6927,3.6955,3.7036,3.711,3.7008,3.6677,3.631,3.631,0.0,0.0,0.0,0.0,0.0,0.0,0.0,0.0,0.0,0.0,0.0,0.0,0.0,0.0,0.0,0.0,0.0,0.0,0.0,0.0,0.0,0.0,0.0,0.0,3.631,3.5984,0.0,0.0,0.0,0.0,0.0,0.0,0.0,0.0,0.0,0.0,0.0,0.0,3.7603,3.7713,3.7962,3.8615,3.8681,3.8432,3.7786,3.7713,3.7375,3.6567,3.6724,3.6495,0.0,0.0,0.0,0.0,0.0,0.0,0.0,0.0,0.0,0.0,0.0,0.0,0.0,0.0,0.0,0.0,0.0,0.0,0.0,0.0,0.0,0.0,0.0,0.0,0.0,0.0,0.0,0.0,0.0,0.0,0.0,0.0,3.6467,3.6016,0.0,0.0,0.0,0.0,0.0,0.0,0.0,0.0,0.0,0.0,0.0,0.0,0.0,3.8395,3.8395,3.8395,3.8395,3.8388,3.8564,3.8925,3.9415,3.9618,3.9979,4.0443,3.9717,0.0,3.631,3.631,0.0,0.0,0.0,0.0,0.0,0.0,0.0,0.0,0.0,0.0,0.0,0.0,0.0,0.0,0.0,0.0,0.0,0.0,0.0,0.0,0.0,0.0,3.631,3.631,3.631,3.6244,0.0,3.6008,3.5994,3.6036,3.6082,0.0,0.0,0.0,0.0,0.0,0.0,0.0,3.8432,3.8542,3.8579,3.8681,3.8681,3.8652,3.8542,3.8542,3.8219,3.7382,3.7353,3.7142,3.6577,3.659,0.0,0.0,0.0,0.0,0.0,0.0,0.0,0.0,0.0,0.0,0.0,0.0,0.0,0.0,0.0,0.0,0.0,0.0,0.0,0.0,0.0,0.0,0.0,0.0,0.0,0.0,0.0,0.0,0.0,3.7121,3.72,3.6679,3.696,3.7192,0.0,0.0,0.0,0.0,0.0,0.0,0.0,0.0,0.0,3.8483,3.887,3.9076,3.9076,3.9076,3.9076,3.9103,3.9168,3.9365,3.9625,3.9713,4.0072,4.0552,4.0225,3.9649,3.8938,3.8021,3.7661,3.7588,0.0,0.0,0.0,0.0,3.631,3.631,3.631,3.631,0.0,3.631,0.0,0.0,0.0,0.0,0.0,0.0,0.0,0.0,0.0,0.0,3.7661,3.7661,3.7661,3.7661,3.7661,3.7661,3.7367,0.0,3.6677,3.6978,3.6978,0.0,0.0,0.0,0.0,3.8285,3.8644,3.8681,3.8681,3.8681,3.8681,3.8681,3.8681,3.8681,3.8542,3.8219,3.8182,3.7882,3.7193,3.7303,3.7281,0.0,0.0,0.0,0.0,0.0,0.0,0.0,0.0,0.0,0.0,0.0,0.0,0.0,0.0,0.0,0.0,0.0,0.0,0.0,0.0,0.0,0.0,0.0,0.0,0.0,0.0,0.0,0.0,3.7304,3.735,3.6845,3.6786,3.6856,0.0,0.0,0.0,0.0,0.0,0.0,3.756,3.8068,3.8531,3.8853,3.9418,3.9751,3.9963,3.9963,3.9963,3.9953,4.0028,4.0144,4.0256,4.0331,4.0678,4.1154,4.0938,4.1121,4.1423,3.9934,3.9305,3.9232,3.8652,3.8403,3.8366,3.7734,3.7514,3.7514,3.7514,3.7514,3.7477,3.7301,0.0,3.6927,3.6927,0.0,0.0,0.0,0.0,3.786,3.8043,3.855,3.9056,3.9268,3.9305,3.9305,3.9305,3.9305,3.8828,0.0,3.7412,3.7815,3.7815,0.0,0.0,0.0,0.0,3.8681,3.8681,3.8681,3.8681,3.8681,3.8681,3.8681,3.8681,3.8681,3.8681,3.8681,3.8681,3.8432,3.7815,3.799,3.7873,3.7303,0.0,0.0,0.0,0.0,0.0,0.0,0.0,0.0,0.0,0.0,0.0,0.0,0.0,0.0,0.0,0.0,0.0,0.0,0.0,0.0,0.0,0.0,0.0,0.0,0.0,0.0,0.0,0.0,0.0,3.5733,3.57,0.0,0.0,0.0,0.0,3.7802,3.787,3.8048,3.8508,3.8564,3.9129,4.0334,4.0415,4.0793,4.1476,4.1487,4.1487,4.1476,4.1743,4.2149,4.2659,4.2892,4.3289,4.3761,4.3008,4.2701,4.2633,4.146,4.0993,4.0993,4.0912,4.092,4.0912,4.0883,4.0838,4.0838,4.0838,4.0838,4.0736,3.9974,3.9203,3.8579,3.8579,3.8579,0.0,0.0,3.8615,3.8836,3.9578,3.9798,4.001,4.081,4.0993,4.0993,4.0993,4.0993,4.0508,0.0,3.8608,3.8652,3.8652,0.0,3.8681,3.8681,3.8681,3.8681,3.8681,3.8681,3.8681,3.8681,3.8681,3.8681,3.8681,3.8681,3.8681,3.8681,3.8681,3.8689,3.8644,3.8667,3.8752,3.8968,3.8267,0.0,0.0,0.0,0.0,0.0,0.0,0.0,0.0,0.0,0.0,0.0,0.0,0.0,0.0,0.0,0.0,0.0,0.0,0.0,0.0,0.0,0.0,0.0,0.0,0.0,0.0,0.0,0.0,3.6446,3.6806,0.0,3.7483,3.7516,3.7821,3.8531,3.8599,3.8899,3.9525,4.0002,4.0497,4.0932,4.1413,4.179,4.2031,4.2065,4.2065,4.2065,4.2159,4.2287,4.2468,4.2574,4.2931,4.3486,4.3195,4.3267,4.3538,4.3123,4.2072,4.074,4.1134,4.098,4.057,4.0951,4.1095,4.1095,4.1095,4.1095,4.1058,4.0773,4.0479,4.0259,4.0259,4.0259,4.0259,4.0259,4.0259,4.0296,4.0589,4.0663,4.0736,4.103,4.1095,4.1095,4.1095,4.1095,4.0912,4.0369,3.9827,3.9313,3.8799,3.8681,3.8681,3.8681,3.8681,3.8681,3.8681,3.8681,3.8681,3.8681,3.8681,3.8681,3.8681,3.8681,3.8681,3.8681,3.8681,3.8681,3.8681,3.8681,3.875,3.8826,3.8727,3.8833,0.0,0.0,0.0,0.0,0.0,0.0,0.0,0.0,0.0,0.0,0.0,0.0,0.0,0.0,0.0,0.0,0.0,0.0,0.0,0.0,0.0,0.0,0.0,0.0,0.0,0.0,3.7615,3.7541,3.7956,3.8464,3.8971,3.8993,3.9309,4.0066,4.01,4.0438,4.1183,4.1677,4.2172,4.2679,4.32,4.3572,4.3822,4.3822,4.3822,4.3822,4.3822,4.3822,4.3822,4.3822,4.4021,4.44,4.416,4.4255,4.4563,4.4296,4.3123,4.1522,4.2054,4.2099,4.1863,4.2268,4.2535,4.2718,4.2718,4.2535,4.2278,4.1984,4.1727,4.147,4.1168,4.1095,4.1095,4.1095,4.1095,4.1168,4.1434,4.1507,4.158,4.1837,4.1911,4.1911,4.1911,4.1911,4.1837,4.1544,4.0855,4.0157,3.9599,3.9525,3.9525,3.9525,3.9525,3.9525,3.9525,3.9525,3.9525,3.9525,3.9525,3.9415,3.9129,3.9093,3.8982,3.8718,3.8681,3.8681,3.8681,3.8681,3.8681,3.8681,3.8877,3.9117,3.9426,0.0,0.0,0.0,0.0,0.0,0.0,0.0,0.0,0.0,0.0,0.0,0.0,0.0,0.0,0.0,0.0,0.0,0.0,0.0,0.0,0.0,0.0,0.0,3.6863,3.7483,3.8261,3.8983,3.9119,3.9681,4.1136,4.1305,4.161,4.2367,4.2401,4.2726,4.3457,4.3524,4.4201,4.5703,4.5722,4.6075,4.6786,4.68,4.68,4.68,4.68,4.68,4.68,4.68,4.68,4.6752,4.6041,4.5722,4.5669,4.4973,4.4215,4.3545,4.3895,4.4391,4.4931,4.5008,4.5367,4.5883,4.5883,4.5406,4.4626,4.3836,4.3065,4.2286,4.1507,4.125,4.125,4.125,4.125,4.1434,4.2213,4.2396,4.2616,4.3396,4.3579,4.3579,4.3579,4.3579,4.3322,4.2543,4.1764,4.1213,4.1132,4.1095,4.1095,4.1095,4.1095,0.0,4.1095,4.1095,4.1095,4.1095,4.1095,4.0773,4.0018,3.9945,3.9614,3.8836,3.8755,3.8726,3.8726,3.8726,3.8681,3.8681,3.8696,3.8826,3.9087,0.0,0.0,0.0,0.0,0.0,0.0,0.0,0.0,0.0,0.0,0.0,0.0,0.0,0.0,0.0,0.0,0.0,0.0,0.0,0.0,0.0,0.0,3.9017,3.8476,3.9017,3.9762,4.0527,4.1529,4.2341,4.2746,4.3335,4.3958,4.4722,4.4756,4.5094,4.5838,4.5872,4.6075,4.6481,4.6481,4.6583,4.68,4.68,4.68,4.68,4.68,4.68,4.68,4.68,4.68,4.68,4.6597,4.6481,4.6481,4.6293,4.6041,4.5755,4.4647,4.3986,4.3804,4.4681,4.5367,4.5883,4.5883,4.5773,4.5516,4.5296,4.5076,4.4856,4.4635,4.4599,4.4599,4.4599,4.4599,4.4635,4.4856,4.4892,4.4966,4.5186,4.5232,4.5232,4.5232,4.5232,4.5149,4.4966,4.4745,4.3819,4.1507,4.1095,4.1095,4.1095,4.1095,0.0,4.1095,4.1095,4.1095,4.1095,4.1095,4.103,4.0773,4.0773,4.0663,4.0443,3.99,3.9578,3.9578,3.9019,3.8681,3.8681,3.8898,3.9022,0.0,0.0,0.0,0.0,0.0,0.0,0.0,0.0,0.0,0.0,0.0,0.0,0.0,0.0,0.0,0.0,0.0,0.0,0.0,0.0,0.0,0.0,4.0743,4.1081,4.1318,4.1407,4.1792,4.2523,4.366,4.4471,4.4776,4.5229,4.5717,4.6143,4.6143,4.6481,4.7225,4.7259,4.7394,4.7699,4.7699,4.7699,4.7699,4.7699,4.7699,4.7699,4.7699,4.7699,4.7699,4.7699,4.7699,0.0,4.7394,4.7259,4.7259,4.6921,4.68,0.0,0.0,0.0,0.0,0.0,4.5799,4.6127,4.6127,4.6127,4.6085,4.6025,4.603,4.5996,4.5929,4.5883,4.5883,4.5883,4.5883,4.5883,4.5883,4.5883,4.5883,4.5883,4.5883,4.5883,4.5883,4.5883,4.5883,4.5883,4.5883,0.0,4.3415,4.2828,4.2498,4.2168,4.2094,4.2094,4.2094,4.2094,4.2094,4.2094,4.2094,4.1984,4.1617,4.1617,0.0,0.0,0.0,4.0414,4.0414,3.9643,0.0,0.0,0.0,3.8926,3.8926,0.0,0.0,0.0,3.963,3.9893,0.0,0.0,0.0,0.0,0.0,0.0,0.0,0.0,0.0,0.0,0.0,0.0,0.0,0.0,0.0,0.0,4.2638,4.3179,4.4635,4.4316,4.4133,4.477,4.55,4.621,4.6853,4.6989,4.7056,4.7056,4.7056,4.7327,4.7988,0.0,0.0,0.0,0.0,4.9018,4.9018,4.9018,4.9018,4.9018,4.9018,4.9018,4.9018,4.9018,4.9018,4.8951,4.8293,4.8022,4.7988,4.7327,4.7056,4.7022,4.6853,4.6772,4.6725,4.6592,4.6601,4.666,4.666,0.0,0.0,4.6543,4.6504,4.655,4.6258,4.6177,4.6177,4.6177,4.6177,4.6177,4.6177,4.6177,4.6177,4.6177,4.6177,4.6177,4.6177,4.6177,4.6177,4.6177,4.6177,4.614,4.6067,4.536,4.4599,4.3873,4.3763,4.3726,4.3653,4.3653,4.3616,4.3506,0.0,0.0,4.2506,4.2433,4.2139,4.1434,4.1287,4.1177,4.1095,4.0414,4.0055,4.0055,3.935,3.8975,3.8975,3.8975,3.8975,3.9006,3.9643,3.9962,0.0,0.0,0.0,0.0,0.0,0.0,0.0,0.0,0.0,0.0,0.0,0.0,0.0,0.0,0.0,4.3992,4.4654,4.5365,4.6259,4.6737,4.6872,4.6428,4.7022,4.7515,4.7684,4.824,4.8578,4.8578,4.8578,4.8646,4.8781,4.8781,4.8849,4.9018,4.9018,4.9018,4.9018,4.9018,4.9018,4.9018,0.0,0.0,4.9018,4.9018,4.9018,4.8984,4.8849,4.8781,4.8781,4.8646,4.8578,4.8477,4.7259,4.7065,4.7498,4.7459,4.7796,4.8263,4.8263,4.8615,4.8962,4.826,4.8467,4.8812,4.8057,4.7819,0.0,4.7819,4.7819,4.7819,4.7819,4.7819,4.7819,4.7819,4.7819,4.7819,4.7819,4.7819,4.7819,4.7819,4.7819,4.7636,4.6975,4.6205,4.5626,4.5443,4.5443,4.5186,4.4553,4.448,4.4232,4.3579,4.3506,4.3433,4.3286,4.3286,4.3212,4.3065,4.2433,4.1764,4.1132,4.0956,4.0883,4.0883,4.0736,4.0618,4.0618,4.0618,4.0618,4.0626,3.9505,3.9087,0.0,0.0,0.0,0.0,0.0,0.0,0.0,0.0,0.0,0.0,0.0,4.2557,0.0,0.0,4.479,4.5582,4.6312,4.694,4.7293,4.7988,4.8191,4.7428,4.8003,4.8462,4.8462,4.8781,4.9018,4.9018,4.9018,4.9018,4.9018,4.9018,4.9018,4.9018,4.9018,4.9018,4.9018,4.9018,4.9018,4.9018,4.9018,4.9018,4.9018,4.9018,4.9018,4.9018,4.9018,4.9018,4.9018,4.9018,4.9018,4.8951,4.8173,4.7855,4.7766,4.739,4.7458,4.774,4.774,4.7983,4.8233,4.8139,4.8341,4.8707,4.8937,4.9008,4.8998,4.8962,4.894,4.8857,4.8416,4.8296,4.8296,4.8296,4.8296,4.8296,4.8296,4.8296,4.8296,4.8296,4.8296,4.8186,4.7783,4.7379,4.6838,4.603,4.5883,4.5736,4.5369,4.5296,4.5002,4.4195,4.4085,4.3938,4.3543,4.3506,4.3506,4.3506,4.3139,4.2727,4.2323,4.1911,4.169,4.169,4.1323,4.1095,4.1095,4.1095,4.1095,4.1058,4.0296,4.008,0.0,0.0,0.0,0.0,0.0,0.0,0.0,0.0,4.1847,4.2604,4.3335,4.4099,4.4871,4.5635,4.6297,4.6921,4.7616,4.8124,4.8124,4.8631,4.8781,4.8191,4.8631,4.9018,4.9018,4.9018,4.9018,4.9018,4.9018,4.9018,4.9018,4.9018,4.9018,4.9018,4.9018,4.9018,4.9018,4.9018,4.9018,4.9018,4.9018,4.9018,4.9018,4.9018,4.9018,4.9018,4.9018,4.9018,4.9018,4.9018,4.9018,4.9018,4.9018,4.8631,4.8056,4.7462,4.724,4.724,4.724,4.7295,4.7496,4.781,4.8089,4.8491,4.9423,4.9812,4.9902,4.9838,4.9821,4.9674,4.8967,4.8783,4.8783,4.8783,4.8783,4.8737,4.86,4.8563,4.8489,4.8333,4.8296,4.8296,4.8296,4.8296,4.7865,4.6544,4.6361,4.6324,4.614,4.614,4.581,4.503,4.492,4.4672,4.402,4.3983,4.391,4.3726,4.3726,4.3653,4.3506,4.2882,4.2543,4.2543,4.1911,4.158,4.158,4.158,4.158,4.158,4.158,4.1538,4.0113,4.0574,4.1068,4.1068,4.1576,4.2097,0.0,0.0,4.3389,4.4161,4.4925,4.5669,4.6428,4.7158,4.7684,4.7752,4.8394,4.8883,4.8883,4.8951,4.8984,4.8883,4.8951,4.9018,4.9018,4.9018,4.9018,4.9018,4.9018,4.9018,4.9018,4.9018,4.9018,4.9018,4.9018,4.9018,4.9018,4.9018,4.9018,4.9018,4.9018,4.9018,4.9018,4.9018,4.9018,4.9018,4.9018,4.9018,4.9018,4.9018,4.9018,4.9018,4.9018,4.8951,4.8883,4.8781,4.8748,4.8748,4.8748,4.9133,4.9545,4.8896,4.9533,5.0436,4.9868,5.0144,5.0684,5.0672,5.0655,5.0655,5.0545,5.0508,5.0508,5.0508,5.0508,5.0325,4.9601,4.9454,4.9233,4.8443,4.8296,4.8296,4.8296,4.8296,4.8223,4.8039,4.8039,4.7783,4.7049,4.6966,4.6645,4.5847,4.5773,4.5736,4.5626,4.5626,4.5333,4.4626,4.4553,4.4268,4.3543,4.3396,4.3359,4.3359,4.3286,4.3212,4.3212,4.3212,4.3212,4.3212,4.3212,4.2495,4.1251,4.1623,4.1948,4.2374,4.2713,4.32,4.4079,4.4505,4.4959,4.5717,4.6481,4.7075,4.738,4.8022,4.8529,0.0,4.8815,4.9018,4.9018,4.9018,4.9018,4.9018,4.9018,4.9018,4.9018,4.9018,4.9018,4.9018,4.9018,4.9018,4.9018,4.9018,4.9018,4.9018,4.9018,4.9018,4.9018,4.9018,4.9018,4.9018,4.9018,4.9018,4.9018,4.9018,4.9018,4.9018,4.9018,4.9018,4.9018,4.9018,4.9018,4.9018,4.9018,4.9018,4.9018,4.9018,4.9018,4.9018,4.9018,4.9165,4.9368,4.9046,4.9312,4.9811,4.9851,5.0069,5.0313,5.0306,5.0268,5.016,4.9693,4.9881,5.0144,5.0144,5.0483,5.0729,5.0362,5.0298,5.0178,4.9848,4.937,4.905,4.905,4.8636,4.8296,4.8296,4.8296,4.8186,4.7856,4.7783,4.7489,4.6682,4.6177,4.5883,4.5883,4.5883,4.5773,4.5406,4.5406,4.5259,4.4901,4.4901,4.4672,4.4195,4.4195,4.3983,4.3506,4.3506,4.3506,4.3506,4.3506,4.3139,4.2388,4.2773,4.3112,4.3862,4.4201,4.464,4.5737,4.6162,4.6481,4.6989,4.7699,4.8191,4.8191,4.8631,4.9018,4.9018,4.9018,4.9018,4.9018,4.9018,4.9018,4.9018,4.9018,4.9018,4.9018,4.9018,4.9018,4.9018,4.9018,4.9018,4.9018,4.9018,4.9018,4.9018,4.9018,4.9018,4.9018,4.9018,4.9018,4.9018,4.9018,4.9018,4.9018,4.9018,4.9018,4.9018,4.9018,4.9018,4.9018,4.9018,4.9018,4.9018,4.9018,4.9018,4.9018,4.9018,4.9018,4.9018,4.9018,4.9018,4.9018,4.9018,4.9138,4.9376,4.9833,5.016,5.0299,5.0232,5.0233,5.0092,4.9513,4.9732,5.0091,5.0091,5.0644,5.1114,5.0895,5.0983,5.1059,5.0839,5.0335,4.9931,4.9931,4.9407,4.892,4.8673,4.8673,4.8563,4.8333,4.8296,4.8076,4.748,4.6902,4.6544,4.6544,4.6544,4.6471,4.625,4.625,4.614,4.592,4.5883,4.5626,4.503,4.503,4.4745,4.4167,4.4167,4.4167,4.4167,4.4167,4.4167,4.3152,4.3944,4.4702,4.5466,4.6177,4.6733,4.6752,4.7327,4.7853,4.7853,4.8462,4.8984,4.8984,4.8984,4.9018,4.9018,4.9018,4.9018,4.9018,4.9018,4.9018,4.9018,4.9018,4.9018,0.0,4.9018,4.9018,4.9018,4.9018,4.9018,4.9018,4.9018,4.9018,4.9018,4.9018,4.9018,4.9018,4.9018,4.9018,4.9018,4.9018,4.9018,4.9018,4.9018,4.9018,4.9018,4.9018,4.9018,4.9018,4.9018,4.9018,4.9018,4.9018,4.9018,4.9018,4.9018,4.9018,4.9018,4.9018,4.9018,4.9018,4.9018,4.9432,4.9976,4.999,5.0486,5.1073,5.1051,5.1063,5.1063,5.1015,5.1041,5.1054,5.1054,5.1559,5.1847,5.1053,5.1439,5.173,5.0949,5.0765,5.0765,5.0765,5.0729,5.0472,4.9674,4.9574,4.927,4.8416,4.8296,4.8296,4.826,4.8223,4.8223,4.8223,4.8223,4.7893,4.7113,4.7076,4.6718,4.592,4.5883,4.5883,4.5847,4.5847,4.5847,4.581,4.581,4.581,4.581,4.581,4.581,4.4722,4.5466,4.6244,4.6974,4.7346,4.7665,4.8139,4.8443,4.8631,4.8631,4.8834,4.9018,4.9018,4.9018,4.9018,4.9018,4.9018,4.9018,4.9018,4.9018,4.9018,4.9018,4.9018,0.0,0.0,0.0,0.0,4.9018,4.9018,4.9018,4.9018,4.9018,4.9018,4.9018,4.9018,4.9018,4.9018,4.9018,4.9018,4.9018,4.9018,4.9018,4.9018,4.9018,4.9018,4.9018,4.9018,4.9018,4.9018,4.9018,4.9018,4.9018,4.9018,4.9018,4.9018,4.9018,4.9018,4.9018,4.9018,4.9018,4.9018,4.9018,4.9168,4.9346,4.9346,4.9506,4.9727,4.9727,4.9727,4.9727,4.9727,5.0033,5.0362,5.0362,5.0916,5.1485,5.1658,5.1878,5.2137,5.2333,5.1977,5.161,5.161,5.1169,5.0729,5.0435,4.9444,4.8636,4.8333,4.8296,4.8296,4.8296,4.8296,4.8296,4.8296,4.8296,4.8186,4.7893,4.7893,4.7783,4.7498,4.7489,4.7232,4.6718,4.6718,4.6425,4.5883,4.5883,4.5883,4.5883,4.5883,4.5883,4.6312,4.6819,4.7361,4.809,4.8293,4.8428,4.8883,4.9018,4.9018,4.9018,4.9018,4.9018,4.9018,4.9018,4.9018,4.9018,4.9018,4.9018,4.9018,4.9018,4.9018,4.9018,4.9018,4.9018,0.0,0.0,0.0,4.9018,4.9018,4.912,4.939,4.939,4.9526,4.9781,4.9796,4.9661,4.939,4.939,4.9255,4.9018,4.9018,4.9018,4.9018,4.9018,4.9018,4.9018,4.9018,4.9018,4.9018,4.9018,4.9018,4.9018,4.9018,4.9018,4.9018,4.9018,4.9018,4.9018,4.9018,4.9018,4.9018,4.9018,4.9018,4.9018,4.9018,4.9018,4.9018,4.9018,4.9018,4.9018,4.9018,4.9492,5.0004,5.0004,5.0756,5.1569,5.2018,5.2312,5.2621,5.3103,5.2774,5.2417,5.2417,5.1756,5.1242,5.1242,5.0068,4.9077,4.8783,4.8746,4.8636,4.8333,4.8296,4.8296,4.8296,4.8296,4.8296,4.8296,4.8296,4.8296,4.8296,4.8296,4.8076,4.7553,4.7526,4.7269,4.6764,4.6764,4.6764,4.6764,4.6764,4.6764,4.7718,4.7921,4.8124,4.8849,4.9018,4.9018,4.9018,4.9018,4.9018,4.9018,4.9018,4.9018,0.0,0.0,4.9018,4.9018,4.9018,4.9018,4.9018,4.9018,4.9018,0.0,0.0,0.0,0.0,0.0,0.0,4.912,0.0,4.939,5.0117,5.015,5.0473,5.1167,5.1201,5.0863,5.015,5.0117,4.9729,4.9052,4.9018,4.9018,4.9018,4.9018,4.9018,4.9018,4.9018,4.9018,4.9018,4.9018,4.9018,4.9018,4.9018,4.9018,4.9018,4.9018,4.9018,4.9018,4.9018,4.9018,4.9018,4.9018,4.9018,4.9018,4.9018,4.9018,4.9018,4.9018,4.9018,4.9018,4.9018,4.9477,4.9962,4.999,5.0998,5.203,5.2089,5.2633,5.3146,5.3167,5.3214,5.3214,5.3214,5.2564,5.206,5.206,5.1426,5.0618,4.9747,4.9637,4.9344,4.8526,4.8443,4.8406,4.8379,4.8379,4.8343,4.8296,4.8296,4.8296,4.8296,4.8296,4.8296,4.8296,4.8296,4.8296,4.8296,4.8296,4.8296,4.8296,4.8296,4.8296,4.7853,4.8293,4.8766,4.8951,4.9018,4.9018,4.9018,4.9018,4.9018,4.9018,4.9018,4.9018,0.0,0.0,0.0,4.9018,4.9018,0.0,4.9018,4.9018,0.0,4.9018,0.0,4.983,4.983,5.0338,0.0,0.0,5.0135,5.0135,5.0863,5.0897,5.0998,5.1201,5.1201,5.11,5.0897,5.0371,5.0015,4.9796,4.9255,4.9018,4.9018,4.9018,4.9018,4.9018,4.9018,4.9018,4.9018,4.9018,4.9018,4.9018,4.9018,4.9018,4.9018,4.9018,4.9018,4.9018,4.9018,4.9018,4.9018,4.9018,4.9018,4.9018,4.9018,4.9018,4.9018,4.9018,4.9018,4.9018,4.9018,4.9138,4.9357,4.9876,5.0265,5.0836,5.1862,5.2229,5.2554,5.3092,5.3214,5.3214,5.3214,5.3031,5.2884,5.2884,5.27,5.2076,5.0655,5.0472,5.0398,5.0178,5.0178,4.9921,4.9307,4.927,4.8976,4.8333,4.8296,4.8296,4.8296,4.8296,4.8296,4.8296,4.8296,4.8296,4.8296,4.8296,4.8296,4.8296,4.8296,4.8296,4.836,4.8665,4.9018,4.9018,4.9018,4.9018,4.9018,4.9018,4.9018,4.9018,4.9018,4.9018,4.9018,4.9018,4.9018,0.0,0.0,0.0,4.9018,4.9018,4.912,0.0,4.9846,0.0,5.0541,5.0964,5.1336,0.0,5.1014,5.0913,5.1641,5.1674,5.1844,5.2182,5.2216,5.2046,5.1674,5.0947,5.0405,5.0117,4.9661,4.9323,4.9018,4.9018,4.9018,4.9018,0.0,4.9018,4.9018,4.9018,4.9018,4.9018,4.9018,4.9018,4.9018,4.9018,4.9018,4.9018,4.9018,4.9018,4.9018,4.9018,4.9018,4.9018,4.9018,4.9018,4.9018,4.9018,4.9018,4.9018,4.9018,4.9211,4.9536,4.9904,5.0472,5.1164,5.191,5.2358,5.2714,5.3114,5.3214,5.3214,5.3214,5.3214,5.3214,5.3214,5.3214,5.2884,5.1966,5.1536,5.1206,5.0839,5.0802,5.0618,5.0188,5.0115,4.9921,4.9444,4.9407,4.926,4.8893,4.8857,4.8673,4.8296,4.8296,4.8296,4.8296,4.8296,4.8296,4.8296,4.8296,4.8296,4.9018,4.9018,4.9018,4.9018,4.9018,4.9018,4.9018,4.9018,4.9018,4.9018,4.9018,4.9018,4.9018,4.9018,4.9018,4.9018,0.0,4.9018,4.9018,4.9018,4.9255,5.0015,5.0184,5.0541,5.1269,5.1438,5.1776,5.2401,5.1877,5.1776,5.2435,5.2469,5.2773,5.3484,5.3518,5.3179,5.2469,5.1708,5.098,5.0236,5.015,4.9695,4.9018,4.9018,4.9018,4.9018,4.9018,0.0,4.9018,4.9018,4.9018,4.9018,4.9018,4.9018,4.9018,4.9018,4.9018,4.9018,4.9018,4.9018,4.9018,4.9018,4.9018,4.9018,4.9018,4.9018,4.9018,4.9018,4.9018,4.9018,4.9018,4.9417,4.9876,4.9976,5.0955,5.1838,5.1958,5.2543,5.3092,5.3193,5.3214,5.3214,5.3214,5.3214,5.3214,5.3214,5.3214,5.3214,5.3214,5.2601,5.1903,5.1206,5.1132,5.1096,5.0986,5.0949,5.0912,5.0802,5.0802,5.0472,4.9784,4.9747,4.9417,4.8636,4.8627,4.8627,4.8627,4.8526,4.8489,4.8489,4.8333,4.8296,4.9018,4.9018,4.9018,4.9018,4.9018,4.9018,4.9018,4.9018,0.0,4.9018,4.9018,4.9018,4.9018,4.9018,4.9018,4.9018,4.9018,4.9018,4.9018,4.9018,4.9255,0.0,5.0642,5.1302,5.2063,5.2706,0.0,0.0,0.0,5.3179,5.3281,5.3281,5.3382,5.3518,5.3518,5.345,5.3281,5.2503,5.1758,5.0998,5.0405,4.9695,4.9018,4.9018,4.9018,4.9018,4.9018,0.0,4.9018,4.9018,4.9018,4.9018,4.9018,4.9018,4.9018,4.9018,4.9018,4.9018,4.9018,4.9018,4.9018,4.9018,4.9018,4.9018,4.9018,4.9018,4.9018,4.9018,4.9018,4.9018,4.9018,4.9092,4.9316,4.9945,5.0216,5.054,5.1151,5.1825,5.245,5.3082,5.3214,5.3214,5.3214,5.3214,5.3214,5.3214,5.3214,5.3214,5.3214,5.3067,5.2957,5.281,5.2774,5.2517,5.184,5.1803,5.1499,5.0839,5.0802,5.0729,5.0618,5.0582,5.0508,5.0362,5.0362,5.0362,5.0362,4.9711,4.938,4.9344,4.8636,4.8296,4.9018,4.9018,4.9018,4.9018,4.9018,4.9018,4.9018,0.0,0.0,4.9018,4.9018,4.9018,4.9018,4.9018,4.9018,4.9018,4.9018,4.9018,4.9018,4.9018,4.9424,5.0541,5.0964,5.1641,0.0,5.3281,0.0,0.0,0.0,5.3518,5.3518,5.3518,5.3518,5.3518,5.3518,5.3518,5.3518,5.3112,5.2536,5.1742,5.1014,5.0304,4.956,4.9187,4.9018,4.9018,4.9018,0.0,4.9018,4.9018,4.9018,4.9018,4.9018,4.9018,4.9018,4.9018,4.9018,4.9018,4.9018,4.9018,4.9018,4.9018,4.9018,4.9018,4.9018,4.9018,4.9018,4.9018,4.9018,4.9018,4.9018,4.9018,4.9077,4.9436,4.9751,5.039,5.1874,5.2124,5.2324,5.3071,5.3214,5.3214,5.3214,5.3214,5.3214,5.3214,5.3214,5.3214,5.3214,5.3214,5.3214,5.3214,5.3214,5.3031,5.2674,5.2637,5.2454,5.2076,5.204,5.1867,5.1426,5.1426,5.1242,5.0802,5.0802,5.0802,5.0802,5.0398,5.0225,5.0215,4.9811,4.9581,4.9018,4.9018,4.9018,4.9018,4.9018,4.9018,4.9018,4.9018,4.9018,4.9018,4.9018,4.9018,4.9018,4.9018,4.9018,4.9018,4.9018,4.9018,4.9018,4.9018,4.956,0.0,5.1201,0.0,5.3348,0.0,0.0,0.0,0.0,0.0,5.3518,5.3518,5.3518,5.3518,5.3518,5.3518,5.3518,5.3518,5.3112,5.23,5.1708,5.098,5.0083,4.9492,4.9154,4.9018,4.9018,0.0,0.0,4.9018,4.9018,4.9018,4.9018,4.9018,4.9018,4.9018,4.9018,4.9018,4.9018,4.9018,4.9018,4.9018,4.9018,4.9018,4.9018,4.9018,4.9018,4.9018,4.9018,4.9015,4.9199,4.9107,4.9018,4.9018,4.9521,5.05,5.236,5.2393,5.2324,5.3071,5.3214,5.3214,5.3214,5.3214,5.3214,5.3214,5.3214,5.3214,5.3214,5.3214,5.3214,5.3214,5.3214,5.3214,5.3214,5.3214,5.3214,5.3214,5.3214,5.292,5.227,5.227,5.1977,5.1342,5.1316,5.1316,5.1316,5.1132,5.1059,5.1059,5.0875,5.0802,4.9018,4.9018,4.9018,4.9018,4.9018,4.9018,4.9018,0.0,4.9018,4.9018,4.9018,4.9018,4.9018,4.9018,4.9018,4.9018,4.9018,4.9018,4.9018,4.9018,4.956,5.1032,0.0,0.0,0.0,0.0,0.0,0.0,0.0,0.0,5.3518,5.3518,5.3518,5.3518,5.3518,5.3518,5.3518,5.3518,5.3112,5.23,5.2232,5.1454,5.0117,5.0049,4.9627,4.9018,4.9018,0.0,0.0,4.9018,4.9018,4.9018,4.9018,4.9018,4.9018,4.9018,4.9018,4.9018,4.9018,4.9018,4.9018,4.9018,4.9018,4.9018,4.9018,4.9018,4.9018,4.9018,4.9018,4.9153,4.9751,4.9447,4.9018,4.9018,4.9521,5.0223,5.1099,5.1704,5.2324,5.3071,5.3214,5.3214,5.3214,5.3214,5.3214,5.3214,5.3214,5.3214,5.3214,5.3214,5.3214,5.3214,5.3214,5.3214,5.3214,5.3214,5.3214,5.3214,5.3214,5.3177,5.3104,5.3104,5.3067,5.2994,5.2994,5.2994,5.2994,5.2234,5.1877,5.1877,5.1132,5.0802,4.8883,4.9018,4.9018,4.9018,4.9018,4.9018,4.9018,0.0,4.9018,4.9018,4.9018,4.9018,4.9018,4.9018,4.9018,4.9018,4.9018,4.9018,4.9018,4.9018,4.956,5.1032,5.1201,0.0,0.0,0.0,0.0,0.0,0.0,0.0,5.3518,5.3518,5.3518,5.3518,5.3518,5.3518,5.3518,5.3518,5.3348,5.301,5.2536,5.1758,5.0744,5.0304,4.9695,4.9018,4.9018,0.0,0.0,4.9018,4.9018,4.9018,4.9018,4.9018,4.9018,4.9018,4.9018,4.9018,4.9018,4.9018,4.9018,4.9018,4.9018,4.9018,4.9018,4.9018,4.9018,4.9018,4.9018,4.9061,4.9331,4.9506,4.9824,5.0662,5.077,5.0968,5.2125,5.2231,5.2324,5.3071,5.3214,5.3214,5.3214,5.3214,5.3214,5.3214,5.3214,5.3214,5.3214,5.3214,5.3214,5.3214,5.3214,5.3214,5.3214,5.3214,5.3214,5.3214,5.3214,5.3214,5.3214,5.3214,5.3214,5.3214,5.3214,5.3214,5.3214,5.2884,5.2711,5.2711,5.237,5.2223,4.8529,4.8834,4.9018,4.9018,4.9018,4.9018,4.9018,0.0,4.9018,4.9018,4.9018,4.9018,4.9018,4.9018,4.9018,4.9018,4.9018,4.9018,4.9018,4.9018,4.956,0.0,0.0,0.0,0.0,0.0,0.0,0.0,0.0,0.0,5.3518,5.3518,5.3518,5.3518,5.3518,5.3518,5.3518,5.3518,5.3518,5.3484,5.2942,5.2266,5.1505,5.0777,5.0033,4.9323,4.9086,0.0,0.0,4.9018,4.9018,4.9018,4.9018,4.9018,4.9018,4.9018,4.9018,4.9018,4.9018,4.9018,4.9018,4.9018,4.9018,4.9018,4.9018,4.9018,4.9018,4.9018,4.9153,4.9241,4.9046,4.9649,5.0513,5.1269,5.1444,5.1691,5.2669,5.2633,5.2576,5.3103,5.3214,5.3214,5.3214,5.3214,5.3214,5.3214,5.3214,5.3214,5.3214,5.3214,5.3214,5.3214,5.3214,5.3214,5.3214,5.3214,5.3214,5.3214,5.3214,5.3214,5.3214,5.3214,5.3214,5.3214,5.3214,5.3214,5.3214,5.3214,5.3214,5.3214,5.3214,5.3214,4.7921,4.8428,4.9018,4.9018,4.9018,4.9018,4.9018,4.9018,4.9018,4.9018,4.9018,4.9018,4.9018,4.9018,4.9018,4.9018,4.9018,4.9018,4.9018,4.9018,4.956,0.0,0.0,0.0,0.0,0.0,0.0,0.0,0.0,0.0,5.3518,5.3518,5.3518,5.3518,5.3518,5.3518,5.3518,5.3518,5.3518,5.3518,5.3484,5.3078,5.2266,5.1505,5.0811,0.0,0.0,0.0,0.0,4.9018,4.9018,4.9018,4.9018,4.9018,4.9018,4.9018,4.9018,4.9018,4.9018,4.9018,4.9018,4.9018,4.9018,4.9018,4.9018,4.9018,4.9018,4.9018,4.9477,4.9853,4.9184,5.0019,5.0903,5.0202,5.1063,5.2101,5.2112,5.2691,5.3203,5.3214,5.3214,5.3214,5.3214,5.3214,5.3214,5.3214,5.3214,5.3214,5.3214,5.3214,5.3214,5.3214,5.3214,5.3214,5.3214,5.3214,5.3214,5.3214,5.3214,5.3214,5.3214,5.3214,5.3214,5.3214,5.3214,5.3214,5.3214,5.3214,5.3214,5.3214,5.3214,5.3214,4.7022,4.7699,4.8259,4.8259,4.8631,4.9018,4.9018,4.9018,4.9018,4.9018,4.9018,4.9018,4.9018,4.9018,4.9018,4.9018,4.9018,4.9018,0.0,0.0,0.0,5.1032,0.0,0.0,0.0,0.0,0.0,0.0,0.0,0.0,5.3518,5.3518,5.3518,5.3518,5.3518,5.3518,5.3518,5.3518,5.3518,5.3518,5.3518,5.3078,5.2266,5.1539,5.0811,0.0,0.0,0.0,0.0,4.9018,4.9018,4.9018,4.9018,4.9018,4.9018,4.9018,4.9018,4.9018,4.9018,4.9018,4.9018,4.9018,4.9018,4.9018,4.9018,4.9018,4.9018,4.9018,4.9168,4.9357,4.9605,5.0411,5.1151,5.1393,5.2148,5.2872,5.2872,5.3049,5.3214,5.3214,5.3214,5.3214,5.3214,5.3214,5.3214,5.3214,5.3214,5.3214,5.3214,5.3214,5.3214,5.3214,5.3214,5.3214,5.3214,5.3214,5.3214,5.3214,5.3214,5.3214,5.3214,5.3214,5.3214,5.3214,5.3214,5.3214,5.3214,5.3214,5.3214,5.3214,5.3214,5.3214,4.6177,4.6921,4.7481,4.7481,4.8022,0.0,4.8563,4.8815,4.9018,4.9018,4.9018,4.9018,4.9018,4.9018,4.9018,4.9018,4.9018,4.9018,0.0,0.0,0.0,5.1032,0.0,0.0,0.0,0.0,0.0,0.0,0.0,0.0,5.3518,5.3518,5.3518,5.3518,5.3518,5.3518,5.3518,5.3518,5.3518,5.3518,5.3518,5.3247,5.2739,5.1945,5.1217,0.0,0.0,0.0,0.0,4.9018,4.9018,4.9018,4.9018,4.9018,4.9018,4.9018,4.9018,4.9018,4.9018,4.9018,4.9018,4.9018,4.9018,4.9018,4.9018,4.9018,4.9018,4.9018,4.9018,4.9092,4.9521,5.016,5.0863,5.1556,5.2277,5.2872,5.3135,5.3214,5.3214,5.3214,5.3214,5.3214,5.3214,5.3214,5.3214,5.3214,5.3214,5.3214,5.3214,5.3214,5.3214,5.3214,5.3214,5.3214,5.3214,5.3214,5.3214,5.3214,5.3214,5.3214,5.3214,5.3214,5.3214,5.3214,5.3214,5.3214,5.3214,5.3214,5.3214,5.3214,5.3214,5.3214,0.0,4.6143,4.6733,4.68,4.7361,4.7921,4.7988,4.8496,0.0,4.9018,4.9018,4.9018,4.9018,4.9018,4.9018,4.9018,4.9018,0.0,0.0,4.9086,0.0,0.0,0.0,0.0,0.0,0.0,0.0,0.0,0.0,0.0,5.3518,5.3518,5.3518,5.3518,5.3518,5.3518,5.3518,5.3518,5.3518,5.3518,5.3518,5.3518,5.3484,5.2672,5.1894,0.0,0.0,0.0,0.0,4.9018,4.9018,4.9018,4.9018,4.9018,4.9018,4.9018,4.9018,4.9018,4.9018,4.9018,4.9018,4.9018,4.9018,4.9018,4.9018,4.9018,4.9018,4.9018,4.9018,4.9018,4.9018,4.9492,5.0202,5.0916,5.1606,5.2312,5.3049,5.3214,5.3214,5.3214,5.3214,5.3214,5.3214,5.3214,5.3214,5.3214,5.3214,5.3214,5.3214,5.3214,5.3214,5.3214,5.3214,5.3214,5.3214,5.3214,5.3214,5.3214,5.3214,5.3214,5.3214,5.3214,5.3214,5.3214,5.3214,5.3214,5.3214,5.3214,5.3214,5.3214,5.3214,5.3214,4.4804,0.0,4.6075,4.6665,4.7361,4.8056,0.0,4.8883,4.9018,4.9018,4.9018,4.9018,4.9018,4.9018,4.9018,4.9018,0.0,0.0,4.9018,0.0,0.0,0.0,0.0,0.0,0.0,0.0,0.0,0.0,0.0,5.3518,5.3518,5.3518,5.3518,5.3518,5.3518,5.3518,5.3518,5.3518,5.3518,5.3518,5.3518,5.3518,5.3484,5.2672,5.1894,0.0,0.0,0.0,4.9018,4.9018,4.9018,4.9018,4.9018,4.9018,4.9018,4.9018,4.9018,4.9018,4.9018,4.9018,4.9018,4.9018,4.9018,4.9018,4.9018,4.9018,4.9018,4.9018,4.9018,4.9018,4.9018,4.9492,5.0202,5.0916,5.1606,5.2312,5.3049,5.3214,5.3214,5.3214,5.3214,5.3214,5.3214,5.3214,5.3214,5.3214,5.3214,5.3214,5.3214,5.3214,5.3214,5.3214,5.3214,5.3214,5.3214,5.3214,5.3214,5.3214,5.3214,5.3214,5.3214,5.3214,5.3214,5.3214,5.3214,5.3214,5.3214,5.3214,5.3214,5.3214,5.3214,5.3214,4.4615,4.4905,4.5365,4.6109,4.6853,4.7597,4.8326,4.8766,4.9018,4.9018,4.9018,4.9018,4.9018,4.9018,4.9018,4.9018,4.9018,0.0,0.0,0.0,0.0,0.0,0.0,0.0,0.0,0.0,0.0,0.0,0.0,5.3518,5.3518,5.3518,5.3518,5.3518,5.3518,5.3518,5.3518,5.3518,5.3518,5.3518,5.3518,5.3518,5.3484,5.3044,5.2266,0.0,0.0,0.0,4.9018,4.9018,4.9018,4.9018,4.9018,4.9018,4.9018,4.9018,4.9018,4.9018,4.9018,4.9018,4.9018,4.9018,4.9018,4.9018,4.9018,4.9018,4.9018,4.9018,4.9018,4.9018,4.9018,4.9271,4.9809,5.085,5.1381,5.1934,5.2959,5.3214,5.3214,5.3214,5.3214,5.3214,5.3214,5.3214,5.3214,5.3214,5.3214,5.3214,5.3214,5.3214,5.3214,5.3214,5.3214,5.3214,5.3214,5.3214,5.3214,5.3214,5.3214,5.3214,5.3214,5.3214,5.3214,5.3214,5.3214,5.3214,5.3214,5.3214,5.3214,5.3214,5.3214,5.3214,4.4615,4.4615,4.4804,4.5669,4.6346,4.7022,4.7853,4.8563,4.9018,4.9018,4.9018,4.9018,4.9018,4.9018,0.0,0.0,0.0,0.0,5.0015,0.0,0.0,0.0,0.0,0.0,0.0,0.0,0.0,0.0,0.0,5.3518,5.3518,5.3518,5.3518,5.3518,5.3518,5.3518,5.3518,5.3518,5.3518,5.3518,5.3518,5.3518,5.3518,5.3518,5.2672,5.1201,0.0,0.0,4.9018,4.9018,4.9018,4.9018,4.9018,4.9018,4.9018,4.9018,4.9018,4.9018,4.9018,4.9018,4.9018,4.9018,4.9018,4.9018,4.9018,4.9018,4.9018,4.9018,4.9018,4.9018,4.9018,4.9018,4.9361,5.0756,5.1099,5.1504,5.2893,5.3214,5.3214,5.3214,5.3214,5.3214,5.3214,5.3214,5.3214,5.3214,5.3214,5.3214,5.3214,5.3214,5.3214,5.3214,5.3214,5.3214,5.3214,5.3214,5.3214,5.3214,5.3214,5.3214,5.3214,5.3214,5.3214,5.3214,5.3214,5.3214,5.3214,5.3214,5.3214,5.3214,5.3214,5.3214,4.4615,4.4615,4.4953,4.6278,4.6733,4.7173,4.8511,4.8917,4.9018,4.9018,4.9018,4.9018,4.9018,4.9018,4.9018,0.0,0.0,4.9255,0.0,0.0,0.0,0.0,0.0,0.0,0.0,0.0,0.0,0.0,0.0,5.3518,5.3518,5.3518,5.3518,5.3518,5.3518,5.3518,5.3518,5.3518,5.3518,5.3518,5.3518,5.3518,5.3518,5.3518,5.2672,5.1201,0.0,5.0356,4.9018,4.9018,4.9018,4.9018,4.9018,4.9018,4.9018,4.9018,4.9018,4.9018,4.9018,4.9018,4.9018,4.9018,4.9018,4.9018,4.9018,4.9018,4.9018,4.9018,4.9018,4.9018,4.9018,4.9018,4.9361,5.0756,5.1099,5.1504,5.2893,5.3214,5.3214,5.3214,5.3214,5.3214,5.3214,5.3214,5.3214,5.3214,5.3214,5.3214,5.3214,5.3214,5.3214,5.3214,5.3214,5.3214,5.3214,5.3214,5.3214,5.3214,5.3214,5.3214,5.3214,5.3214,5.3214,5.3214,5.3214,5.3214,5.3214,5.3214,5.3214,5.3214,5.3214,5.3214,4.4615,4.4905,4.5432,4.6515,4.68,4.7192,4.8646,4.9018,4.9018,4.9018,4.9018,4.9018,4.9018,0.0,4.9018,4.9018,0.0,4.939,0.0,0.0,0.0,0.0,0.0,0.0,0.0,0.0,0.0,0.0,0.0,0.0,5.3518,5.3518,5.3518,5.3518,5.3518,5.3518,5.3518,5.3518,5.3518,5.3518,5.3518,5.3518,5.3518,5.3518,5.2672,5.1201,0.0,5.0356,4.9018,4.9018,4.9018,4.9018,4.9018,4.9018,4.9018,4.9018,4.9018,4.9018,4.9018,4.9018,4.9018,4.9018,4.9018,4.9018,4.9018,4.9018,4.9077,4.9432,4.9271,4.9018,4.9018,4.9018,4.9241,5.0286,5.081,5.1368,5.2381,5.2926,5.3214,5.3214,5.3214,5.3214,5.3214,5.3214,5.3214,5.3214,5.3214,5.3214,5.3214,5.3214,5.3214,5.3214,5.3214,5.3214,5.3214,5.3214,5.3214,5.3214,5.3214,5.3214,5.3214,5.3214,5.3214,5.3214,5.3214,5.3214,5.3214,5.3214,5.3214,5.3214,5.3214,5.3214,4.4615,4.5142,4.5872,4.6616,4.6921,4.7394,4.8714,4.9018,4.9018,4.9018,4.9018,4.9018,4.9018,4.9018,0.0,4.9018,4.9154,0.0,0.0,0.0,0.0,0.0,0.0,0.0,0.0,0.0,0.0,0.0,0.0,0.0,5.3518,5.3518,5.3518,5.3518,5.3518,5.3518,5.3518,5.3518,5.3518,5.3518,5.3518,5.3518,5.3518,5.3518,5.2757,5.1438,5.1269,5.0457,4.9255,4.9086,4.9018,4.9018,4.9018,4.9018,4.9018,4.9018,4.9018,4.9018,4.9018,4.9018,4.9018,4.9018,4.9018,4.9018,4.9018,4.9018,4.9107,4.9605,4.9506,4.9271,4.9466,4.9477,4.9649,5.0321,5.0929,5.1519,5.2194,5.2791,5.3214,5.3214,5.3214,5.3214,5.3214,5.3214,5.3214,5.3214,5.3214,5.3214,5.3214,5.3214,5.3214,5.3214,5.3214,5.3214,5.3214,5.3214,5.3214,5.3214,5.3214,5.3214,5.3214,5.3214,5.3214,5.3214,5.3214,5.3214,5.3214,5.3214,5.3214,5.3214,5.3214,5.3214,4.4615,4.5142,4.5872,4.6616,4.7327,4.8022,4.8815,4.9018,4.9018,4.9018,4.9018,4.9018,4.9018,4.9018,4.9018,4.9018,4.956,0.0,0.0,0.0,0.0,0.0,0.0,0.0,0.0,0.0,0.0,0.0,0.0,0.0,5.3518,5.3518,5.3518,5.3518,5.3518,5.3518,5.3518,5.3518,5.3518,5.3518,5.3518,5.3518,5.3518,5.3518,5.3044,5.2198,5.1505,5.0728,4.9981,4.9289,4.9018,4.9018,4.9018,4.9018,4.9018,4.9018,4.9018,4.9018,4.9018,4.9018,4.9018,4.9018,4.9018,4.9018,4.9018,4.9018,4.9018,4.9046,4.9492,5.009,5.077,5.0942,5.1125,5.1777,5.2006,5.2218,5.2959,5.3146,5.3214,5.3214,5.3214,5.3214,5.3214,5.3214,5.3214,5.3214,5.3214,5.3214,5.3214,5.3214,5.3214,5.3214,5.3214,5.3214,5.3214,5.3214,5.3214,5.3214,5.3214,5.3214,5.3214,5.3214,5.3214,5.3214,5.3214,5.3214,5.3214,5.3214,5.3214,5.3214,5.3214,5.3214,4.5162,4.5805,4.6549,4.7293,4.8022,4.868,4.8951,4.9018,4.9018,4.9018,4.9018,4.9018,4.9018,0.0,4.9018,4.9018,0.0,0.0,0.0,0.0,0.0,0.0,0.0,0.0,0.0,0.0,0.0,0.0,0.0,0.0,0.0,5.3518,5.3518,5.3518,5.3518,5.3518,5.3518,5.3518,5.3518,5.3518,5.3518,5.3518,5.3518,5.3518,5.3078,5.2266,5.2029,5.1488,5.0777,5.0491,5.0356,5.0322,4.9864,4.939,4.9018,4.9018,4.9018,4.9018,4.9018,4.9018,4.9018,4.9018,4.9018,4.9018,4.9018,4.9018,4.9092,4.9506,5.0132,5.0635,5.0459,5.0756,5.1164,5.1419,5.179,5.2171,5.2475,5.2893,5.3214,5.3214,5.3214,5.3214,5.3214,5.3214,5.3214,5.3214,5.3214,5.3214,5.3214,5.3214,5.3214,5.3214,5.3214,5.3214,5.3214,5.3214,5.3214,5.3214,5.3214,5.3214,5.3214,5.3214,5.3214,5.3214,5.3214,5.3214,5.3214,5.3214,5.3214,5.3214,5.3214,5.3214,4.5568,4.6413,4.7259,4.7785,4.8462,4.9018,4.9018,4.9018,4.9018,4.9018,4.9018,4.9018,4.9018,4.9018,0.0,0.0,0.0,0.0,0.0,0.0,0.0,0.0,0.0,0.0,0.0,0.0,0.0,0.0,0.0,0.0,0.0,5.3518,5.3518,5.3518,5.3518,5.3518,5.3518,5.3518,5.3518,5.3518,5.3518,5.3518,5.3518,5.3518,5.3213,5.2672,5.2401,5.2029,5.1539,5.1302,5.1201,5.1167,5.0642,5.0135,4.9661,4.9424,4.9357,4.9323,4.9086,4.9018,4.9018,4.9018,4.9018,4.9018,4.9018,4.9018,4.9092,4.9566,5.0202,5.0689,5.0404,5.1047,5.1765,5.1765,5.2089,5.2427,5.2427,5.2824,5.3214,5.3214,5.3214,5.3214,5.3214,5.3214,5.3214,5.3214,5.3214,5.3214,5.3214,5.3214,5.3214,5.3214,5.3214,5.3214,5.3214,5.3214,5.3214,5.3214,5.3214,5.3214,5.3214,5.3214,5.3214,5.3214,5.3214,5.3214,5.3214,5.3214,5.3214,5.3214,5.3214,5.3214,4.5703,4.6771,4.7921,4.7921,4.8462,4.9018,4.9018,4.9018,4.9018,4.9018,4.9018,4.9018,4.9018,4.9018,0.0,0.0,0.0,0.0,0.0,0.0,0.0,0.0,0.0,0.0,0.0,0.0,0.0,0.0,0.0,0.0,0.0,5.3518,5.3518,5.3518,5.3518,5.3518,5.3518,5.3518,5.3518,5.3518,5.3518,5.3518,5.3518,5.3518,5.3518,5.345,5.2672,5.23,5.2266,5.1505,5.1235,5.1201,5.1201,5.1201,5.11,5.0371,5.0117,5.0015,4.9255,4.9018,4.9018,4.9018,4.9018,4.9018,4.9018,4.9018,4.9018,4.9018,4.9477,5.0188,5.0903,5.2137,5.3203,5.3214,5.3214,5.3214,5.3214,5.3214,5.3214,5.3214,5.3214,5.3214,5.3214,5.3214,5.3214,5.3214,5.3214,5.3214,5.3214,5.3214,5.3214,5.3214,5.3214,5.3214,5.3214,5.3214,5.3214,5.3214,5.3214,5.3214,5.3214,5.3214,5.3214,5.3214,5.3214,5.3214,5.3214,5.3214,5.3214,5.3214,5.3214,5.3214,4.6346,4.7192,4.8022,4.8529,4.8849,4.9018,4.9018,4.9018,4.9018,4.9018,4.9018,4.9018,4.9018,4.9424,0.0,0.0,0.0,0.0,0.0,0.0,0.0,0.0,0.0,0.0,0.0,0.0,0.0,0.0,0.0,0.0,0.0,5.3518,5.3518,5.3518,5.3518,5.3518,5.3518,5.3518,5.3518,5.3518,5.3518,5.3518,5.3518,5.3518,5.3518,5.3484,5.3247,5.3145,5.3145,5.2909,5.2486,5.1961,5.1961,5.1641,5.1167,5.093,5.0541,5.0083,4.9846,4.9424,4.9018,4.9018,4.9018,4.9018,4.9018,4.9018,4.9018,4.9018,4.9477,5.0188,5.0903,5.1777,5.2554,5.3082,5.3214,5.3214,5.3214,5.3214,5.3214,5.3214,5.3214,5.3214,5.3214,5.3214,5.3214,5.3214,5.3214,5.3214,5.3214,5.3214,5.3214,5.3214,5.3214,5.3214,5.3214,5.3214,5.3214,5.3214,5.3214,5.3214,5.3214,5.3214,5.3214,5.3214,5.3214,5.3214,5.3214,5.3214,5.3214,5.3214,5.3214,5.3214,4.7056,4.78,4.8428,4.8883,4.9018,4.9018,4.9018,4.9018,4.9018,4.9018,4.9221,4.9424,4.9424,5.0033,0.0,0.0,0.0,0.0,0.0,0.0,0.0,0.0,0.0,0.0,0.0,0.0,0.0,0.0,0.0,0.0,0.0,5.3518,5.3518,5.3518,5.3518,5.3518,5.3518,5.3518,5.3518,5.3518,5.3518,5.3518,5.3518,5.3518,5.3518,5.3518,5.3518,5.3518,5.3518,5.3518,5.3213,5.2773,5.2773,5.2503,5.208,5.1742,5.1183,5.0507,5.0218,4.9627,4.9018,4.9018,4.9018,4.9018,4.9018,4.9018,4.9018,4.9018,4.9286,4.9838,5.0836,5.1393,5.1958,5.2948,5.3214,5.3214,5.3214,5.3214,5.3214,5.3214,5.3214,5.3214,5.3214,5.3214,5.3214,5.3214,5.3214,5.3214,5.3214,5.3214,5.3214,5.3214,5.3214,5.3214,5.3214,5.3214,5.3214,5.3214,5.3214,5.3214,5.3214,5.3214,5.3214,5.3214,5.3214,5.3214,5.3214,5.3214,5.3214,5.3214,5.3214,5.3214,4.7718,4.8428,4.9018,4.9018,4.9018,4.9018,4.9018,4.9018,4.9018,4.9018,4.9593,5.0117,5.0117,5.0777,0.0,0.0,0.0,0.0,0.0,0.0,0.0,0.0,0.0,0.0,0.0,0.0,0.0,0.0,0.0,0.0,0.0,5.3518,5.3518,5.3518,5.3518,5.3518,5.3518,5.3518,5.3518,5.3518,5.3518,5.3518,5.3518,5.3518,5.3518,5.3518,5.3518,5.3518,5.3518,5.3518,5.3518,5.3518,5.3518,5.3518,5.3416,5.2672,5.1945,5.1201,5.0439,4.9729,4.9086,4.9018,4.9018,4.9018,4.9018,4.9018,4.9018,4.9018,4.9018,4.9316,5.073,5.1099,5.1431,5.2872,5.3214,5.3214,5.3214,5.3214,5.3214,5.3214,5.3214,5.3214,5.3214,5.3214,5.3214,5.3214,5.3214,5.3214,5.3214,5.3214,5.3214,5.3214,5.3214,5.3214,5.3214,5.3214,5.3214,5.3214,5.3214,5.3214,5.3214,5.3214,5.3214,5.3214,5.3214,5.3214,5.3214,5.3214,5.3214,5.3214,5.3214,5.3214,4.7853,4.8428,4.9018,4.9018,4.9018,4.9018,4.9018,4.9018,4.9018,4.9018,4.9593,5.0117,5.0117,0.0,0.0,0.0,0.0,0.0,0.0,0.0,0.0,0.0,0.0,0.0,0.0,0.0,0.0,0.0,0.0,0.0,5.3518,5.3518,5.3518,5.3518,5.3518,5.3518,5.3518,5.3518,5.3518,0.0,5.3518,5.3518,5.3518,5.3518,5.3518,5.3518,5.3518,5.3518,5.3518,5.3518,5.3518,5.3518,5.3518,5.3518,5.3484,5.3315,5.2739,5.1961,5.1217,5.0473,4.9763,4.9187,4.9018,4.9018,4.9018,4.9018,4.9018,4.9018,4.9018,4.9316,5.073,5.1099,5.1431,5.2872,5.3214,5.3214,5.3214,5.3214,5.3214,5.3214,5.3214,5.3214,5.3214,5.3214,5.3214,5.3214,5.3214,5.3214,5.3214,5.3214,5.3214,5.3214,5.3214,5.3214,5.3214,5.3214,5.3214,5.3214,5.3214,5.3214,5.3214,5.3214,5.3214,5.3214,5.3214,5.3214,5.3214,5.3214,5.3214,5.3214,5.3214,5.3214,4.8326,4.8714,4.9018,4.9018,4.9018,4.9018,4.9018,4.9018,4.9018,4.9018,4.9864,5.0642,5.0642,0.0,0.0,0.0,0.0,0.0,0.0,0.0,0.0,0.0,0.0,0.0,0.0,0.0,0.0,0.0,0.0,5.3518,5.3518,5.3518,5.3518,5.3518,5.3518,5.3518,5.3518,5.3518,5.3518,5.3518,5.3518,5.3518,5.3518,5.3518,5.3518,5.3518,5.3518,5.3518,5.3518,5.3518,5.3518,5.3518,5.3518,5.3518,5.3518,5.3518,5.2976,5.2266,5.186,5.1014,5.0049,4.9661,4.9289,4.9018,4.9018,4.9018,4.9018,4.9018,4.9018,4.9226,5.0314,5.0836,5.1355,5.244,5.2937,5.3214,5.3214,5.3214,5.3214,5.3214,5.3214,5.3214,5.3214,5.3214,5.3214,5.3214,5.3214,5.3214,5.3214,5.3214,5.3214,5.3214,5.3214,5.3214,5.3214,5.3214,5.3214,5.3214,5.3214,5.3214,5.3214,5.3214,5.3214,5.3214,5.3214,5.3214,5.3214,5.3214,5.3214,5.3214,5.3214,5.3214,4.8834,4.9018,4.9018,4.9018,4.9018,4.9018,4.9018,4.9018,4.9018,4.9018,5.0051,5.0998,0.0,0.0,0.0,0.0,0.0,0.0,0.0,0.0,0.0,0.0,0.0,0.0,0.0,0.0,0.0,0.0,0.0,5.3518,5.3518,5.3518,5.3518,5.3518,5.3518,5.3518,5.3518,5.3518,5.3518,5.3518,5.3518,5.3518,5.3518,5.3518,5.3518,5.3518,5.3518,5.3518,5.3518,5.3518,5.3518,5.3518,5.3518,5.3518,5.3518,5.3518,5.3078,5.2503,5.2367,5.142,5.027,5.015,4.9593,4.9018,4.9018,4.9018,4.9018,4.9018,4.9018,4.9168,4.9838,5.054,5.1266,5.1958,5.2644,5.3214,5.3214,5.3214,5.3214,5.3214,5.3214,5.3214,5.3214,5.3214,5.3214,5.3214,5.3214,5.3214,5.3214,5.3214,5.3214,5.3214,5.3214,5.3214,5.3214,5.3214,5.3214,5.3214,5.3214,5.3214,5.3214,5.3214,5.3214,5.3214,5.3214,5.3214,5.3214,5.3214,5.3214,5.3214,5.3214,5.3214,4.8984,4.9018,4.9018,4.9018,4.9018,4.9018,4.9018,4.9018,4.9018,0.0,4.9661,0.0,0.0,0.0,0.0,0.0,0.0,0.0,0.0,0.0,0.0,0.0,0.0,0.0,0.0,0.0,0.0,0.0,5.3518,5.3518,5.3518,5.3518,5.3518,5.3518,5.3518,5.3518,5.3518,5.3518,5.3518,5.3518,5.3518,5.3518,5.3518,5.3518,5.3518,5.3518,5.3518,5.3518,5.3518,5.3518,5.3518,5.3518,5.3518,5.3518,5.3518,5.3518,5.345,5.3247,5.2536,5.1742,5.093,5.0304,4.9593,4.9018,4.9018,4.9018,4.9018,4.9018,4.9018,4.9168,4.9838,5.054,5.1266,5.1958,5.2644,5.3214,5.3214,5.3214,5.3214,5.3214,5.3214,5.3214,5.3214,5.3214,5.3214,5.3214,5.3214,5.3214,5.3214,5.3214,5.3214,5.3214,5.3214,5.3214,5.3214,5.3214,5.3214,5.3214,5.3214,5.3214,5.3214,5.3214,5.3214,5.3214,5.3214,5.3214,5.3214,5.3214,5.3214,5.3214,5.3214,5.3214,4.9018,4.9018,4.9018,4.9018,4.9018,4.9018,4.9018,4.9018,4.9018,4.9018,0.0,0.0,0.0,0.0,0.0,0.0,0.0,0.0,0.0,0.0,0.0,0.0,0.0,0.0,0.0,0.0,0.0,0.0,5.3518,5.3518,5.3518,5.3518,5.3518,5.3518,5.3518,5.3518,5.3518,5.3518,5.3518,5.3518,5.3518,5.3518,5.3518,5.3518,5.3518,5.3518,5.3518,5.3518,5.3518,5.3518,5.3518,5.3518,5.3518,5.3518,5.3518,5.3518,5.3518,5.345,5.3112,5.2469,5.1674,5.098,5.0202,4.9526,4.912,4.9018,4.9018,4.9018,4.9018,4.9061,4.9342,5.0272,5.1073,5.0968,5.2101,5.3092,5.2655,5.2915,5.3214,5.3214,5.3214,5.3214,5.3214,5.3214,5.3214,5.3214,5.3214,5.3214,5.3214,5.3214,5.3214,5.3214,5.3214,5.3214,5.3214,5.3214,5.3214,5.3214,5.3214,5.3214,5.3214,5.3214,5.3214,5.3214,5.3214,5.3214,5.3214,5.3214,5.3214,5.3214,5.3214,5.3214,4.9018,4.9018,4.9018,4.9018,4.9018,4.9018,4.9018,0.0,4.9018,0.0,0.0,0.0,0.0,0.0,0.0,0.0,0.0,0.0,0.0,0.0,0.0,0.0,0.0,0.0,0.0,0.0,0.0,0.0,5.3518,5.3518,5.3518,5.3518,5.3518,5.3518,5.3518,5.3518,5.3518,5.3518,5.3518,5.3518,5.3518,5.3518,5.3518,5.3518,5.3518,5.3518,5.3518,5.3518,5.3518,5.3518,5.3518,5.3518,5.3518,5.3518,5.3518,5.3518,5.3518,5.3518,5.3518,5.2976,5.2198,5.1641,5.098,5.027,4.9729,4.956,4.956,4.956,4.956,4.956,4.956,5.0497,5.1238,5.0493,5.179,5.3058,5.2511,5.2802,5.3214,5.3214,5.3214,5.3214,5.3214,5.3214,5.3214,5.3214,5.3214,5.3214,5.3214,5.3214,5.3214,5.3214,5.3214,5.3214,5.3214,5.3214,5.3214,5.3214,5.3214,5.3214,5.3214,5.3214,5.3214,5.3214,5.3214,5.3214,5.3214,5.3214,5.3214,5.3214,5.3214,5.3214,4.9018,4.9018,4.9018,4.9018,4.9018,4.9018,0.0,0.0,0.0,0.0,0.0,0.0,0.0,0.0,0.0,0.0,0.0,0.0,0.0,0.0,0.0,0.0,0.0,0.0,0.0,0.0,0.0,0.0,5.3518,5.3518,5.3518,5.3518,5.3518,5.3518,5.3518,5.3518,5.3518,5.3518,5.3518,5.3518,5.3518,5.3518,5.3518,5.3518,5.3518,5.3518,5.3518,5.3518,5.3518,5.3518,5.3518,5.3518,5.3518,5.3518,5.3518,5.3518,5.3518,5.3518,5.3518,5.2976,5.23,5.2266,5.1758,5.1133,5.11,5.11,5.11,5.11,5.11,5.11,5.11,5.1645,5.2072,5.13,5.2197,5.3205,5.3163,5.3156,5.3214,5.3214,5.3214,5.3214,5.3214,5.3214,5.3214,5.3214,5.3214,5.3214,5.3214,5.3214,5.3214,5.3214,5.3214,5.3214,5.3214,5.3214,5.3214,5.3214,5.3214,5.3214,5.3214,5.3214,5.3214,5.3214,5.3214,5.3214,5.3214,5.3214,5.3214,5.3214,5.3214,5.3214,4.9018,4.9018,4.9018,4.9018,4.9018,4.9018,4.9018,4.9018,4.9018,0.0,0.0,0.0,0.0,0.0,0.0,0.0,0.0,0.0,0.0,0.0,0.0,0.0,0.0,0.0,0.0,0.0,0.0,0.0,0.0,5.3518,5.3518,5.3518,5.3518,5.3518,5.3518,5.3518,5.3518,5.3518,5.3518,5.3518,5.3518,5.3518,5.3518,5.3518,5.3518,5.3518,5.3518,5.3518,5.3518,5.3518,5.3518,5.3518,5.3518,5.3518,5.3518,5.3518,5.3518,5.3518,5.3518,5.3315,5.2976,5.2469,5.2131,5.181,5.1336,5.1201,5.1201,5.1201,5.1201,5.1201,5.1201,5.1751,5.2471,5.3158,5.3317,5.3593,5.4557,5.3922,5.3214,5.3214,5.3214,5.3214,5.3214,5.3214,5.3214,5.3214,5.3214,5.3214,5.3214,5.3214,5.3214,5.3214,5.3214,5.3214,5.3214,5.3214,5.3214,5.3214,5.3214,5.3214,5.3214,5.3214,5.3214,5.3214,5.3214,5.3214,5.3214,5.3214,5.3214,5.3214,5.3214,5.3214,4.9018,4.9018,4.9018,4.9018,4.9018,4.9018,4.9018,0.0,0.0,0.0,0.0,0.0,0.0,0.0,0.0,0.0,0.0,0.0,0.0,0.0,0.0,0.0,0.0,0.0,0.0,0.0,0.0,0.0,0.0,0.0,5.3112,5.3348,5.3518,5.3518,5.3518,5.3518,5.3518,5.3518,5.3518,5.3518,5.3518,5.3518,5.3518,5.3518,5.3518,5.3518,5.3518,5.3518,5.3518,5.3518,5.3518,5.3518,5.3518,5.3518,5.3518,5.3518,5.3518,5.3518,5.3518,5.3518,5.3416,5.2875,5.2706,5.2604,5.2114,5.1979,5.1979,5.1979,5.1979,5.1979,5.1979,5.2127,5.2671,5.4171,5.3958,5.3823,5.5291,5.4546,5.3581,5.3581,5.3398,5.3214,5.3214,5.3214,5.3214,5.3214,5.3214,5.3214,5.3214,5.3214,5.3214,5.3214,5.3214,5.3214,5.3214,5.3214,5.3214,5.3214,5.3214,5.3214,5.3214,5.3214,5.3214,5.3214,5.3214,5.3214,5.3214,5.3214,5.3214,5.3214,5.3214,5.3214,0.0,0.0,0.0,4.9018,0.0,0.0,4.9018,0.0,0.0,0.0,0.0,0.0,0.0,0.0,0.0,0.0,0.0,0.0,0.0,0.0,0.0,0.0,0.0,0.0,0.0,0.0,0.0,0.0,5.1894,5.23,5.23,5.3078,5.3518,5.3518,5.3518,5.3518,5.3518,5.3518,5.3518,5.3518,5.3518,5.3518,5.3518,5.3518,5.3518,5.3518,5.3518,5.3518,5.3518,5.3518,5.3518,5.3518,5.3518,5.3518,5.3518,5.3518,5.3518,5.3518,5.3518,5.3518,5.3518,5.3518,5.3518,5.3518,5.3518,5.3518,5.3518,5.3518,5.3518,5.3518,5.3551,5.2925,5.2689,5.4196,5.4011,5.3859,5.5364,5.5023,5.4473,5.4436,5.3801,5.3287,5.3287,5.3287,5.3287,5.3287,5.3287,5.3287,5.3287,5.3251,5.3251,5.3251,5.3214,5.3214,5.3214,5.3214,5.3214,5.3214,5.3214,5.3214,5.3214,5.3214,5.3214,5.3214,5.3214,5.3214,5.3214,5.3214,5.3214,5.3214,5.3214,5.3214,4.9018,0.0,0.0,0.0,0.0,0.0,0.0,0.0,0.0,0.0,0.0,0.0,0.0,0.0,0.0,0.0,0.0,0.0,0.0,0.0,0.0,0.0,0.0,0.0,0.0,0.0,0.0,0.0,5.1894,5.23,5.23,5.3078,5.3518,5.3518,5.3518,5.3518,5.3518,5.3518,5.3518,5.3518,5.3518,5.3518,5.3518,5.3518,5.3518,5.3518,5.3518,5.3518,5.3518,5.3518,5.3518,5.3518,5.3518,5.3518,5.3518,5.3518,5.3518,5.3518,5.3518,5.3518,5.3518,5.3518,5.3518,5.3518,5.3518,5.3518,5.3518,5.3518,5.3518,5.3635,5.4171,5.3726,5.3703,5.5747,5.5637,5.5486,5.6996,5.6712,5.5978,5.539,5.5108,5.495,5.495,5.495,5.495,5.495,5.495,5.495,5.495,5.4436,5.4069,5.4069,5.3544,5.3214,5.3214,5.3214,5.3214,5.3214,5.3214,5.3214,5.3214,5.3214,5.3214,5.3214,5.3214,5.3214,5.3214,5.3214,5.3214,5.3214,5.3214,5.3214,4.9018,4.9018,4.9018,0.0,0.0,0.0,4.9018,4.9018,0.0,0.0,0.0,0.0,0.0,0.0,0.0,0.0,0.0,0.0,0.0,0.0,0.0,0.0,0.0,0.0,0.0,5.0033,5.0288,5.0288,5.098,5.1657,5.2266,5.3078,5.3518,5.3518,5.3518,5.3518,5.3518,5.3518,5.3518,5.3518,5.3518,5.3518,5.3518,5.3518,5.3518,5.3518,5.3518,5.3518,5.3518,5.3518,5.3518,5.3518,5.3518,5.3518,5.3518,5.3518,5.3518,5.3518,5.3518,5.3518,5.3518,5.3518,5.3518,5.3518,5.3518,5.3518,5.3518,5.3518,5.3518,5.3651,5.4388,5.428,5.4454,5.643,5.655,5.6527,5.775,5.7629,5.7079,5.6271,5.5842,5.5585,5.5585,5.5585,5.5585,5.5585,5.5585,5.5585,5.5585,5.5181,5.4913,5.4913,5.4473,5.4216,5.4216,5.4216,5.4216,5.4216,5.4216,5.4069,5.3691,5.3691,5.3544,5.3214,5.3214,5.3214,5.3214,5.3214,5.3214,5.3214,5.3214,5.3214,4.9018,4.9018,4.9018,0.0,0.0,0.0,4.9018,4.9018,4.9018,0.0,0.0,0.0,0.0,0.0,0.0,0.0,0.0,0.0,0.0,0.0,0.0,0.0,0.0,0.0,4.9018,4.9018,4.9018,4.9018,4.9763,5.0811,5.2232,5.3078,5.3518,5.3518,5.3518,5.3518,5.3518,5.3518,5.3518,5.3518,5.3518,5.3518,5.3518,5.3518,5.3518,5.3518,5.3518,5.3518,5.3518,5.3518,5.3518,5.3518,5.3518,5.3518,5.3518,5.3518,5.3518,5.3518,5.3518,5.3518,5.3518,5.3518,5.3518,5.3518,5.3518,5.3518,5.3518,5.3518,5.3518,5.3684,5.4513,5.4649,5.5014,5.6642,5.6964,5.7091,5.7832,5.7997,5.7776,5.7068,5.6345,5.5879,5.5879,5.5879,5.5879,5.5879,5.5879,5.5879,5.5879,5.5805,5.5732,5.5732,5.5658,5.5585,5.5585,5.5585,5.5585,5.5585,5.5585,5.5291,5.4546,5.4509,5.4216,5.3471,5.3398,5.3324,5.3324,5.3251,5.3214,5.3214,5.3214,5.3214,0.0,0.0,0.0,0.0,0.0,0.0,4.9018,4.9018,4.9018,0.0,0.0,0.0,0.0,0.0,0.0,0.0,0.0,0.0,0.0,0.0,0.0,0.0,0.0,0.0,4.9018,4.9018,4.9018,4.9018,5.022,5.137,5.2266,5.3078,5.3518,5.3518,5.3518,5.3518,5.3518,5.3518,5.3518,5.3518,5.3518,5.3518,5.3518,5.3518,5.3518,5.3518,5.3518,5.3518,5.3518,5.3518,5.3518,5.3518,5.3518,5.3518,5.3518,5.3518,5.3518,5.3518,5.3518,5.3518,5.3518,5.3518,5.3518,5.3518,5.3518,5.3518,5.3518,5.3518,5.3518,5.3816,5.5129,5.5024,5.5149,5.7278,5.7339,5.7091,5.7832,5.7997,5.796,5.7813,5.7629,5.7531,5.7531,5.7531,5.7531,5.7531,5.7531,5.7531,5.7531,5.6969,5.6565,5.6565,5.5989,5.5585,5.5585,5.5585,5.5585,5.5585,5.5585,5.5548,5.5365,5.5365,5.5291,5.5144,5.4509,5.4179,5.4179,5.3508,5.3214,5.3214,5.3214,5.3214,0.0,0.0,0.0,4.9018,0.0,0.0,0.0,4.9018,4.9018,4.9018,0.0,0.0,0.0,0.0,0.0,0.0,0.0,0.0,0.0,0.0,0.0,0.0,0.0,0.0,4.9018,4.9018,4.9018,4.9018,5.0033,5.098,5.1708,5.2469,5.3078,5.3484,5.3518,5.3518,5.3518,5.3518,5.3518,5.3518,5.3518,5.3518,5.3518,5.3518,5.3518,5.3518,5.3518,5.3518,5.3518,5.3518,5.3518,5.3518,5.3518,5.3518,5.3518,5.3518,5.3518,5.3518,5.3518,5.3518,5.3518,5.3518,5.3518,5.3518,5.3518,5.3518,5.3518,5.3518,5.3518,5.375,5.4863,5.4878,5.5089,5.7015,5.7154,5.7091,5.7832,5.7997,5.7997,5.7997,5.7997,5.7997,5.7997,5.7997,5.7997,5.7997,5.7997,5.7997,5.7997,5.7666,5.7409,5.7409,5.7042,5.6796,5.6796,5.6796,5.6796,5.6796,5.6796,5.6613,5.6198,5.6198,5.6014,5.5622,5.5218,5.4997,5.4997,5.4583,5.3995,5.3214,5.3214,5.3214,0.0,0.0,0.0,0.0,0.0,4.9018,0.0,0.0,0.0,4.9018,0.0,0.0,0.0,0.0,0.0,0.0,0.0,0.0,0.0,0.0,0.0,0.0,0.0,0.0,0.0,4.9018,4.9018,4.9018,4.9661,5.0405,5.1167,5.1894,5.2672,5.3484,5.3518,5.3518,5.3518,5.3518,5.3518,5.3518,5.3518,5.3518,5.3518,5.3518,5.3518,5.3518,5.3518,5.3518,5.3518,5.3518,5.3518,5.3518,5.3518,5.3518,5.3518,5.3518,5.3518,5.3518,5.3518,5.3518,5.3518,5.3518,5.3518,5.3518,5.3518,5.3518,5.3518,5.3518,5.3518,5.3651,5.4388,5.4622,5.4984,5.6536,5.6899,5.7091,5.7832,5.7997,5.7997,5.7997,5.7997,5.7997,5.7997,5.7997,5.7997,5.7997,5.7997,5.7997,5.7997,5.7997,5.7997,5.7997,5.7997,5.7997,5.7997,5.7997,5.7997,5.7997,5.7997,5.7703,5.7068,5.7031,5.6748,5.6062,5.5915,5.5842,5.5842,5.5695,5.4913,5.3654,5.3654,5.3654,0.0,0.0,0.0,0.0,4.9018,0.0,0.0,0.0,4.9018,4.9018,0.0,0.0,0.0,0.0,0.0,0.0,0.0,0.0,0.0,0.0,0.0,0.0,0.0,0.0,0.0,4.9018,4.9018,4.9018,4.9661,5.0405,5.1167,5.1894,5.2672,5.3484,5.3518,5.3518,5.3518,5.3518,5.3518,5.3518,5.3518,5.3518,5.3518,5.3518,5.3518,5.3518,5.3518,5.3518,5.3518,5.3518,5.3518,5.3518,5.3518,5.3518,5.3518,5.3518,5.3518,5.3518,5.3518,5.3518,5.3518,5.3518,5.3518,5.3518,5.3518,5.3518,5.3518,5.3518,5.3518,5.3651,5.4388,5.4622,5.4984,5.6536,5.6899,5.7091,5.7832,5.7997,5.7997,5.7997,5.7997,5.7997,5.7997,5.7997,5.7997,5.7997,5.7997,5.7997,5.7997,5.7997,5.7997,5.7997,5.7997,5.7997,5.7997,5.7997,5.7997,5.7997,5.7997,5.796,5.7886,5.785,5.7813,5.774,5.7042,5.6675,5.6675,5.5952,5.5511,5.5328,5.5328,5.5328,0.0,0.0,0.0,0.0,0.0,0.0,4.9018,0.0,4.9018,0.0,0.0,0.0,0.0,0.0,0.0,0.0,4.9018,0.0,0.0,0.0,0.0,0.0,0.0,0.0,0.0,0.0,0.0,0.0,4.9289,4.9965,5.1133,5.1472,5.2232,5.345,5.3518,5.3518,5.3518,5.3518,5.3518,5.3518,5.3518,5.3518,5.3518,5.3518,5.3518,5.3518,5.3518,5.3518,5.3518,5.3518,5.3518,5.3518,5.3518,5.3518,5.3518,5.3518,5.3518,5.3518,5.3518,5.3518,5.3518,5.3518,5.3518,5.3518,5.3518,5.3518,5.3518,5.3518,5.3518,5.3568,5.3881,5.3979,5.4328,5.5858,5.6218,5.6527,5.775,5.7997,5.7997,5.7997,5.7997,5.7997,5.7997,5.7997,5.7997,5.7997,5.7997,5.7997,5.7997,5.7997,5.7997,5.7997,5.7997,5.7997,5.7997,5.7997,5.7997,5.7997,5.7997,5.7997,5.7997,5.7997,5.7997,5.7997,5.7666,5.7483,5.7483,5.7152,5.698,5.698,5.6025,5.5585,5.0405,0.0,0.0,0.0,0.0,0.0,0.0,0.0,0.0,0.0,0.0,0.0,0.0,0.0,0.0,0.0,0.0,0.0,0.0,0.0,0.0,0.0,0.0,0.0,0.0,0.0,0.0,0.0,0.0,4.956,5.0829,5.11,5.181,5.3145,5.3382,5.3518,5.3518,5.3518,5.3518,5.3518,5.3518,5.3518,5.3518,5.3518,5.3518,5.3518,5.3518,5.3518,5.3518,5.3518,5.3518,5.3518,5.3518,5.3518,5.3518,5.3518,5.3518,5.3518,5.3518,5.3518,5.3518,5.3518,5.3518,5.3518,5.3518,5.3518,5.3518,5.3518,5.3518,5.3518,5.3518,5.3518,5.3864,5.535,5.5709,5.6128,5.7654,5.7997,5.7997,5.7997,5.7997,5.7997,5.7997,5.7997,5.7997,5.7997,5.7997,5.7997,5.7997,5.7997,5.7997,5.7997,5.7997,5.7997,5.7997,5.7997,5.7997,5.7997,5.7997,5.7997,5.7997,5.7997,5.7997,5.7997,5.7997,5.7997,5.7997,5.7997,5.7997,5.796,5.6796,5.6246,0.0,0.0,0.0,5.0083,0.0,0.0,0.0,0.0,4.9018,0.0,0.0,0.0,0.0,0.0,0.0,4.9018,0.0,0.0,0.0,0.0,0.0,0.0,0.0,0.0,0.0,0.0,0.0,0.0,0.0,0.0,5.0083,5.0811,5.1539,5.23,5.3078,5.3518,5.3518,5.3518,5.3518,5.3518,5.3518,5.3518,5.3518,5.3518,5.3518,5.3518,5.3518,5.3518,5.3518,5.3518,5.3518,5.3518,5.3518,5.3518,5.3518,5.3518,5.3518,5.3518,5.3518,5.3518,5.3518,5.3518,5.3518,5.3518,5.3518,5.3518,5.3518,5.3518,5.3518,5.3518,5.3518,5.3518,5.3864,5.535,5.5709,5.6128,5.7654,5.7997,5.7997,5.7997,5.7997,5.7997,5.7997,5.7997,5.7997,5.7997,5.7997,5.7997,5.7997,5.7997,5.7997,5.7997,5.7997,5.7997,5.7997,5.7997,5.7997,5.7997,5.7997,5.7997,5.7997,5.7997,5.7997,5.7997,5.7997,5.7997,5.7997,5.7997,5.7997,5.7997,5.796,5.7923,0.0,0.0,5.0845,5.0845,0.0,0.0,0.0,0.0,0.0,0.0,0.0,0.0,0.0,0.0,4.9018,4.9018,4.9018,0.0,0.0,0.0,0.0,0.0,0.0,0.0,0.0,0.0,0.0,0.0,4.9018,0.0,0.0,5.0795,5.1539,5.2266,5.3078,5.3518,5.3518,5.3518,5.3518,5.3518,5.3518,5.3518,5.3518,5.3518,5.3518,5.3518,5.3518,5.3518,5.3518,5.3518,5.3518,5.3518,5.3518,5.3518,5.3518,5.3518,5.3518,5.3518,5.3518,5.3518,5.3518,5.3518,5.3518,5.3518,5.3518,5.3518,5.3518,5.3518,5.3518,5.3518,5.3518,5.3518,5.375,5.4726,5.535,5.599,5.7053,5.7667,5.7997,5.7997,5.7997,5.7997,5.7997,5.7997,5.7997,5.7997,5.7997,5.7997,5.7997,5.7997,5.7997,5.7997,5.7997,5.7997,5.7997,5.7997,5.7997,5.7997,5.7997,5.7997,5.7997,5.7997,5.7997,5.7997,5.7997,5.7997,5.7997,5.7997,5.7997,5.7997,5.7997,5.7997,5.2739,5.2148,0.0,5.1573,5.1404,0.0,5.0608,0.0,0.0,0.0,0.0,0.0,0.0,0.0,0.0,4.9018,4.9018,4.9018,0.0,4.9018,0.0,0.0,0.0,0.0,0.0,0.0,0.0,0.0,4.9018,0.0,0.0,0.0,5.1404,5.1877,5.2942,5.3518,5.3518,5.3518,5.3518,5.3518,5.3518,5.3518,5.3518,5.3518,5.3518,5.3518,5.3518,5.3518,5.3518,5.3518,5.3518,5.3518,5.3518,5.3518,5.3518,5.3518,5.3518,5.3518,5.3518,5.3518,5.3518,5.3518,5.3518,5.3518,5.3518,5.3518,5.345,5.3145,5.3281,5.345,5.3145,5.3281,5.3701,5.4419,5.5158,5.592,5.6721,5.7474,5.7997,5.7997,5.7997,5.7997,5.7997,5.7997,5.7997,5.7997,5.7997,5.7997,5.7997,5.7997,5.7997,5.7997,5.7997,5.7997,5.7997,5.7997,5.7997,5.7997,5.7997,5.7997,5.7997,5.7997,5.8253,5.8841,5.829,5.829,5.8841,5.829,5.7997,5.7997,5.7997,5.7997]}]]